GFSCGP_250_spd_000.txt.gz
Wind_Speed
44 42 43 51 48 39 39 39 40 44 48 37 31 27 33 39 44 47 46 46 44 45 48 46 43 39 35 36 38 41 42 44 45 47 49 54 62 63 62 62 61 61 62 60
51 47 53 47 48 51 53 53 48 46 52 46 38 29 33 37 42 46 49 52 50 51 51 53 51 48 45 41 39 42 44 45 47 47 47 49 53 58 64 66 66 65 65 63
55 57 61 61 59 60 60 58 55 49 51 47 45 33 32 35 42 45 45 49 54 54 53 54 53 50 47 49 49 48 49 51 51 49 50 51 52 51 53 58 61 62 62 64
59 65 65 63 63 75 64 72 64 54 54 50 50 30 34 39 48 56 54 50 51 54 56 59 60 60 60 59 57 56 52 53 56 56 56 56 55 55 56 53 53 55 55 56
73 72 75 76 76 77 74 79 79 75 71 60 51 51 45 55 52 52 56 60 62 61 63 64 67 65 64 61 60 61 63 60 58 59 60 62 63 62 64 60 60 61 60 61
80 84 79 80 81 85 88 84 85 92 80 78 81 78 41 56 59 64 63 66 65 65 65 63 69 73 74 72 72 68 66 70 71 68 66 64 68 71 70 69 68 67 66 67
86 85 91 87 91 90 91 98 94 92 96 86 94 96 75 78 79 79 83 83 77 78 80 75 76 81 83 81 80 80 73 70 71 74 72 73 73 73 76 77 77 74 70 71
94 84 90 93 95 95 95 101 106 106 104 105 108 108 99 98 89 91 95 100 100 97 89 91 86 86 88 89 88 86 88 90 83 77 75 74 76 81 78 79 78 78 81 82
97 97 95 96 98 101 104 107 108 117 119 123 113 112 113 105 104 100 105 102 108 109 106 102 99 94 96 96 99 98 95 93 95 94 93 91 84 83 85 82 76 84 85 86
113 117 107 109 110 114 120 118 119 121 130 132 130 123 122 110 103 110 109 110 110 111 111 108 106 101 101 101 101 100 101 103 99 102 102 101 97 89 92 94 97 97 97 93
125 122 116 120 119 125 126 125 128 129 134 141 141 136 115 108 107 110 116 115 113 110 110 108 110 111 103 101 102 100 103 110 114 108 105 105 104 106 101 101 104 106 106 102
128 134 136 133 131 134 132 135 137 136 136 139 145 146 121 117 115 119 114 116 112 111 110 113 114 115 109 103 99 101 102 108 117 123 112 110 111 110 110 110 112 112 111 109
143 150 147 149 149 141 146 144 140 135 135 140 147 142 126 131 129 123 122 119 116 115 114 121 117 116 116 110 105 104 100 102 115 123 119 109 114 118 115 117 119 118 113 116
159 159 154 156 157 149 144 133 130 133 134 136 139 141 132 131 133 136 130 126 120 125 125 124 129 117 113 116 117 115 116 112 109 114 108 116 118 118 115 118 120 122 124 121
161 159 147 145 143 137 135 125 118 111 115 136 131 127 125 116 120 121 119 116 119 122 121 120 115 110 110 108 111 111 107 102 99 102 98 98 106 104 112 116 118 114 115 118
140 138 134 130 121 127 118 112 110 114 118 125 114 112 109 109 106 108 108 105 105 91 88 91 95 91 96 102 98 102 104 106 101 101 104 106 106 109 106 106 110 111 115 116
130 128 125 126 122 127 119 108 115 109 108 114 117 112 108 105 104 103 106 106 102 96 100 99 95 88 93 98 98 99 106 110 113 114 109 111 112 114 112 110 110 106 111 114
131 130 131 127 121 116 109 109 111 113 115 115 117 116 115 109 106 109 107 109 107 104 99 100 97 85 88 90 100 102 101 103 103 106 107 106 108 115 115 114 113 112 113 110
125 124 124 122 118 111 101 103 105 108 107 109 111 110 110 108 102 106 106 107 108 107 107 105 103 95 88 91 88 93 108 108 109 109 110 109 111 114 117 114 111 110 110 110
117 120 122 121 118 114 105 107 110 109 109 110 110 108 109 109 107 104 110 108 106 103 102 103 104 102 99 95 98 92 94 100 108 112 114 113 113 114 115 115 112 112 109 108
107 111 110 109 113 110 105 104 105 109 109 108 109 109 109 108 107 105 106 109 109 108 108 106 102 101 100 100 97 96 96 100 102 103 104 108 112 112 114 116 113 113 113 113
101 104 105 109 108 104 104 106 106 109 110 108 106 106 106 104 102 103 100 101 103 105 106 106 104 102 101 100 100 99 96 99 101 102 106 108 111 111 112 114 114 114 115 115
98 98 103 104 100 104 107 105 105 105 103 99 99 99 100 98 96 95 93 91 94 96 98 100 101 100 100 101 99 95 98 96 99 100 102 102 105 103 109 115 115 114 116 115
90 95 96 98 90 97 98 97 98 99 100 97 97 98 99 99 97 94 92 90 91 92 92 94 95 94 93 99 98 95 91 91 90 94 98 99 96 97 106 112 112 114 113 113
85 90 95 88 84 97 92 92 96 97 99 99 98 97 97 95 93 93 89 90 90 89 91 91 90 89 87 91 91 95 94 89 87 88 90 93 94 95 102 105 108 114 114 114
90 87 91 86 89 98 92 95 98 98 97 95 93 91 92 92 89 90 86 86 86 84 85 85 85 86 86 87 87 91 92 89 84 82 84 86 88 89 97 101 104 109 111 109

GFSCGP_250_spd_003.txt.gz
Wind_Speed
39 39 43 46 48 47 43 40 33 36 40 33 35 33 36 40 42 47 48 46 43 44 47 45 46 45 41 39 37 39 40 39 40 41 40 41 43 42 45 46 50 56 59 59
46 43 52 47 51 50 42 42 45 44 45 38 33 32 36 41 47 52 53 52 47 47 51 49 47 45 48 46 45 41 42 43 42 41 42 44 46 48 49 50 50 49 51 57
52 55 57 56 57 61 61 61 61 45 44 46 37 25 31 36 44 52 50 49 49 48 55 58 55 51 48 47 50 52 49 45 44 47 48 49 51 53 54 54 52 51 52 52
60 64 62 62 65 67 65 73 65 64 62 51 48 41 41 39 45 49 51 52 55 62 60 57 55 58 60 59 61 56 59 62 58 53 53 52 51 53 57 59 58 55 55 57
68 71 69 70 72 75 74 79 82 84 68 58 57 56 49 54 51 49 55 62 67 73 71 70 76 75 70 71 65 62 62 64 66 65 64 61 56 56 61 61 61 61 62 63
79 78 72 76 79 87 78 76 82 85 87 81 78 72 53 65 72 75 78 84 82 88 84 76 77 81 91 89 87 89 73 71 69 73 72 71 72 66 59 62 64 68 67 67
73 80 77 73 88 82 91 94 91 92 88 84 89 83 68 80 85 89 90 96 95 91 95 97 98 100 95 91 91 88 86 81 78 79 75 78 83 81 79 74 74 71 69 69
87 80 86 88 85 98 96 93 100 105 100 96 101 98 82 85 95 100 106 108 109 109 106 104 105 104 106 102 102 96 94 94 92 88 90 82 85 85 87 84 82 83 80 83
98 85 89 93 98 96 99 100 104 112 115 118 112 110 104 92 102 109 115 115 116 117 116 117 118 110 107 109 107 107 101 99 100 99 97 102 94 91 93 94 96 93 93 92
106 104 95 102 101 105 110 110 110 113 122 123 128 123 124 111 111 116 118 120 122 120 121 120 116 116 115 106 105 110 107 103 106 107 105 105 110 104 96 101 102 104 103 101
110 119 102 110 109 114 119 123 121 131 134 135 136 136 129 126 111 104 116 118 120 121 121 119 116 116 114 110 105 107 112 109 108 112 113 112 113 112 109 105 108 114 109 108
117 124 124 118 117 127 128 129 134 142 139 137 143 141 141 135 131 127 119 119 112 111 115 115 116 114 117 107 103 111 116 110 116 114 116 115 116 113 109 108 108 114 116 116
123 129 136 134 128 132 140 142 143 140 148 156 152 150 134 152 144 135 125 118 114 110 110 112 114 114 116 112 113 113 118 112 110 112 113 109 113 119 113 111 110 114 119 119
140 148 154 151 149 149 150 152 156 159 152 147 141 136 140 127 117 116 117 112 103 95 104 116 112 111 112 116 117 119 119 124 119 118 120 122 120 119 122 118 118 117 116 119
161 163 162 163 160 157 160 154 132 121 123 132 124 125 121 120 113 110 110 108 107 103 97 103 100 92 97 97 97 103 103 114 120 123 125 125 127 126 128 129 122 119 115 119
157 162 159 156 154 153 140 125 126 123 123 127 127 124 123 121 113 108 102 100 102 104 105 101 95 96 97 96 99 106 101 102 107 111 116 122 129 131 128 126 124 120 115 117
138 143 148 140 133 141 135 120 123 122 118 118 118 119 116 113 109 102 96 96 95 94 95 98 99 96 98 99 99 100 98 103 108 109 112 112 110 109 113 118 121 121 116 112
134 137 140 130 128 127 116 111 114 115 111 110 113 114 112 110 107 104 101 100 98 95 94 94 94 95 97 99 100 98 100 101 104 106 107 109 111 110 110 110 111 112 113 115
127 127 124 123 118 115 103 106 107 105 102 105 107 106 105 105 99 99 101 99 98 97 96 96 96 95 96 97 100 99 100 101 102 102 101 104 108 109 113 117 117 116 115 115
112 111 114 112 111 106 98 100 100 102 103 105 104 102 101 103 100 97 103 101 100 100 101 102 100 98 98 98 100 98 99 100 102 102 101 104 106 109 113 115 114 118 122 119
101 104 106 108 110 103 101 102 102 104 104 101 102 101 101 102 102 100 101 102 103 102 103 104 102 100 101 102 103 102 103 105 102 100 101 102 104 106 112 115 117 115 116 121
96 97 99 103 102 102 101 102 101 102 101 100 99 99 101 101 100 100 98 99 100 100 100 102 100 99 99 100 99 98 98 99 96 96 97 97 101 104 106 113 115 119 118 117
90 90 92 91 95 98 95 96 97 97 94 93 95 94 96 94 93 92 91 91 91 93 93 96 96 95 97 100 99 96 98 98 94 92 91 93 94 95 100 105 108 114 121 121
85 87 85 84 88 89 88 90 91 91 91 90 90 89 89 90 91 90 89 90 92 94 95 95 94 93 92 96 96 96 95 95 94 93 93 94 91 92 95 98 101 107 111 116
83 85 84 77 83 91 84 87 88 88 90 90 90 91 92 92 91 92 93 95 94 92 92 90 88 86 87 88 91 92 90 88 86 87 89 89 90 91 93 95 96 98 102 112
84 82 83 76 86 93 80 89 90 89 90 91 92 92 94 95 94 91 88 87 85 84 84 82 83 82 83 83 83 84 86 83 82 82 84 83 84 85 85 87 92 94 97 104

GFSCGP_250_spd_006.txt.gz
Wind_Speed
43 42 48 49 44 43 43 42 39 38 41 30 29 27 30 32 38 43 46 47 49 50 50 48 44 41 42 44 44 40 40 42 42 39 42 44 46 46 49 49 45 46 43 40
55 48 56 54 52 47 44 45 43 46 45 37 36 34 42 43 45 43 43 47 50 49 45 47 48 49 47 44 44 46 47 44 41 42 42 44 48 49 49 52 51 51 49 47
51 50 54 57 58 56 54 55 55 49 52 54 47 52 44 48 50 48 53 53 49 49 48 48 49 48 48 47 46 46 44 45 50 49 50 52 52 53 55 55 58 60 58 57
59 64 64 64 67 68 63 62 59 61 60 59 54 51 61 61 65 60 59 55 55 51 56 59 56 60 62 62 67 64 59 61 58 60 60 55 55 62 59 58 60 63 64 64
69 68 63 64 66 70 67 71 66 62 62 65 61 63 59 66 72 67 64 65 60 66 70 71 72 69 71 71 70 75 76 75 72 74 69 68 66 64 67 68 66 66 66 65
83 80 72 74 73 75 75 73 77 76 72 63 66 66 63 68 67 79 77 76 74 76 75 77 76 78 80 80 83 84 89 86 87 84 79 80 80 80 73 75 75 74 75 76
72 79 75 77 84 86 84 84 82 82 85 75 78 75 66 76 77 76 80 87 86 88 90 90 94 92 94 92 89 91 91 93 92 91 91 91 89 87 86 82 83 85 85 82
86 82 75 89 90 90 85 92 95 89 79 88 85 80 75 84 83 85 90 89 93 97 100 102 107 114 108 106 101 101 99 100 101 97 94 94 92 94 97 95 94 90 94 95
100 82 90 84 88 95 101 91 101 107 97 100 89 87 79 94 93 95 96 99 100 102 108 114 116 121 118 115 115 110 112 110 109 113 110 107 109 111 104 102 104 103 101 103
106 109 98 101 103 99 103 108 102 103 111 116 107 98 97 94 98 104 106 107 112 114 118 124 126 124 123 121 126 121 114 115 121 120 117 115 116 112 112 113 108 111 109 108
109 114 105 109 106 106 110 109 113 115 119 116 118 119 109 110 109 106 115 118 122 124 127 128 128 134 130 128 127 125 122 118 123 128 124 120 117 116 116 116 118 118 118 118
116 123 118 111 111 114 113 118 118 114 116 125 130 130 131 130 125 126 129 126 129 132 136 135 128 130 133 129 127 129 126 130 127 130 129 123 123 122 121 116 119 122 123 123
119 118 122 122 121 120 126 119 123 128 132 135 134 139 140 142 142 143 147 153 148 137 131 126 125 125 122 124 123 130 135 127 123 128 127 125 124 123 121 119 116 118 123 121
128 129 130 134 134 125 129 131 131 135 139 144 152 154 149 149 153 160 149 137 127 112 110 113 111 113 114 113 116 132 131 120 120 121 123 121 119 119 117 116 119 118 121 122
132 133 133 133 135 141 141 143 145 152 156 162 161 156 136 140 137 130 128 125 124 126 118 107 101 99 102 106 111 114 119 119 117 116 116 114 117 117 120 121 122 121 123 124
142 148 146 150 148 153 158 158 153 146 139 131 139 132 131 122 122 122 121 118 116 117 115 110 104 96 92 95 97 103 112 116 117 121 120 116 115 114 114 116 116 114 112 115
117 124 130 123 123 130 122 118 128 131 122 126 126 124 121 115 116 116 114 110 108 106 106 106 105 102 97 92 93 92 101 111 113 117 122 122 118 120 122 118 116 120 121 118
118 121 122 120 123 121 116 119 124 124 114 115 119 117 114 113 114 112 115 109 107 105 104 102 100 99 98 96 95 94 97 100 105 109 114 120 123 121 123 125 121 118 118 120
120 122 125 125 125 122 114 115 111 109 103 107 109 110 111 111 107 108 114 109 108 107 104 103 102 100 99 100 97 94 95 97 102 107 108 109 115 121 123 123 126 125 122 118
116 120 124 119 117 111 101 104 104 107 105 107 108 107 108 107 103 103 110 109 107 107 106 104 103 102 102 102 100 97 96 96 98 101 105 108 110 112 115 119 122 125 127 126
104 105 107 109 113 107 103 102 102 103 103 101 102 102 103 102 101 99 100 101 102 101 101 100 98 97 98 99 97 97 98 100 100 99 101 104 107 107 110 112 115 119 121 122
101 101 100 103 103 101 99 95 96 96 93 93 94 94 94 93 93 93 93 94 96 96 95 94 91 91 93 95 93 92 93 94 93 93 95 99 103 105 106 106 108 114 117 117
95 94 94 94 96 95 93 93 90 92 86 89 88 88 88 86 86 85 87 90 90 91 91 91 89 89 91 94 93 91 94 94 93 93 94 95 97 99 100 98 98 99 105 111
92 93 92 93 93 91 91 91 89 88 88 87 87 86 87 85 86 86 87 88 88 91 92 92 92 92 91 95 95 94 93 92 91 91 93 93 92 94 97 96 95 95 96 98
91 90 91 89 94 90 88 90 89 88 88 86 86 86 86 86 86 86 88 90 91 92 93 91 90 90 89 88 89 88 85 83 81 83 85 86 86 87 89 90 90 88 89 91
91 88 88 83 90 89 81 91 89 87 86 86 85 84 84 84 86 86 87 89 89 89 88 85 84 81 81 82 83 83 83 83 81 80 81 81 80 81 82 83 84 84 83 84

GFSCGP_250_spd_009.txt.gz
Wind_Speed
54 54 53 58 52 50 47 45 44 47 46 44 45 39 40 42 49 49 47 46 44 42 42 40 39 40 42 46 46 48 48 45 42 40 40 41 42 42 45 43 45 46 46 47
51 51 56 58 59 58 57 55 54 53 55 51 50 47 47 47 52 52 52 54 59 58 54 48 47 45 42 40 42 45 47 43 42 41 39 36 40 48 47 46 48 50 50 51
62 56 55 60 63 63 62 59 54 55 57 58 56 51 54 56 57 60 59 58 57 56 57 59 61 57 50 45 43 45 48 49 51 53 51 56 56 54 55 58 58 56 57 56
63 68 65 63 63 63 59 62 62 61 61 62 60 57 62 65 66 63 64 66 65 67 69 72 67 67 66 57 59 59 56 56 57 56 62 59 66 67 68 65 68 71 64 65
61 64 67 69 73 77 75 75 74 71 67 64 65 67 61 66 73 68 69 72 72 71 71 69 66 68 66 72 71 70 69 68 68 68 66 72 74 74 75 77 77 79 77 76
89 80 82 75 72 72 76 76 72 80 79 69 76 78 69 70 72 72 74 82 81 78 77 78 78 76 74 73 80 83 77 78 79 80 83 81 85 84 81 82 86 88 86 84
98 92 91 94 88 89 88 82 84 83 74 73 85 77 70 79 81 80 85 84 83 86 89 87 89 91 87 84 81 79 83 87 89 90 89 91 94 95 94 90 89 91 95 95
108 102 96 96 97 103 99 97 95 94 94 85 84 76 83 89 84 85 87 89 93 89 95 101 94 86 94 96 90 91 92 91 92 96 98 99 96 101 104 102 102 98 99 101
102 101 108 106 99 102 101 98 103 104 100 106 96 93 88 95 100 93 94 91 92 91 96 92 108 113 105 101 102 105 103 103 103 105 107 110 112 115 113 113 111 110 107 110
114 111 102 107 103 103 105 101 101 107 113 112 105 106 102 100 107 101 101 101 107 97 99 103 109 106 106 107 108 110 113 116 115 115 118 119 120 123 125 123 122 119 118 118
113 115 98 101 91 96 105 110 103 113 116 123 123 113 103 105 109 112 109 108 105 117 115 109 119 113 113 117 118 122 123 125 127 127 129 131 132 135 133 131 130 133 124 125
109 116 109 99 103 107 107 112 118 119 118 127 128 126 115 115 114 118 120 120 123 120 119 121 124 123 123 126 128 132 137 140 140 138 140 141 141 142 135 135 135 133 132 130
109 115 114 109 110 114 121 118 121 125 128 129 132 131 129 129 128 129 129 131 134 132 132 133 132 135 136 136 140 148 150 149 151 151 149 152 151 140 136 133 134 134 134 131
115 120 118 117 113 111 118 120 123 128 133 138 138 138 136 137 144 143 139 137 136 137 143 145 145 145 147 147 138 123 124 126 136 140 140 137 134 129 129 129 130 131 132 132
120 118 116 116 115 117 118 118 118 122 125 137 141 146 142 145 145 149 150 148 146 139 125 117 115 116 119 116 113 115 117 117 121 124 128 127 127 130 133 134 133 130 128 128
116 115 115 111 115 117 117 111 113 120 118 124 130 129 124 133 129 125 124 123 121 119 117 117 116 117 115 112 110 111 113 114 115 117 118 121 124 126 128 131 132 133 134 134
116 118 119 111 118 118 112 110 118 118 117 122 125 122 119 124 122 118 120 123 120 117 117 117 117 116 111 108 104 103 104 104 109 111 111 111 115 121 125 129 132 134 134 133
114 118 120 116 117 118 110 114 117 117 111 116 120 117 116 115 115 113 117 117 112 112 110 110 110 110 111 110 107 102 101 100 96 100 103 106 110 115 118 121 126 130 131 130
113 113 119 118 118 115 106 114 114 114 104 110 111 110 107 106 103 105 111 109 111 111 110 109 107 107 107 106 103 101 99 98 96 96 98 102 104 106 110 114 121 123 124 127
113 115 118 116 117 113 106 107 106 110 102 105 105 107 106 103 100 100 106 106 105 105 104 102 100 100 100 99 97 97 97 97 95 94 93 96 101 104 105 107 110 115 120 123
105 106 106 105 108 105 101 102 104 106 104 101 101 100 98 96 95 94 97 98 98 98 98 96 93 94 95 93 92 91 91 92 91 91 92 94 96 98 100 103 106 108 112 113
100 101 101 103 104 105 102 102 101 101 96 95 96 94 93 91 91 91 91 91 93 93 92 93 91 92 94 93 90 88 88 86 85 85 86 88 90 92 94 96 98 99 102 106
103 100 101 99 101 99 95 97 97 97 92 92 93 91 91 88 89 88 88 89 90 89 90 89 89 90 94 93 91 87 88 86 87 89 89 89 89 90 90 91 93 94 96 96
98 95 96 98 97 96 94 94 92 92 90 89 90 88 87 85 86 85 86 87 87 87 87 87 88 88 91 91 90 88 87 88 88 89 90 90 89 90 89 88 89 90 93 94
97 96 99 92 95 95 90 91 91 90 89 87 85 84 83 82 82 81 82 82 82 82 83 83 85 86 88 87 89 87 85 85 84 84 84 83 82 80 79 81 83 83 84 84
99 96 95 90 92 89 81 90 92 89 86 84 84 82 80 80 79 78 79 78 79 81 83 85 86 84 81 81 81 79 78 78 78 79 80 78 76 75 76 76 78 79 79 78

GFSCGP_250_spd_012.txt.gz
Wind_Speed
48 49 47 49 49 47 53 53 52 55 55 53 54 49 49 49 56 56 54 49 46 53 56 53 49 50 49 47 49 52 51 52 55 54 49 48 49 48 48 46 44 43 44 45
51 54 55 54 60 56 55 51 54 55 60 58 59 55 58 58 60 55 58 58 58 57 57 57 55 57 56 54 55 55 51 49 49 46 46 46 45 44 42 43 45 45 43 47
50 45 51 55 54 56 55 57 60 61 62 63 66 65 65 68 69 63 61 66 65 66 64 65 65 65 65 60 58 58 59 58 58 53 48 51 52 53 56 56 59 54 55 54
49 59 62 57 59 62 59 69 67 62 62 65 67 66 61 69 69 67 69 74 71 71 71 73 72 71 72 70 70 70 71 70 70 69 67 62 59 58 57 63 64 64 65 67
62 62 73 72 74 75 75 83 83 85 81 64 63 74 70 76 73 66 72 78 77 80 83 80 79 77 76 75 73 72 73 73 73 72 74 76 74 75 73 71 70 66 71 75
70 72 77 77 80 86 89 91 93 98 98 87 81 80 58 68 81 81 82 81 81 82 79 82 85 82 82 84 81 79 79 80 80 82 81 79 81 85 83 79 78 79 81 80
80 80 85 88 90 91 95 99 104 104 101 96 89 90 75 81 79 79 81 88 93 92 91 92 92 92 90 89 93 96 93 90 90 89 88 87 90 85 85 85 85 87 88 88
92 91 94 96 93 99 105 111 110 106 94 90 90 92 90 91 87 89 90 87 88 88 96 99 96 98 100 103 101 102 103 102 103 100 100 100 98 96 95 95 93 94 95 95
96 100 103 107 107 111 116 117 102 103 99 100 94 91 98 99 100 98 95 95 99 97 99 97 97 103 103 104 109 108 109 112 111 109 107 110 106 105 105 105 106 105 103 102
106 111 110 111 115 119 118 114 101 101 103 112 102 93 88 97 101 105 106 103 105 108 107 108 110 109 112 107 103 110 105 112 118 118 118 118 119 122 120 117 112 112 113 114
114 118 116 120 120 122 119 104 101 111 108 110 105 99 97 98 100 104 108 108 114 109 117 119 119 120 122 120 118 112 114 116 113 115 119 124 121 122 122 123 125 123 121 120
120 129 121 118 114 116 112 110 107 115 114 112 112 110 106 117 116 116 118 118 116 117 121 120 121 125 132 134 124 122 121 123 122 120 124 123 124 126 126 128 129 134 129 132
127 128 126 115 113 115 116 116 115 114 116 114 119 113 112 122 124 121 123 126 131 130 131 132 130 133 134 133 136 133 132 134 134 134 135 136 136 136 135 139 140 141 142 144
129 126 120 121 117 119 122 120 117 117 118 120 117 119 111 116 123 122 118 119 120 121 122 124 128 129 133 130 126 129 128 131 135 144 149 146 147 146 144 150 153 152 149 150
130 127 127 128 130 127 122 115 112 118 122 125 117 120 114 118 117 118 118 117 117 114 110 112 113 116 114 120 124 125 119 119 126 120 121 127 140 140 138 132 135 142 150 150
129 133 135 133 132 127 121 111 117 118 117 118 119 117 117 115 116 116 115 116 117 115 113 110 111 111 112 111 115 117 118 121 121 123 123 123 124 128 131 132 132 132 132 135
140 140 138 128 133 128 115 117 119 117 116 116 117 115 114 114 113 112 112 115 114 112 115 114 110 109 108 109 107 106 107 107 108 110 111 114 117 118 121 122 124 127 128 128
142 140 141 131 130 122 117 113 118 115 109 111 115 114 113 110 110 109 112 111 108 107 108 108 106 104 106 105 102 101 100 100 100 102 104 106 107 108 110 111 113 114 115 116
135 137 136 127 122 118 106 113 113 112 102 104 108 105 101 99 96 97 105 101 101 103 103 102 102 99 98 98 96 96 94 92 92 92 93 96 98 100 103 105 106 109 111 111
129 130 124 120 119 112 102 104 106 108 94 98 100 100 100 99 98 98 103 105 100 97 98 99 100 99 96 93 92 91 91 90 88 87 86 87 89 91 93 96 99 103 105 104
114 113 112 111 114 105 101 103 102 102 97 94 96 98 99 97 97 95 96 97 98 97 97 97 97 97 94 91 91 91 91 91 88 87 87 87 88 88 89 90 93 94 95 96
103 103 101 103 100 102 101 100 100 100 97 93 93 94 94 93 94 93 92 92 93 93 93 92 92 93 92 90 89 88 90 88 86 86 87 88 89 88 89 89 90 92 92 92
102 97 98 95 98 102 100 98 97 98 93 93 94 91 92 91 90 89 88 88 87 87 88 86 84 85 86 85 86 85 87 84 84 86 87 86 86 86 86 87 89 91 93 94
94 90 96 99 100 99 98 100 97 94 93 92 92 89 89 87 86 84 84 86 85 82 79 78 79 80 83 83 83 82 81 82 84 85 87 87 87 87 86 84 85 87 88 88
90 96 96 95 98 99 93 96 96 97 96 93 90 90 88 86 85 84 83 80 80 80 79 78 79 80 81 83 84 82 81 83 82 80 79 80 80 79 79 80 81 80 79 77
94 95 97 94 99 98 89 92 92 92 90 91 90 90 88 86 84 81 80 79 79 79 78 77 77 77 78 80 78 76 78 77 74 75 73 74 73 74 72 73 76 76 74 73

GFSCGP_250_spd_015.txt.gz
Wind_Speed
44 44 47 47 46 47 50 46 42 42 48 46 44 48 51 55 59 57 58 65 66 64 63 60 56 55 54 56 54 52 50 51 51 53 54 53 56 60 61 58 55 54 54 52
49 50 52 52 52 49 47 40 45 40 41 43 39 37 44 53 51 58 61 68 68 69 71 70 67 63 62 64 63 59 59 58 59 59 62 59 53 53 56 60 63 58 52 53
45 44 48 47 47 50 50 52 45 44 50 45 46 47 53 64 57 51 56 67 73 76 74 77 76 73 72 70 70 69 67 68 67 65 67 67 67 61 56 57 58 61 61 60
47 50 51 52 51 50 51 57 58 61 58 57 59 55 62 68 63 68 69 64 71 74 75 74 73 77 80 80 79 79 78 77 75 73 73 72 70 72 72 70 68 67 68 70
57 50 55 62 64 60 61 63 65 68 65 65 72 75 64 71 76 83 85 78 72 73 79 80 82 81 81 82 81 84 86 87 86 86 82 82 82 82 83 83 81 80 80 75
59 59 59 59 68 71 73 75 76 80 77 73 78 86 78 86 91 90 86 84 78 81 81 82 83 86 86 87 87 87 81 83 84 85 87 89 89 87 87 86 88 85 85 89
69 71 70 73 74 77 79 77 84 90 87 87 94 93 92 96 95 91 89 85 83 80 89 86 88 88 91 92 91 94 95 93 93 93 94 93 91 92 94 95 93 91 89 91
74 75 79 78 76 77 81 83 90 97 95 93 101 104 100 99 98 95 91 90 84 89 93 94 98 98 98 100 102 102 103 106 105 105 104 104 103 102 100 102 103 102 103 104
79 82 86 90 91 91 90 94 101 104 102 104 102 106 101 102 101 97 91 90 90 92 100 108 105 106 109 107 109 111 107 110 113 115 119 114 113 113 114 111 109 116 112 109
86 86 89 97 97 104 100 99 103 106 108 110 111 106 102 99 99 100 97 97 104 106 104 106 105 109 112 114 117 120 119 118 117 116 118 121 124 122 123 122 121 122 123 125
100 99 98 99 103 111 104 103 112 114 113 118 115 106 103 105 107 110 109 108 108 106 114 115 112 111 114 117 118 117 122 125 125 127 127 127 127 129 128 127 128 125 130 131
105 107 105 109 115 113 108 111 121 123 119 118 119 114 108 112 116 119 117 113 110 109 108 107 109 113 118 121 120 119 121 126 127 128 131 135 140 135 141 142 141 140 134 132
113 115 116 116 117 117 119 118 122 127 127 121 121 117 114 121 127 129 122 115 111 111 110 109 109 109 111 115 117 121 125 128 129 127 124 127 129 138 143 143 148 151 149 150
117 119 123 124 121 122 119 121 126 125 127 125 127 126 124 131 137 127 124 120 118 116 112 110 110 109 107 109 111 115 117 118 119 121 121 123 125 128 129 133 137 142 144 150
123 127 135 130 128 129 129 129 125 130 133 139 134 139 136 134 128 126 122 118 117 114 110 108 107 109 109 106 107 109 111 114 116 116 118 119 119 121 123 124 125 128 133 135
131 138 135 132 135 138 137 129 133 137 135 141 142 134 133 129 125 120 115 114 111 109 108 107 106 107 106 107 109 109 109 108 108 110 112 114 116 119 122 124 126 128 129 128
145 141 139 138 139 141 140 136 141 139 135 134 131 129 127 123 117 111 109 107 106 106 106 105 101 98 96 97 98 101 102 101 100 101 103 106 107 109 112 114 116 118 120 122
140 140 147 145 144 147 141 135 133 131 127 122 122 119 112 108 106 105 104 102 101 100 100 100 99 98 98 99 99 100 100 100 100 99 98 100 101 102 103 105 107 109 111 113
145 147 152 152 146 139 128 129 124 120 112 109 111 105 100 97 94 97 98 95 95 96 96 97 99 100 96 93 90 89 88 89 90 92 92 93 93 93 94 95 97 100 100 100
148 153 147 139 138 128 119 114 112 113 104 105 101 100 99 95 93 93 99 98 97 95 93 94 96 95 95 93 91 89 89 90 90 90 91 92 92 92 92 93 96 95 94 93
147 141 137 134 128 116 110 110 108 107 100 94 94 94 95 95 96 93 94 96 96 94 95 94 94 94 92 91 89 87 87 86 87 88 89 89 90 90 92 93 93 94 94 95
140 132 120 115 111 109 109 107 106 103 97 95 93 94 95 94 94 94 92 92 93 94 93 92 91 90 89 88 86 86 86 86 85 84 84 83 84 88 87 87 89 90 93 94
122 112 113 108 109 107 108 108 105 102 98 94 92 89 91 91 94 95 94 91 87 86 85 86 88 88 86 84 84 83 82 82 83 84 83 83 84 83 83 82 83 84 85 86
109 106 105 107 106 106 110 106 104 101 96 93 92 91 92 92 91 90 88 85 82 82 82 81 81 81 80 79 79 80 81 83 84 84 83 84 82 82 81 81 81 81 81 82
102 104 103 105 104 110 106 103 101 99 99 97 95 96 94 92 90 88 84 83 82 80 78 78 79 80 80 79 79 79 79 79 80 79 80 79 78 76 77 78 77 76 76 76
102 102 105 104 105 107 101 93 95 97 97 98 96 94 93 92 90 90 88 86 83 82 80 78 77 76 74 75 76 74 75 76 76 77 78 78 76 76 76 74 75 75 72 73

GFSCGP_250_spd_018.txt.gz
Wind_Speed
43 43 47 46 45 46 46 45 43 44 44 37 42 38 34 39 34 40 46 46 52 54 54 54 48 57 63 65 63 63 61 60 61 62 61 60 59 61 61 61 60 62 63 62
49 49 52 50 49 42 36 38 41 39 45 41 38 38 44 44 45 47 51 53 59 64 64 64 63 62 64 63 69 72 71 69 66 68 68 66 67 67 67 66 66 67 67 65
47 48 49 49 45 45 43 42 42 45 47 46 50 44 48 50 53 56 57 60 62 64 67 69 72 73 68 65 67 70 73 77 79 77 75 75 75 74 73 72 71 71 71 71
45 48 51 52 47 49 46 50 50 51 51 50 50 55 51 57 60 63 64 68 68 69 72 74 75 79 78 76 72 74 77 78 76 80 85 85 83 83 83 80 79 78 77 77
46 49 51 52 53 55 56 55 58 57 60 56 60 57 50 61 69 71 74 76 76 77 82 82 79 79 81 79 81 82 84 84 85 85 84 86 90 93 94 93 90 88 87 85
50 53 54 57 58 61 62 65 65 66 63 57 64 68 59 66 73 74 77 78 78 84 89 87 86 84 87 88 90 87 88 89 90 89 92 93 94 94 97 100 102 101 99 96
49 48 49 53 56 60 63 66 68 65 67 67 67 66 64 71 77 79 83 82 83 86 89 86 88 91 88 93 93 97 99 97 98 100 100 98 98 100 102 102 102 103 105 104
53 55 61 60 61 66 69 75 80 86 83 78 77 74 76 79 81 81 87 95 95 92 91 90 94 95 93 95 96 93 96 103 104 108 110 109 109 108 108 108 109 111 112 109
65 64 67 68 72 74 80 80 86 88 89 94 90 87 84 95 95 93 98 99 101 103 98 95 97 97 96 97 96 97 101 105 110 116 115 118 118 119 120 119 118 117 115 117
75 79 78 80 85 88 92 91 95 99 101 104 105 101 100 107 104 103 105 105 108 108 109 106 102 102 104 107 108 106 105 108 110 113 116 122 124 126 128 130 130 126 129 130
87 92 92 92 95 100 103 104 107 109 111 116 117 110 108 117 111 110 113 114 115 115 115 115 114 113 114 116 118 120 118 113 111 112 114 118 122 124 130 138 137 139 138 139
91 94 96 98 101 108 111 108 113 117 119 123 124 116 118 118 118 119 118 119 121 122 123 124 126 125 127 126 123 119 116 116 115 114 114 115 116 115 119 125 135 144 142 148
90 97 96 96 105 112 115 115 121 126 130 127 130 124 122 123 123 125 127 129 128 129 133 133 130 127 124 123 122 119 115 112 111 111 111 112 114 116 118 118 118 126 134 147
98 100 102 106 112 114 118 121 128 133 136 142 133 133 127 126 130 134 137 136 137 131 128 126 125 123 119 118 118 115 111 107 107 106 106 108 110 111 114 116 118 118 119 122
105 108 109 113 117 122 127 126 130 136 143 147 135 133 126 134 138 142 140 128 125 124 122 118 113 109 107 106 105 104 103 101 100 100 101 103 105 107 111 113 114 116 117 119
113 116 120 120 126 132 137 129 134 141 146 145 142 140 144 143 146 137 131 126 118 113 111 109 106 105 102 99 97 96 96 95 94 95 95 94 95 97 99 102 107 110 113 116
123 123 127 130 130 140 139 136 145 148 148 146 144 143 146 143 132 126 120 109 106 103 101 101 100 99 98 96 94 94 93 94 94 95 96 95 95 96 97 98 99 101 102 104
130 128 135 142 143 145 144 145 150 154 146 148 148 146 136 126 118 108 106 104 103 101 99 97 96 94 93 93 93 93 94 94 94 94 93 93 93 93 94 94 94 95 95 97
139 143 144 147 152 153 148 151 144 147 147 145 139 132 124 112 105 103 103 102 100 98 98 97 97 96 94 92 90 89 89 89 89 91 92 92 92 92 93 93 92 94 93 96
145 149 154 153 158 156 149 146 151 151 140 139 125 118 111 106 102 102 103 103 102 101 100 98 96 95 93 91 90 89 88 87 89 91 93 93 91 91 91 91 91 92 92 90
149 152 154 156 162 156 151 153 150 139 131 122 115 112 107 102 104 103 104 103 103 102 101 99 96 94 93 92 91 90 89 88 87 88 89 90 91 91 90 90 90 91 88 86
155 157 157 158 156 160 153 156 150 138 123 117 113 107 104 104 104 104 102 102 102 100 99 98 97 95 94 92 90 88 85 84 85 85 84 84 84 84 84 84 86 84 81 81
165 161 163 163 158 157 155 146 136 127 122 118 112 106 106 104 102 102 100 97 97 97 95 94 93 92 90 87 86 85 85 84 83 83 83 83 84 85 84 84 83 82 81 80
165 165 166 158 155 148 141 130 125 123 119 115 110 105 103 100 98 95 94 94 95 93 91 89 86 85 84 83 83 83 83 83 84 85 84 83 82 81 80 81 77 76 76 75
153 146 140 140 142 138 129 127 123 118 115 110 108 104 101 99 97 97 93 93 92 90 88 86 84 82 81 81 80 81 82 83 81 80 79 79 78 77 78 77 76 75 76 74
139 131 127 127 127 128 122 116 114 112 110 108 108 104 101 98 95 95 92 91 90 89 87 85 84 82 80 80 80 79 78 77 77 77 77 77 76 75 75 73 75 74 71 71

GFSCGP_250_spd_021.txt.gz
Wind_Speed
42 42 46 45 44 44 44 43 42 45 46 41 40 38 39 41 43 45 45 46 46 46 47 48 49 51 55 54 55 55 56 60 63 62 65 63 66 69 70 69 69 69 69 68
43 43 49 49 48 47 47 46 47 47 46 45 45 41 48 51 51 51 51 54 55 58 55 57 59 59 59 61 64 65 66 66 64 67 70 70 70 71 73 76 76 76 75 75
44 46 48 48 46 44 43 46 47 47 50 49 45 43 50 53 56 61 59 62 61 62 65 67 68 70 70 70 68 71 72 73 73 74 71 75 78 77 78 80 81 83 82 82
46 47 45 44 46 43 40 45 45 51 50 48 49 51 49 58 59 62 66 70 70 70 73 77 79 81 81 81 79 81 81 84 81 82 84 85 80 84 87 87 87 88 90 90
45 42 43 45 47 48 49 50 52 52 53 49 50 54 53 56 59 60 62 65 69 69 74 80 85 81 79 82 83 81 81 87 87 88 85 86 91 87 92 91 93 94 95 97
48 48 50 52 49 47 45 43 44 44 47 39 46 47 40 50 56 52 59 64 65 72 79 78 75 79 80 84 82 82 85 83 83 85 86 90 91 96 98 99 98 98 100 101
49 52 56 54 57 63 60 59 64 55 54 49 53 50 56 59 65 64 71 70 72 80 83 82 85 84 83 86 87 90 89 93 92 88 90 91 92 91 98 105 107 108 108 110
58 56 58 59 58 65 68 73 77 79 75 72 69 63 70 68 76 77 84 90 91 93 90 94 92 89 93 94 95 95 99 96 96 98 95 96 93 96 97 100 113 113 118 118
66 68 72 72 71 74 77 84 84 84 88 90 74 68 65 79 87 90 91 102 102 103 108 108 108 106 102 100 101 101 100 101 103 104 103 104 104 103 103 103 108 120 122 125
71 69 71 72 75 75 78 75 88 96 99 91 87 81 80 87 96 100 105 111 117 121 123 123 124 119 113 111 110 111 113 115 115 113 112 111 109 109 110 112 114 114 115 125
76 74 72 77 77 75 78 75 87 85 88 95 94 82 90 95 103 106 111 119 123 125 134 133 133 124 124 121 121 122 123 122 119 117 117 116 115 114 113 112 110 111 115 119
93 93 89 80 76 81 89 87 90 91 91 96 100 90 100 104 108 112 118 125 127 137 137 131 126 127 130 134 133 130 123 118 116 115 114 113 111 110 109 108 108 109 110 112
95 102 96 92 97 90 91 97 97 98 104 101 108 105 110 112 115 122 127 131 135 137 132 135 132 134 138 132 122 120 117 112 110 108 104 103 101 102 101 101 101 101 103 104
97 94 101 99 105 100 98 101 104 107 110 111 113 116 119 122 128 129 131 135 136 138 138 137 140 136 128 126 120 113 107 103 101 98 96 95 95 95 95 95 95 97 98 99
104 98 106 105 108 106 106 105 109 115 117 122 122 124 124 132 133 134 140 140 143 142 144 142 140 130 121 112 106 103 100 97 94 93 90 89 89 89 90 90 92 93 94 95
103 107 110 107 111 111 113 109 111 115 124 131 134 131 136 142 140 141 148 150 148 149 143 145 136 122 110 106 103 99 96 94 92 91 90 89 89 89 89 90 92 92 93 94
109 111 112 117 117 118 116 112 119 123 125 137 142 141 145 147 147 152 156 155 154 150 146 138 122 115 108 104 101 98 98 98 96 95 94 94 93 93 92 93 93 92 91 91
119 121 122 122 124 125 120 120 119 128 137 144 147 149 152 155 157 156 158 158 153 144 137 121 114 110 107 104 101 99 98 98 97 95 95 93 92 92 92 91 91 90 89 89
123 127 132 133 133 134 126 126 131 140 143 147 153 153 155 161 161 162 164 152 146 132 125 115 112 109 107 104 103 101 99 98 98 96 94 93 92 91 91 91 91 90 89 89
130 133 135 136 140 139 132 140 147 153 154 156 155 158 164 165 169 157 147 140 129 120 118 115 112 108 106 103 102 101 98 97 95 94 93 92 91 90 90 89 90 88 86 84
136 139 141 141 145 141 142 151 153 159 161 156 160 166 169 171 160 139 135 125 119 118 117 113 109 106 103 101 99 98 97 96 95 93 91 90 89 88 88 87 86 86 85 83
139 143 143 148 151 152 152 159 164 165 164 167 168 169 168 165 138 131 122 120 119 117 113 109 108 105 103 101 99 97 95 93 93 91 90 88 86 85 85 85 84 83 82 80
146 147 149 152 154 156 163 169 169 171 175 172 173 173 155 136 128 120 118 115 114 114 110 107 104 101 99 97 95 94 92 90 88 86 85 84 84 84 83 83 82 81 80 76
149 152 151 155 160 162 169 173 173 176 175 176 166 144 136 124 118 117 115 112 110 108 103 101 99 96 94 92 90 88 86 84 84 83 82 81 81 82 81 79 77 76 75 74
153 155 157 162 165 173 177 178 178 178 174 160 147 131 121 120 115 114 109 106 104 102 99 96 93 92 90 88 86 84 82 82 81 81 80 79 79 77 77 77 77 75 75 71
160 160 163 169 172 175 181 179 177 166 141 137 127 122 119 118 114 111 106 103 101 99 97 93 90 89 88 86 84 82 81 80 79 79 77 77 76 75 74 74 76 76 73 71

GFSCGP_250_spd_024.txt.gz
Wind_Speed
39 37 42 38 37 37 39 39 41 47 44 40 41 40 42 45 44 42 45 46 48 50 52 54 55 54 55 57 57 57 60 64 66 66 67 69 70 72 74 75 76 76 76 77
40 38 42 40 41 41 42 41 43 42 44 40 41 40 42 45 48 49 49 51 50 53 57 60 63 65 65 66 68 67 69 71 75 75 76 76 78 79 79 79 83 83 84 84
41 41 45 45 44 44 43 43 41 39 42 40 41 43 51 52 55 57 56 57 59 62 64 63 64 68 72 76 74 73 76 79 79 83 85 87 89 86 87 87 87 87 89 92
42 48 46 48 49 47 42 42 40 40 40 43 45 47 49 57 62 63 62 61 62 65 64 65 66 72 71 76 82 83 79 80 79 84 89 94 94 94 96 95 97 97 90 90
50 47 48 47 46 46 45 46 44 44 48 49 47 47 44 51 54 55 57 56 58 59 63 65 58 58 70 73 72 77 75 76 76 84 74 76 85 89 88 88 87 90 98 107
53 49 49 48 47 44 48 53 53 48 48 42 57 58 58 60 61 69 62 68 73 79 82 76 70 67 68 71 71 78 78 82 83 85 85 84 85 88 89 92 93 89 88 89
53 51 50 48 50 50 53 51 53 53 58 56 59 57 64 70 72 82 88 89 87 82 85 76 72 70 73 75 78 83 87 90 91 96 98 94 90 89 92 95 96 98 99 103
56 58 59 58 59 60 60 59 63 58 60 62 63 63 67 65 71 76 80 87 91 89 76 79 76 77 85 88 87 95 101 103 100 104 101 99 98 102 105 105 105 104 106 106
63 62 63 64 67 66 67 69 70 63 58 55 59 63 61 67 71 76 82 80 76 77 82 86 89 93 97 98 110 112 113 118 114 111 108 107 107 108 110 108 108 107 107 109
67 69 69 69 67 68 74 76 80 83 82 76 72 75 74 74 81 86 87 86 89 90 93 97 101 107 114 116 117 125 126 130 125 121 117 113 114 113 109 108 108 107 107 108
73 71 70 72 70 71 73 76 84 90 89 90 85 82 91 98 100 93 90 94 91 95 100 106 111 117 121 123 127 133 137 139 135 124 118 111 108 102 100 97 97 97 98 101
83 79 77 77 81 84 86 85 89 91 87 88 93 79 91 97 105 101 98 96 98 103 106 111 119 125 130 131 135 140 142 148 135 118 111 107 101 97 95 94 93 94 94 95
89 87 85 84 84 84 83 87 91 89 92 91 101 84 89 92 97 103 101 101 104 108 112 115 124 131 135 136 143 147 151 143 122 111 106 100 94 92 92 92 91 92 92 93
90 89 88 87 88 82 80 84 89 92 93 97 97 93 96 104 111 108 108 111 113 116 120 127 132 138 140 145 152 154 148 125 115 109 102 97 95 93 92 93 93 92 92 93
93 89 92 94 92 89 89 85 86 91 93 98 94 102 107 114 112 114 116 119 122 126 129 138 137 147 149 154 158 153 127 118 110 100 97 97 96 95 93 93 92 92 91 91
100 100 95 96 94 97 97 89 90 99 97 98 108 101 115 117 117 119 123 126 127 131 137 138 145 150 153 158 158 135 125 115 106 102 99 96 94 93 93 92 92 92 90 90
99 98 99 97 99 103 96 94 100 103 109 111 113 115 119 122 125 126 129 135 138 139 143 149 150 156 163 163 149 135 119 110 106 102 100 98 96 96 94 93 92 91 90 90
104 107 111 113 114 115 108 106 107 115 116 115 118 123 127 127 126 129 136 139 142 145 150 154 159 161 160 163 136 125 115 113 109 104 102 100 98 97 96 94 92 90 88 88
112 116 117 122 123 123 114 115 119 126 120 121 130 131 133 133 133 135 140 143 148 152 156 162 166 167 166 141 125 117 116 111 107 105 102 100 97 95 94 92 91 91 89 87
117 120 122 128 129 129 120 123 128 133 128 127 136 138 141 142 139 142 145 148 153 159 163 167 169 170 136 129 121 117 112 109 106 102 100 98 97 95 93 91 89 88 88 88
122 126 128 129 132 131 125 128 133 134 132 134 139 143 145 145 146 148 152 156 161 166 167 168 162 135 132 122 118 113 110 107 104 102 101 100 97 95 93 91 89 87 86 85
127 132 131 131 133 133 132 135 136 140 143 146 147 146 146 148 148 154 160 164 164 166 173 159 142 134 124 118 114 110 108 105 103 101 100 97 94 92 90 87 86 85 83 81
131 130 134 134 136 136 137 142 142 147 153 149 149 151 152 156 158 161 163 168 166 169 147 139 123 122 117 114 109 106 103 101 100 99 96 93 91 88 85 83 82 82 82 80
137 134 134 136 137 143 149 152 156 156 153 153 154 159 162 163 164 164 171 171 160 139 132 127 121 117 113 108 104 101 99 99 98 95 92 89 87 85 84 83 82 81 80 78
134 133 136 142 147 156 156 158 159 160 160 165 168 167 164 168 169 167 165 138 138 128 126 120 115 111 106 103 100 99 99 97 94 93 90 87 84 84 84 82 82 80 78 73
142 140 147 151 156 158 159 160 164 167 169 172 173 174 174 170 168 141 141 133 128 125 119 113 108 105 101 99 98 96 94 93 92 90 85 83 83 82 82 81 80 76 74 73

GFSCGP_250_spd_027.txt.gz
Wind_Speed
34 34 40 33 32 33 32 29 32 36 33 32 33 32 39 36 36 36 38 43 46 48 49 50 53 56 57 58 59 59 64 66 68 69 70 72 74 78 79 80 81 82 84 85
37 36 37 36 35 35 35 32 37 38 38 37 37 32 38 39 40 41 46 49 51 53 54 53 56 59 60 61 65 67 63 63 72 74 72 76 79 80 79 74 79 87 86 92
38 37 40 38 37 39 36 38 40 38 41 39 37 34 39 40 42 45 50 55 55 57 56 57 54 53 59 61 60 59 62 65 66 62 63 64 62 70 78 84 79 77 74 78
39 44 43 44 43 43 36 44 42 41 38 39 40 36 41 47 48 50 50 46 51 56 54 60 63 63 68 74 66 74 69 57 64 59 61 63 67 68 73 78 78 75 74 86
46 47 48 48 48 47 45 45 41 34 34 35 43 41 42 45 48 48 55 60 58 66 65 68 68 72 78 76 77 70 62 57 57 56 64 69 75 85 93 93 94 92 86 86
54 52 53 54 54 53 51 50 47 41 38 35 41 42 36 44 51 58 60 60 65 67 69 68 69 66 65 63 67 66 66 64 64 66 71 82 92 96 95 102 100 96 90 87
56 54 55 56 56 56 53 51 50 47 47 47 47 48 47 51 54 57 58 60 63 66 65 71 75 78 83 77 72 70 64 68 76 79 80 90 97 104 108 109 112 101 95 92
57 58 56 59 60 56 55 54 56 56 54 54 55 53 60 63 66 67 68 66 72 76 81 82 88 93 93 92 74 69 73 79 82 83 90 95 103 111 117 111 112 105 99 97
63 60 61 61 61 61 60 60 65 62 60 59 56 57 64 69 71 75 78 80 85 85 87 86 86 89 89 95 82 77 79 84 90 93 101 106 114 121 125 119 119 105 99 98
66 66 65 66 64 63 65 67 68 70 70 70 65 58 65 66 74 82 87 83 80 84 85 88 89 88 87 83 83 87 88 92 98 102 109 116 121 124 128 127 119 105 100 99
70 72 71 71 69 70 71 72 74 76 75 73 71 72 74 68 73 78 83 86 87 87 89 88 85 88 87 85 88 93 100 104 107 113 117 121 130 134 133 132 115 103 98 95
78 78 75 74 75 77 78 78 81 82 81 78 77 73 73 73 77 82 85 87 90 92 92 85 84 85 89 89 98 106 110 114 119 123 126 132 135 140 136 119 105 99 94 93
81 83 82 80 79 81 83 84 83 85 86 82 84 79 86 82 85 87 86 88 91 91 89 87 88 90 93 102 107 114 119 122 127 132 135 140 145 135 133 108 101 96 95 95
82 82 82 81 84 86 85 85 86 85 86 88 84 86 91 94 94 94 94 91 93 92 91 91 90 99 109 114 119 122 125 131 135 138 141 146 140 138 114 108 101 99 97 95
82 81 83 83 84 85 84 85 85 88 87 93 92 95 92 97 99 101 97 97 96 98 97 96 108 113 117 122 126 128 133 139 142 144 147 147 141 119 111 103 101 98 94 93
87 90 89 89 92 93 93 88 90 98 101 98 99 93 101 103 105 104 105 105 104 102 101 111 116 119 126 129 132 135 145 147 147 150 147 147 122 112 104 102 98 95 93 92
95 94 96 101 96 90 98 86 101 98 107 110 104 100 103 108 111 112 109 113 114 112 112 118 123 127 134 135 139 146 152 154 153 151 146 123 113 107 107 102 99 96 93 91
104 101 102 103 101 96 83 89 91 96 92 102 108 111 113 114 112 114 118 119 120 120 122 127 132 135 140 143 147 154 158 159 150 148 126 121 116 112 106 103 99 95 92 90
106 109 109 109 110 108 92 94 101 105 103 113 115 118 119 119 121 123 122 122 123 126 126 133 139 140 145 148 154 162 164 156 143 131 129 119 113 109 105 100 97 93 91 89
110 110 111 110 112 113 106 108 113 116 111 117 120 121 123 124 124 125 124 126 127 132 132 142 145 146 152 157 163 165 164 144 128 128 118 115 112 106 100 97 94 91 89 89
111 108 110 113 117 118 113 115 121 122 120 119 121 124 126 127 129 128 129 129 134 140 144 153 154 156 159 167 166 169 157 134 125 123 118 113 107 101 99 96 94 92 90 88
109 113 116 116 119 119 119 124 126 127 127 128 128 127 128 129 129 132 135 138 141 147 152 154 157 161 167 170 176 150 136 126 124 117 112 107 103 101 98 96 93 91 89 87
116 112 113 115 121 125 127 128 129 131 134 135 133 136 135 133 135 139 145 148 152 154 158 160 164 167 173 173 141 131 125 121 117 111 109 107 104 101 98 95 93 92 88 83
118 119 120 125 122 126 129 134 136 141 140 138 140 142 140 139 140 145 145 149 154 160 161 163 166 175 155 136 134 126 120 115 110 110 108 105 101 98 95 93 92 88 86 83
124 125 125 123 129 134 138 140 145 144 141 144 146 145 147 149 152 155 152 154 157 160 166 166 171 138 140 131 125 121 112 111 110 106 102 97 94 93 93 90 86 84 83 82
126 127 129 130 132 137 142 146 148 148 148 145 147 152 154 154 159 162 163 165 169 170 166 173 149 140 131 126 119 112 110 107 102 97 94 92 91 89 87 84 83 82 82 80

GFSCGP_250_spd_030.txt.gz
Wind_Speed
33 31 36 28 26 29 29 29 31 26 22 22 25 31 35 33 35 35 34 34 36 37 39 41 44 44 45 45 49 51 54 56 57 55 61 61 62 63 63 68 71 71 72 77
36 35 35 32 30 31 32 29 33 31 26 25 29 32 39 35 36 36 37 38 40 42 43 43 44 39 43 49 53 56 59 61 63 64 67 69 76 74 71 77 76 78 75 79
37 35 37 35 32 31 33 31 34 31 33 30 32 34 40 39 37 38 38 40 43 46 48 44 43 51 51 55 56 61 61 63 60 61 71 77 81 73 75 74 77 80 79 80
40 41 42 40 39 39 32 36 36 35 34 34 37 30 43 43 41 42 42 45 46 46 47 51 52 54 56 54 53 56 60 59 70 72 73 72 74 76 78 78 71 77 79 76
46 47 43 42 42 40 37 41 40 39 37 38 40 38 38 47 47 46 44 45 47 47 51 55 57 57 58 56 56 58 66 74 80 79 82 82 81 89 90 85 81 78 80 85
51 50 48 46 48 47 44 47 49 45 45 38 48 48 35 48 52 50 48 48 50 54 54 55 58 60 62 63 64 74 79 83 82 83 83 87 90 82 77 77 84 79 83 83
57 55 53 53 53 53 50 49 48 48 49 46 50 51 45 49 50 51 53 54 57 59 62 69 72 71 67 69 70 81 83 85 85 88 89 88 85 81 82 83 85 87 90 93
56 55 58 57 57 55 52 52 51 52 54 52 51 50 53 57 57 60 61 64 66 71 72 70 73 74 77 81 86 86 88 91 89 92 91 91 91 91 87 91 90 95 97 101
59 59 59 58 58 55 53 52 59 57 54 54 55 56 58 61 64 64 65 62 62 65 68 74 75 77 79 82 86 89 92 94 94 96 96 92 85 85 91 94 101 104 108 116
59 58 58 59 59 57 57 60 61 61 61 60 59 59 61 63 67 71 74 76 77 75 71 72 74 73 76 78 84 89 92 96 93 95 101 101 99 97 98 101 110 112 124 124
61 60 59 62 59 63 65 64 66 69 69 67 65 65 65 69 71 75 77 79 79 79 80 78 78 80 83 87 87 91 91 92 102 101 105 94 92 100 108 111 117 125 126 120
64 64 62 61 62 64 64 64 70 73 75 74 71 67 73 74 77 80 84 85 82 78 80 84 85 85 90 90 93 89 94 92 94 94 94 96 101 107 112 117 120 133 128 128
72 69 69 67 66 67 70 72 75 78 79 75 79 73 80 80 82 86 87 84 83 83 83 85 91 94 93 99 101 94 95 100 106 106 102 104 111 116 120 126 134 135 137 128
79 78 77 73 76 76 75 76 78 79 77 75 71 75 79 83 87 88 88 91 93 94 97 99 97 98 100 95 94 94 104 103 103 104 110 113 118 125 133 139 145 145 128 112
82 80 81 79 82 83 81 79 80 80 78 77 73 79 86 90 95 96 94 95 97 99 102 104 105 111 107 100 104 103 101 104 107 113 118 125 131 138 141 143 152 125 114 109
85 83 83 79 80 85 82 81 79 78 83 85 88 85 93 98 95 94 96 99 98 99 98 92 98 105 101 105 108 111 113 117 120 122 129 133 136 142 145 141 135 116 113 108
86 86 87 89 89 88 93 77 83 82 83 87 90 91 97 99 100 102 97 95 97 96 100 102 105 107 111 116 119 119 121 123 127 131 137 144 144 143 154 144 129 122 115 108
90 91 93 93 95 100 89 91 85 88 92 96 98 99 102 104 108 104 97 98 100 102 106 110 111 114 118 122 125 124 127 133 137 141 146 146 148 152 140 141 128 119 112 106
92 92 96 99 99 102 97 93 95 99 98 100 102 106 109 106 106 105 108 106 109 112 113 116 119 123 125 126 126 130 135 139 144 149 151 151 155 152 143 132 122 119 112 102
96 98 100 102 103 104 100 102 103 105 105 104 109 109 109 109 111 109 110 113 118 118 120 120 124 126 129 130 133 137 140 148 151 155 154 158 154 145 128 125 124 114 105 101
101 101 103 103 109 109 107 109 110 110 108 108 110 112 114 114 113 114 115 121 123 121 124 127 129 131 136 139 140 142 149 152 160 159 160 158 144 129 127 124 115 109 103 99
103 108 108 111 109 112 107 110 114 119 113 111 112 114 114 117 117 121 122 127 124 127 127 130 131 136 142 143 147 154 155 160 162 162 155 144 133 131 124 117 110 105 101 97
105 107 110 111 110 111 116 122 124 118 116 117 117 119 119 120 122 126 131 129 130 132 132 135 136 138 140 152 154 155 158 161 167 158 148 135 129 124 118 111 106 103 100 96
109 109 112 120 124 127 124 120 121 123 123 124 124 124 124 126 128 129 131 131 132 134 138 139 141 147 151 153 156 159 166 167 161 148 138 130 126 118 113 108 104 100 97 93
122 125 125 124 121 122 126 127 130 129 128 130 129 128 129 132 130 130 132 135 138 139 141 143 153 150 157 161 162 164 164 160 145 139 132 125 118 113 108 103 98 95 93 90
126 127 126 128 129 130 132 136 135 133 137 135 133 132 133 130 130 133 139 142 140 147 151 156 156 159 163 162 165 163 157 142 138 131 123 117 112 108 102 97 94 91 90 87

GFSCGP_250_spd_033.txt.gz
Wind_Speed
39 36 40 35 31 31 34 34 34 32 28 26 28 30 29 29 30 31 31 28 29 31 32 33 34 35 35 35 37 37 46 45 46 47 46 47 52 56 60 61 65 69 73 75
39 39 43 38 35 34 35 35 38 35 32 29 31 31 34 29 33 34 32 33 33 32 33 36 36 38 40 38 37 44 46 48 51 50 52 51 54 59 70 68 69 70 74 77
40 37 44 42 39 38 37 35 38 36 32 33 33 32 33 38 34 37 37 36 37 35 36 38 40 39 40 41 45 48 52 54 54 55 56 59 60 65 76 82 80 79 81 83
41 40 47 45 42 43 39 37 40 38 35 36 32 30 35 42 39 40 42 42 41 40 38 39 41 44 44 47 50 53 57 58 60 63 65 68 67 75 82 83 84 87 89 91
47 48 49 49 48 47 41 42 44 42 39 38 35 35 37 44 47 46 47 49 49 44 43 43 45 46 48 50 54 59 58 60 63 68 71 73 78 87 89 92 91 94 92 93
55 54 54 53 53 48 47 45 46 43 39 36 41 44 37 42 51 50 54 55 56 52 51 50 51 53 54 57 59 63 68 68 70 73 74 80 86 89 91 91 94 95 96 96
61 58 59 58 56 53 51 53 50 46 42 40 44 48 39 43 52 55 57 60 59 59 58 57 57 59 63 65 67 70 73 76 77 79 80 83 85 87 91 93 93 100 99 99
61 62 61 60 58 56 55 55 56 53 51 48 45 42 41 50 52 57 59 62 63 64 64 63 64 66 66 62 62 68 73 77 79 80 83 85 88 92 93 94 94 94 101 101
60 60 58 59 60 59 55 55 62 60 56 53 49 47 47 51 56 56 59 62 64 65 67 68 67 70 74 77 76 72 74 76 80 83 89 94 98 102 103 100 98 96 93 97
63 63 61 56 58 60 62 62 66 65 62 59 53 51 51 55 58 61 63 64 67 70 70 69 72 75 75 76 76 79 81 85 86 88 93 98 98 101 100 100 102 99 97 99
67 66 63 58 58 62 62 62 64 65 63 63 59 57 58 59 60 64 66 69 72 72 73 74 73 74 78 81 85 84 88 89 90 96 104 111 114 112 111 111 104 106 105 105
71 70 65 58 59 62 59 61 64 65 64 65 66 56 60 60 64 67 71 75 78 78 77 78 79 80 83 87 89 93 95 98 102 102 104 101 104 109 113 116 113 112 107 105
75 75 70 65 60 62 62 68 68 70 71 64 68 56 66 67 69 71 74 77 79 77 77 76 76 79 84 88 93 98 101 103 105 109 106 106 111 112 110 111 115 112 112 119
72 73 68 67 73 74 73 73 74 75 73 65 64 68 71 71 73 74 77 79 78 79 80 81 86 88 92 92 94 97 102 100 102 103 107 107 109 111 112 113 115 120 126 127
78 75 74 70 75 79 76 76 78 79 70 79 64 74 77 79 78 78 81 81 83 85 87 90 91 92 96 99 100 101 100 101 96 102 109 109 107 116 115 117 117 121 128 134
83 81 81 77 75 81 84 81 78 77 78 79 74 69 75 75 83 84 85 85 83 86 91 93 94 96 97 100 101 101 100 103 106 112 111 113 113 113 118 119 125 130 138 143
86 86 87 83 83 86 92 70 86 81 80 80 80 71 85 87 88 91 92 90 92 95 96 97 99 100 103 101 104 104 108 111 116 118 117 117 116 120 120 126 138 140 145 145
86 88 91 90 90 95 79 87 87 86 84 84 84 86 92 92 93 94 96 98 102 105 100 99 101 101 103 106 107 111 113 118 119 120 120 120 121 123 131 139 145 147 150 150
88 90 93 96 96 97 91 85 90 95 88 92 89 93 96 99 101 98 101 106 106 103 105 107 109 107 109 113 116 118 120 122 123 123 122 125 126 132 141 144 149 152 155 153
94 93 97 99 100 102 90 96 93 95 91 90 95 100 103 104 102 105 105 105 104 108 112 118 114 112 116 120 123 123 125 126 127 127 128 131 136 143 150 154 156 155 158 149
100 101 102 102 107 107 99 101 101 101 97 99 103 106 104 106 106 108 105 103 109 115 118 113 116 120 121 125 127 127 131 131 127 131 133 138 143 149 157 160 159 159 154 144
104 106 107 108 113 111 104 106 108 110 111 107 109 106 107 108 109 105 106 112 119 115 118 118 121 124 127 132 131 132 131 132 132 137 141 149 154 158 161 161 164 159 144 137
114 112 114 115 116 116 113 111 115 117 117 117 115 110 110 110 108 110 117 122 125 122 121 123 128 130 135 134 134 134 135 135 141 144 153 157 159 160 163 164 155 141 137 132
115 115 115 117 116 119 123 121 121 119 118 117 113 116 116 113 111 118 127 130 126 126 127 129 131 136 137 137 137 140 138 143 148 153 158 161 165 165 164 157 140 138 133 123
122 120 116 118 122 123 122 121 120 122 121 118 118 114 118 124 125 129 132 133 128 131 134 136 139 138 136 138 141 144 149 152 156 161 164 166 165 161 153 138 138 132 123 117
125 124 127 127 125 128 129 129 128 124 124 124 123 126 131 131 132 136 136 132 135 141 143 141 136 137 140 145 150 151 156 161 164 164 166 166 164 148 139 133 131 121 117 113

GFSCGP_250_spd_036.txt.gz
Wind_Speed
37 36 40 41 37 38 34 36 38 38 30 33 30 31 31 32 31 32 29 29 27 26 25 25 25 26 27 27 28 29 30 32 34 37 42 46 49 50 54 56 59 61 64 68
41 40 44 40 41 41 39 40 41 42 33 37 35 33 36 34 38 34 32 30 31 31 30 30 28 29 31 32 32 32 33 37 39 42 46 51 54 57 59 60 64 67 70 73
46 46 46 43 42 41 43 41 44 42 38 39 39 33 40 40 37 39 36 33 33 34 35 34 32 32 34 34 34 36 37 40 43 49 52 54 56 60 61 65 67 70 73 77
44 49 48 50 43 45 42 45 45 46 42 37 38 29 35 41 43 41 40 40 34 39 39 40 38 39 39 41 41 41 44 46 49 52 55 59 62 62 64 69 73 75 80 82
50 53 50 52 55 51 45 48 45 47 44 39 38 36 31 38 38 46 42 39 39 41 43 45 46 46 48 49 49 50 52 54 57 60 62 66 68 69 73 77 79 81 84 89
56 54 53 55 57 56 50 52 51 49 46 37 42 43 32 43 43 45 48 46 45 47 48 49 50 52 54 55 56 56 56 59 61 66 65 67 71 74 77 79 83 83 88 91
59 54 55 57 59 61 59 58 56 51 47 42 45 45 33 42 46 52 51 50 48 49 47 47 49 52 55 57 57 58 61 64 66 68 70 72 72 75 81 85 85 88 91 93
59 57 58 59 62 63 58 60 58 58 55 50 47 42 43 46 47 52 54 54 52 51 50 48 47 49 51 53 55 57 60 64 68 71 74 77 81 82 86 86 93 93 97 103
61 60 60 60 62 62 55 54 60 60 59 55 49 46 46 46 54 55 55 56 56 56 55 53 54 56 57 57 59 62 65 67 69 71 75 78 82 85 88 93 97 100 103 108
69 68 63 61 62 60 60 60 63 64 62 59 54 53 48 52 57 58 57 60 60 60 61 60 61 62 62 63 65 67 69 71 71 73 77 81 84 88 94 98 101 105 107 111
73 71 65 63 59 63 63 58 60 62 63 62 60 55 56 55 58 61 62 63 63 65 65 66 65 66 67 67 70 71 72 73 76 78 81 85 90 94 98 103 106 112 112 110
73 73 67 66 64 66 65 61 63 63 61 60 61 46 56 56 55 59 63 65 67 67 66 65 68 68 68 69 71 72 73 75 79 85 89 93 96 98 103 107 109 108 107 111
77 75 72 72 67 64 68 70 69 69 64 52 61 44 57 61 59 60 62 63 65 66 68 69 69 69 69 71 74 77 80 83 85 90 95 99 101 104 106 104 101 102 106 111
83 80 75 71 70 72 68 69 67 69 62 64 60 62 63 65 64 65 66 68 69 70 71 73 74 74 73 76 80 82 83 87 92 97 98 100 102 104 103 103 106 107 112 113
85 80 78 75 75 73 70 71 67 65 61 71 56 67 66 69 71 72 71 70 71 73 74 74 72 74 78 82 84 84 88 93 98 100 100 100 104 104 103 105 113 115 115 114
88 81 83 85 78 78 79 76 67 68 69 73 67 62 72 75 75 75 74 75 75 77 79 81 82 85 84 85 90 93 96 96 97 99 101 105 105 107 108 113 120 119 119 118
93 91 90 87 87 87 90 64 82 80 76 79 76 67 79 78 77 77 77 79 79 81 83 85 89 91 93 94 96 100 104 102 102 103 106 110 108 109 115 120 125 124 122 124
95 97 96 92 95 100 78 81 84 87 82 82 81 77 81 83 83 82 81 83 86 88 88 89 93 95 98 100 106 105 103 104 103 110 115 113 112 115 122 126 128 126 127 131
94 96 96 96 96 96 86 80 85 90 83 86 86 82 82 85 88 86 89 92 93 92 92 93 97 101 105 104 106 107 109 110 111 118 121 120 118 124 129 131 130 130 134 140
100 98 97 98 101 99 84 86 89 94 86 82 87 87 89 90 91 90 95 96 98 100 102 101 104 105 108 107 107 110 113 114 117 123 126 125 124 130 131 130 132 135 140 145
108 106 105 100 103 101 88 92 99 104 94 92 92 93 94 96 96 97 100 100 101 105 108 112 111 108 108 110 114 115 119 118 124 129 130 128 131 133 132 131 135 141 149 151
112 110 107 104 109 112 101 103 105 104 100 102 98 98 99 101 102 103 108 108 109 108 111 113 115 113 113 115 118 120 120 126 131 134 136 135 135 136 134 136 141 148 150 157
116 113 113 115 115 115 113 107 105 105 107 107 105 106 106 107 108 109 111 113 112 114 113 117 116 118 118 120 120 124 130 131 137 138 140 139 139 137 138 143 149 155 158 161
120 120 121 120 120 119 117 115 112 112 112 113 112 115 113 113 117 117 116 114 117 117 119 121 123 123 123 124 127 133 135 138 139 140 138 139 140 140 144 150 155 161 165 168
125 124 124 122 120 119 118 119 117 117 117 117 116 117 116 119 115 125 124 121 118 119 125 126 126 126 129 129 134 139 140 141 143 142 142 143 142 145 151 156 165 166 168 167
127 125 122 121 123 123 123 123 123 122 119 118 120 118 118 130 128 126 122 124 126 127 126 129 131 133 133 137 141 142 142 144 146 146 146 145 147 151 156 163 165 169 165 148

GFSCGP_250_spd_039.txt.gz
Wind_Speed
39 37 44 44 37 40 38 36 37 37 31 33 33 33 35 35 36 39 37 34 34 33 31 28 26 25 23 22 23 23 24 26 28 29 30 33 36 40 44 47 50 53 54 57
46 45 49 45 42 43 43 38 40 39 36 33 38 33 36 34 39 38 40 40 40 36 35 31 31 28 26 27 27 26 27 27 30 32 35 37 40 44 48 50 53 56 60 62
48 49 52 49 48 47 46 42 42 40 41 37 38 31 35 40 39 42 42 43 42 41 39 34 35 34 31 32 32 33 34 35 38 40 42 45 47 51 55 56 59 62 66 66
50 53 55 55 51 53 48 49 47 46 42 37 36 29 36 43 42 40 46 44 41 42 43 39 38 37 38 38 39 40 41 43 46 50 52 54 56 58 59 61 64 64 67 69
55 57 60 58 57 58 50 51 50 47 44 40 32 34 34 43 42 48 45 43 41 43 45 43 41 42 44 44 45 46 47 48 50 52 54 55 58 60 63 66 67 69 71 72
60 58 60 61 61 59 53 55 56 50 46 39 41 39 30 43 45 49 49 47 43 42 46 47 47 48 48 45 44 44 44 47 50 52 53 55 57 60 63 67 69 70 71 75
63 62 60 60 60 60 60 59 56 51 49 44 49 40 32 46 52 51 53 50 46 48 51 52 52 50 46 45 44 44 45 47 49 50 53 56 58 61 64 67 69 70 72 76
66 63 62 60 61 63 63 60 58 57 55 48 47 39 41 44 51 56 57 56 52 51 51 50 50 51 50 50 49 49 53 55 55 55 58 61 62 64 67 68 70 74 77 80
69 66 64 63 65 67 61 59 63 59 54 52 49 45 44 47 54 58 59 60 61 59 55 53 52 53 53 53 54 57 58 57 58 61 63 64 65 69 72 74 77 79 81 85
78 74 70 70 70 68 65 66 67 67 62 56 52 49 47 51 55 58 62 63 63 61 59 58 58 56 56 56 57 60 61 62 63 64 64 66 70 73 74 75 79 83 87 91
77 81 78 79 73 74 73 68 68 69 65 62 57 47 47 48 52 58 62 64 66 65 63 63 61 60 59 59 60 60 62 64 64 64 68 71 70 73 79 82 83 88 93 97
79 81 79 73 72 71 69 65 65 66 65 65 58 34 48 51 54 55 57 61 64 63 61 59 58 58 59 60 60 61 64 66 68 69 69 74 77 79 82 85 90 94 97 99
87 87 83 75 68 68 68 69 71 72 70 61 59 37 52 55 57 58 57 57 59 61 60 59 61 61 61 63 64 65 69 73 74 74 75 77 79 84 87 91 96 99 102 101
91 91 86 77 77 77 74 72 73 75 68 63 57 52 52 55 59 62 61 63 63 63 64 66 67 66 65 65 67 70 72 73 76 79 82 84 88 90 94 99 104 104 102 101
96 94 90 84 83 81 78 75 73 74 68 76 54 61 55 65 66 64 64 63 64 66 66 67 69 69 69 69 71 71 73 76 80 84 87 91 94 96 101 103 106 104 102 104
101 98 97 89 84 87 88 84 76 80 75 75 70 62 62 69 70 67 66 66 65 67 69 71 71 72 72 73 74 76 78 82 86 88 90 92 95 100 106 107 104 106 105 109
105 102 98 92 93 94 95 74 84 84 81 78 76 63 74 72 74 73 75 73 72 74 76 76 77 78 78 78 81 84 85 87 90 92 96 100 103 106 103 100 103 106 110 116
106 104 104 97 102 105 83 86 85 88 82 82 81 70 79 80 82 81 81 80 80 81 81 81 82 82 82 84 87 88 88 90 93 97 99 104 103 103 104 106 109 112 117 120
111 110 108 105 106 103 91 86 90 92 85 85 89 81 84 89 90 79 84 86 85 85 85 86 86 87 88 90 93 95 97 97 100 101 105 105 105 109 109 111 113 117 120 126
115 115 111 108 109 108 89 95 97 100 93 88 93 90 92 92 91 80 90 88 86 86 91 93 93 93 94 95 94 98 100 102 105 108 110 109 111 114 116 116 121 123 128 132
119 118 120 118 118 113 100 101 104 109 96 98 97 94 97 96 95 91 92 90 93 93 95 96 95 96 97 97 100 105 107 111 114 115 114 117 116 120 121 123 126 129 133 138
120 117 114 112 114 114 105 106 108 105 103 102 99 99 99 99 96 98 96 99 100 99 100 104 107 107 104 104 108 111 113 115 118 118 119 118 120 124 125 129 131 135 136 137
120 117 113 110 110 109 108 111 107 105 105 105 103 103 104 106 104 102 105 108 107 110 110 109 111 108 110 113 116 115 117 118 124 122 121 122 125 127 130 133 137 137 139 141
119 117 116 117 116 115 115 114 115 114 113 114 113 112 110 106 107 108 110 113 114 114 111 110 110 111 115 118 120 122 117 127 127 125 124 127 129 133 135 138 138 139 142 145
124 121 120 119 118 119 118 117 116 117 116 114 113 115 113 112 113 117 120 119 118 114 113 114 117 119 122 121 122 120 131 130 127 128 126 131 134 137 140 140 141 144 147 148
129 126 123 122 120 118 119 118 119 120 118 118 120 120 122 126 124 124 124 123 120 117 118 120 121 125 124 125 125 135 130 135 130 127 137 135 139 140 142 142 146 149 148 149

GFSCGP_250_spd_042.txt.gz
Wind_Speed
42 40 45 45 39 37 37 36 34 39 35 32 34 34 35 33 33 36 38 38 39 39 38 38 35 35 34 33 31 29 29 29 27 26 27 27 29 31 34 37 39 42 44 46
46 45 49 48 47 45 45 42 42 39 37 34 37 34 36 34 37 39 38 40 41 40 42 40 38 38 37 37 36 33 33 32 31 29 31 32 34 37 41 44 47 49 51 52
46 47 51 52 52 51 51 49 48 42 40 36 38 32 35 41 37 42 41 43 43 44 42 42 42 41 40 39 38 39 38 38 37 38 39 41 43 46 48 51 54 54 53 55
50 52 54 56 53 57 54 57 52 49 42 37 37 29 36 43 45 41 47 45 46 46 45 44 44 43 42 41 42 42 43 44 45 46 47 48 49 50 51 52 54 55 56 57
53 56 57 55 58 61 60 61 56 51 44 37 34 37 34 46 47 49 47 47 48 46 45 45 45 44 43 45 45 45 46 47 48 49 48 48 49 49 50 51 53 56 57 59
60 60 61 60 64 66 65 64 61 52 46 34 39 41 27 45 53 54 51 49 49 49 49 47 47 46 46 46 48 49 50 51 51 49 49 49 51 51 52 54 56 59 60 62
67 68 68 68 69 70 70 68 60 54 50 40 46 41 29 48 54 54 55 52 52 52 52 52 51 51 49 49 51 53 53 52 52 53 54 55 56 57 57 58 60 63 64 66
75 72 72 71 72 75 74 69 62 61 55 46 44 36 39 45 54 55 55 57 56 55 55 56 55 53 52 52 52 51 52 54 56 57 58 60 60 61 61 63 65 67 68 69
82 78 75 73 74 76 71 67 71 67 57 49 45 44 43 45 52 56 61 63 63 62 59 57 57 57 59 60 58 56 56 56 58 60 61 62 64 65 65 66 69 69 71 72
82 79 75 76 76 73 71 72 71 70 64 53 43 47 48 51 53 58 62 65 66 64 62 61 60 60 59 59 58 58 60 62 61 62 63 63 62 64 66 67 69 72 73 73
84 81 77 77 73 73 77 74 74 75 71 62 54 49 52 53 57 62 63 65 66 64 62 59 57 59 60 60 62 63 62 60 61 61 62 63 65 68 69 72 74 76 76 79
86 87 83 81 82 82 81 78 79 78 74 71 64 42 52 55 59 61 62 62 61 61 60 58 58 59 60 61 61 60 59 60 61 62 65 68 69 70 72 73 75 79 84 87
88 88 86 84 83 82 83 80 83 84 82 70 73 47 53 57 60 63 64 64 63 64 64 62 61 61 61 61 60 60 62 63 65 68 69 70 71 73 76 78 80 83 85 86
97 96 91 85 84 86 85 83 83 86 84 73 68 59 59 60 62 66 69 65 64 62 61 61 64 66 66 66 66 66 66 68 68 69 71 73 75 76 78 81 84 86 88 92
103 101 98 92 91 91 87 85 85 85 75 84 61 73 55 61 67 75 72 69 67 67 67 68 68 66 65 66 66 67 69 70 70 72 75 77 79 81 84 87 88 89 91 95
106 105 104 101 95 94 93 92 86 85 82 86 74 73 69 71 77 75 75 75 72 69 67 67 69 71 72 73 74 75 76 76 77 78 81 83 84 85 88 91 94 97 98 100
112 109 107 106 104 105 106 79 94 94 91 90 87 74 78 75 77 77 78 77 76 75 75 75 73 73 74 77 77 78 79 80 83 85 85 87 89 91 94 96 96 99 103 105
116 114 114 112 112 117 96 99 100 97 94 92 88 80 83 84 86 83 78 76 77 79 79 78 78 79 80 81 82 83 83 85 85 86 90 93 97 96 98 103 104 107 108 111
119 118 119 118 117 116 107 96 97 104 99 95 97 89 87 94 97 79 85 88 82 81 81 80 81 82 84 85 86 85 85 86 87 91 95 99 103 104 106 106 106 110 114 119
122 122 123 126 125 121 98 103 106 110 105 95 103 96 98 103 100 83 95 92 90 87 87 88 90 90 88 88 88 90 92 94 94 97 99 103 106 110 110 111 113 117 122 123
124 126 128 125 126 124 112 112 112 115 99 101 107 106 103 105 107 100 97 97 96 96 96 94 94 95 95 92 90 93 96 99 102 104 108 110 109 110 113 116 118 123 126 128
124 123 124 127 128 125 115 116 116 115 111 108 107 105 109 113 110 111 106 103 99 97 98 95 96 97 96 96 99 102 102 105 108 110 111 112 111 111 114 119 123 125 129 130
130 129 126 126 124 120 115 115 114 112 112 110 109 106 108 107 103 102 103 103 99 97 98 97 98 101 103 103 106 104 101 103 108 113 117 117 114 115 119 123 125 128 130 133
133 130 127 125 123 123 122 120 119 118 116 114 113 113 112 106 102 100 101 101 102 103 103 104 107 108 109 108 109 108 109 111 116 118 118 119 118 120 123 128 129 131 134 142
135 136 131 128 126 125 126 125 124 125 122 120 118 117 116 113 109 108 109 108 108 109 110 110 111 112 113 113 113 115 118 122 121 121 120 123 124 126 130 131 133 133 142 139
130 129 130 130 130 131 131 132 132 131 128 126 124 124 121 118 116 117 117 117 117 116 115 115 116 116 116 117 121 122 124 122 121 119 124 130 130 130 133 137 139 141 139 142

GFSCGP_250_spd_045.txt.gz
Wind_Speed
42 39 45 46 44 44 42 39 39 43 36 30 33 34 33 30 33 35 35 33 35 35 35 38 39 37 34 32 34 34 34 36 36 36 36 35 35 34 35 35 36 38 41 43
46 44 50 45 46 47 48 47 46 45 41 33 36 32 37 34 35 39 41 38 38 35 37 40 40 39 39 38 36 37 36 37 39 39 39 39 37 37 39 40 42 44 48 51
55 55 54 53 54 53 53 51 54 51 48 39 36 30 37 42 41 42 44 47 41 39 38 40 41 41 42 43 40 39 40 39 39 41 42 43 43 45 47 49 52 54 54 54
60 61 61 60 54 57 53 60 58 58 53 45 38 27 34 43 47 48 49 46 48 45 43 41 42 42 43 44 43 44 44 44 44 43 44 45 46 48 51 53 53 54 54 54
60 61 59 59 61 63 58 62 62 61 54 41 37 37 31 42 44 57 53 46 47 50 47 45 45 44 43 44 45 45 46 45 47 47 48 49 49 52 54 54 55 55 56 57
64 62 63 62 65 68 66 65 68 66 57 39 41 47 26 41 51 60 60 51 49 48 49 48 47 46 45 45 46 47 48 48 50 51 52 53 55 57 58 58 59 60 62 62
71 68 67 69 69 71 72 73 71 67 65 49 41 40 29 40 56 63 64 56 52 50 50 49 48 48 48 48 49 50 51 52 53 54 55 57 59 60 61 62 64 64 65 67
76 73 71 72 75 77 76 73 72 74 71 57 41 34 39 43 51 63 60 62 58 56 54 54 52 51 52 52 53 53 53 54 56 57 59 60 61 62 63 65 66 66 67 69
79 77 76 78 79 80 76 75 76 82 73 64 47 41 42 48 49 53 59 60 62 61 59 58 56 56 58 59 59 58 58 58 60 62 63 64 64 64 66 67 67 68 69 69
85 85 83 82 82 81 80 80 82 83 79 73 54 46 46 51 46 51 58 60 61 61 62 61 59 55 56 58 59 60 61 63 64 66 65 65 66 67 67 68 68 68 70 72
90 90 87 87 84 84 86 82 83 83 80 75 65 52 51 51 50 52 59 63 63 63 65 64 62 59 56 57 59 59 59 61 63 64 66 66 65 64 65 68 70 72 73 75
95 97 94 89 88 87 85 82 85 84 80 81 75 52 52 53 55 57 64 69 66 65 66 67 65 62 61 60 60 61 62 62 61 63 64 64 65 66 68 70 72 73 73 76
95 99 97 94 91 87 86 85 86 87 86 79 81 58 57 60 60 61 65 71 67 66 67 68 67 67 65 64 65 64 62 62 63 64 66 68 71 73 72 70 72 74 77 79
106 104 101 95 93 94 93 92 93 94 90 74 81 67 67 63 65 64 69 73 70 67 64 66 68 68 69 70 68 67 68 69 70 69 69 70 71 72 74 77 79 81 83 85
112 110 106 101 99 99 95 94 94 94 84 95 75 84 67 69 66 69 71 77 75 71 66 63 65 68 70 72 73 73 74 75 74 73 73 74 75 78 80 82 84 85 87 89
115 114 113 108 104 103 102 99 91 88 85 90 78 80 72 71 76 76 76 78 75 73 71 71 71 70 73 74 75 76 77 76 76 75 75 76 80 83 84 85 87 89 91 92
121 121 119 118 110 116 117 97 92 96 92 92 90 73 81 80 79 80 82 80 80 80 80 79 77 77 74 73 75 75 76 79 80 80 82 84 86 88 90 90 92 93 95 98
123 122 123 123 120 125 108 102 103 103 97 98 94 82 90 87 88 88 85 85 87 87 87 85 85 82 80 80 80 81 80 81 81 81 83 87 91 92 92 92 94 97 102 105
124 127 129 129 125 124 114 103 106 111 108 107 101 94 91 101 101 86 94 97 92 92 90 92 93 87 85 83 84 85 84 82 83 86 89 91 93 95 95 96 97 100 106 109
123 124 127 128 129 129 112 110 112 116 117 101 112 105 100 107 103 92 105 103 99 99 98 97 99 97 97 94 92 91 90 91 92 91 90 91 94 96 96 99 102 106 109 110
127 128 128 126 130 129 113 116 120 124 108 109 114 112 109 108 108 105 105 107 105 103 102 100 98 99 101 100 100 99 98 98 97 94 94 94 96 97 100 102 107 112 113 114
130 131 129 126 127 126 109 112 116 113 115 110 109 110 110 110 107 102 103 104 102 98 101 102 104 101 101 101 99 101 99 96 98 97 96 98 101 105 108 112 114 116 118 119
139 134 129 128 128 122 121 119 118 114 114 113 108 107 109 108 107 106 105 104 101 97 96 99 102 100 98 97 97 96 95 97 101 99 102 103 105 109 111 114 117 118 119 122
140 140 134 131 130 128 126 123 123 120 119 118 117 118 116 113 113 112 110 108 107 105 105 105 108 105 104 104 105 105 103 101 103 106 108 110 112 115 117 119 120 121 124 127
138 139 139 139 134 129 130 129 130 128 124 123 124 123 121 119 119 118 116 116 114 113 114 113 111 111 114 114 115 111 110 110 111 111 113 117 119 121 121 123 124 127 131 133
131 135 138 137 135 132 129 130 131 130 128 127 127 126 125 124 123 124 124 122 120 120 122 124 122 122 121 120 118 117 117 117 119 120 122 124 125 125 126 128 130 133 137 139

GFSCGP_250_spd_048.txt.gz
Wind_Speed
54 51 54 54 45 46 43 42 44 47 41 34 34 34 33 29 34 35 37 36 35 34 30 31 34 31 30 30 29 30 30 31 33 34 35 36 37 37 38 40 40 39 40 42
55 54 61 54 50 49 48 45 47 49 45 35 39 34 37 34 36 39 39 40 39 36 34 32 34 35 34 33 35 34 32 32 34 37 38 38 39 41 41 41 43 44 44 46
61 61 62 58 58 56 53 48 50 48 49 41 40 31 38 41 38 42 44 41 40 40 39 36 35 39 37 37 36 36 38 38 37 39 40 40 41 42 42 43 46 48 51 53
64 64 68 66 59 61 56 59 56 56 53 48 40 26 39 44 42 46 53 49 43 40 41 42 35 36 40 38 37 39 40 41 42 43 41 43 45 46 46 47 48 48 51 54
69 71 69 69 70 71 63 66 64 62 61 55 39 34 33 43 43 51 58 58 46 43 43 43 43 36 36 37 38 39 41 43 44 45 44 45 48 49 50 51 52 53 56 59
76 75 75 73 74 76 73 70 71 70 66 52 45 53 30 38 44 51 62 61 53 44 48 48 43 42 40 40 39 39 42 44 46 47 48 49 50 52 53 56 57 59 60 61
81 79 78 78 77 78 77 77 77 74 67 55 55 57 38 41 45 55 62 64 61 53 48 49 50 48 47 46 45 44 45 47 49 50 51 53 53 55 57 59 62 63 65 66
86 82 82 82 83 84 83 79 77 75 71 64 63 58 43 50 47 53 61 61 60 56 51 49 50 50 48 47 47 47 49 52 54 56 57 57 57 59 60 63 65 67 67 67
87 87 86 86 86 87 82 80 76 80 74 71 67 66 50 52 55 55 54 63 59 56 54 51 49 49 48 49 48 49 51 54 56 57 58 59 60 62 63 65 66 67 67 69
94 90 87 84 86 84 83 81 82 82 80 80 72 68 61 52 54 56 62 60 60 59 57 55 53 53 54 53 53 54 54 55 56 57 58 58 60 60 62 63 64 66 69 70
100 97 91 91 88 87 90 88 87 88 88 85 77 67 63 57 55 57 63 66 63 62 61 60 59 56 55 55 55 54 55 56 57 57 58 59 59 61 60 61 64 67 69 71
102 104 98 92 91 91 92 88 89 91 88 87 85 69 64 65 63 61 62 65 68 66 61 62 64 60 59 57 56 57 58 58 58 60 62 62 62 62 63 66 68 69 71 73
103 107 103 100 93 88 87 86 90 95 96 92 93 69 64 72 70 67 67 68 67 69 69 68 64 63 63 59 58 58 59 60 61 61 63 65 67 68 69 71 72 71 74 76
110 114 108 101 97 99 98 96 97 98 99 83 91 74 71 69 71 70 69 70 69 71 75 72 67 65 62 64 62 60 62 64 65 66 68 69 71 72 73 74 74 75 78 79
117 117 112 108 108 106 103 102 103 103 93 100 80 87 64 69 69 73 75 78 78 76 74 75 71 65 65 65 67 67 67 67 68 69 72 73 72 73 74 75 77 80 82 85
123 121 119 113 109 111 112 112 108 101 98 101 89 92 71 78 82 81 80 83 80 79 78 77 76 73 71 70 69 71 73 73 73 73 74 78 80 80 78 80 81 83 85 87
128 126 125 124 115 119 121 108 104 106 104 103 103 89 84 83 84 85 87 85 82 84 83 81 79 77 77 77 75 75 77 77 78 78 79 83 84 84 82 83 85 87 87 89
125 127 128 129 124 130 113 111 111 111 105 105 104 93 89 91 92 94 91 90 91 90 88 85 84 84 84 84 84 83 83 83 84 84 86 87 90 90 87 88 86 87 93 97
123 122 120 122 125 128 124 114 114 116 115 112 107 101 95 98 102 94 95 97 95 93 91 89 88 89 90 91 91 90 90 91 92 92 94 93 91 90 90 91 92 95 97 99
126 127 127 123 121 120 107 101 108 116 118 106 114 111 109 112 110 99 102 105 98 96 95 95 96 98 97 96 96 95 97 95 94 93 94 95 95 95 95 96 96 95 96 99
129 128 128 125 126 122 99 95 108 121 105 99 107 111 111 112 113 109 104 105 105 103 100 99 100 97 99 97 96 97 96 96 95 95 96 98 99 100 99 96 93 94 97 101
133 133 132 130 129 131 111 112 111 112 109 107 105 107 108 106 104 100 99 97 96 96 95 93 93 92 95 97 97 93 93 93 93 91 94 94 94 98 101 98 100 101 103 105
137 142 134 137 133 128 128 125 122 121 118 111 110 108 106 104 101 100 99 101 99 99 99 97 97 95 92 92 94 95 97 97 99 99 99 100 102 103 107 105 108 108 112 115
138 138 138 139 135 135 135 132 128 126 125 122 120 117 114 114 113 111 110 107 106 107 107 107 108 107 107 106 106 106 108 108 108 110 109 108 109 113 112 114 115 117 119 117
125 133 135 139 137 135 133 133 134 131 129 127 125 124 122 119 117 116 115 114 115 117 115 113 111 109 109 112 116 115 113 117 117 116 116 116 118 119 119 118 120 118 121 123
117 118 121 119 126 136 141 140 137 133 131 131 130 128 128 128 126 122 120 118 118 119 118 119 121 121 122 124 123 121 122 123 122 121 121 121 123 123 125 125 125 128 128 127

GFSCGP_250_spd_051.txt.gz
Wind_Speed
52 51 54 57 51 51 50 48 46 46 39 33 30 33 31 30 35 35 35 34 33 32 26 25 27 29 29 27 26 26 28 27 26 27 31 33 33 32 34 35 36 38 39 39
59 58 61 56 55 54 54 53 52 49 41 36 35 31 33 33 35 37 41 40 36 34 33 28 25 29 31 30 29 28 28 29 30 30 31 33 33 36 38 37 38 39 41 42
62 63 63 60 59 59 59 57 57 52 48 41 37 27 32 37 34 38 46 45 41 38 35 33 31 28 30 32 30 29 31 32 33 34 34 36 35 35 38 39 42 43 45 46
66 65 67 66 64 64 62 62 59 58 53 46 38 23 34 41 37 42 50 48 43 39 36 36 35 32 30 31 29 31 31 33 35 36 37 38 38 38 39 40 43 45 46 49
70 70 71 70 69 68 65 68 66 61 59 53 37 37 28 41 41 49 53 53 47 40 36 38 37 35 31 34 33 32 33 36 37 38 39 40 42 42 43 44 46 49 50 51
76 74 75 73 75 76 72 72 72 70 67 56 46 49 27 40 46 52 59 58 53 47 39 40 40 39 39 37 37 36 36 38 41 41 41 42 43 44 45 47 49 51 53 54
81 79 80 80 80 80 78 77 79 76 70 62 55 50 34 45 50 55 59 62 62 59 47 44 43 45 43 40 38 39 39 40 41 42 43 44 46 47 50 52 53 54 56 58
87 83 82 82 84 86 87 84 82 81 77 72 64 47 44 50 53 57 53 60 66 62 53 49 46 45 46 44 42 41 42 42 42 43 45 47 50 51 53 55 55 55 57 58
91 88 87 87 88 89 84 83 83 87 81 76 65 54 51 52 58 61 62 52 62 63 58 52 50 50 48 46 45 46 46 46 45 46 46 47 50 51 53 55 56 56 58 59
96 93 91 90 91 89 87 86 87 87 86 83 70 62 57 58 60 63 66 64 59 60 57 54 55 55 52 50 49 49 48 48 49 49 49 49 51 51 53 54 57 59 58 59
99 98 93 93 91 91 93 90 89 89 90 88 83 71 66 61 61 65 65 64 66 63 63 61 59 56 54 52 52 53 53 52 52 51 50 50 50 51 52 53 55 58 60 62
106 106 101 97 97 97 97 92 93 95 93 94 92 73 65 66 70 68 71 70 69 68 71 71 67 62 58 55 56 57 57 56 56 57 54 56 54 54 55 56 58 60 61 64
109 112 108 105 101 98 97 97 99 101 101 97 93 73 62 72 72 70 72 73 72 72 72 74 74 69 65 59 58 60 61 61 60 60 60 59 60 61 61 62 64 63 64 67
113 116 112 107 104 105 103 102 104 105 105 90 97 77 70 68 69 71 73 77 77 77 80 75 73 74 71 66 63 63 65 66 65 64 65 66 67 67 67 68 68 69 70 71
123 120 114 110 109 111 110 108 108 109 100 105 90 92 68 74 75 76 78 82 88 85 79 76 73 73 73 71 69 68 70 72 73 70 70 71 72 71 71 73 74 75 77 78
127 125 124 120 114 115 116 115 110 107 104 105 95 93 77 81 83 82 80 88 87 85 82 80 80 79 77 76 75 75 76 75 73 73 74 75 75 76 76 77 78 79 81 83
125 124 127 128 118 123 128 114 108 110 109 107 106 92 92 90 88 88 93 94 90 90 91 88 86 83 81 79 78 79 78 76 76 78 81 82 83 85 84 83 83 85 86 86
112 115 121 128 124 134 119 117 114 113 111 108 109 103 96 95 96 96 96 96 97 96 93 90 87 85 83 82 82 82 82 84 84 83 84 86 89 90 91 92 90 90 89 89
123 125 124 125 116 118 119 113 111 117 116 114 117 110 105 105 108 101 101 104 100 99 98 97 94 90 88 88 87 88 88 88 88 89 91 93 93 94 95 94 92 91 89 88
129 130 131 128 128 123 108 94 101 111 119 99 107 104 104 107 112 104 112 110 108 105 103 100 99 96 96 95 95 94 93 94 94 94 96 97 97 96 98 99 98 92 91 91
130 130 133 130 133 128 107 102 107 118 104 98 107 106 102 101 100 99 99 100 102 100 95 94 93 92 92 92 93 92 92 91 91 93 93 95 95 94 94 92 95 93 92 94
129 132 131 133 134 134 118 117 121 122 120 114 108 109 109 108 107 103 100 96 94 93 92 90 87 87 87 87 86 87 89 87 89 89 90 90 91 93 94 95 94 97 99 100
130 133 133 133 135 127 122 124 126 127 126 123 120 119 116 115 114 113 110 106 104 99 98 97 95 93 92 92 92 90 89 88 89 93 94 96 97 99 98 102 105 105 110 111
121 123 131 132 126 126 127 129 127 129 131 132 127 123 122 120 119 118 117 118 114 112 110 108 106 102 101 103 103 103 103 104 103 101 102 108 108 107 110 112 114 116 117 119
116 119 118 117 119 125 128 131 131 132 133 132 130 127 126 126 125 122 121 120 118 117 116 115 115 114 113 112 113 112 113 113 111 113 114 114 114 116 117 120 121 124 124 123
113 112 117 112 117 117 115 123 132 135 137 134 135 128 123 125 126 125 126 125 124 123 120 117 116 117 118 117 117 117 119 119 118 120 119 119 121 122 124 122 122 123 122 121

GFSCGP_250_spd_054.txt.gz
Wind_Speed
58 54 53 56 48 45 48 49 53 52 46 41 37 37 32 30 32 31 32 33 32 29 24 23 21 23 25 24 25 24 25 26 28 30 32 31 33 33 33 33 34 33 34 36
59 54 60 54 51 51 53 53 56 53 46 43 39 37 35 31 33 32 34 35 34 34 27 26 24 24 25 26 25 24 26 28 30 31 32 33 33 35 36 36 36 36 38 39
62 62 61 57 55 55 56 56 59 56 51 47 43 35 36 37 33 33 38 37 37 37 34 27 26 28 27 27 24 25 27 29 32 32 32 34 34 36 37 38 37 38 40 42
66 64 65 62 61 62 61 64 63 60 56 49 45 30 40 41 35 40 44 41 44 41 36 29 26 28 28 29 31 30 31 32 34 35 35 35 35 37 38 38 39 41 43 45
70 70 69 69 69 70 65 66 65 64 61 55 44 34 37 44 40 48 48 49 49 46 43 34 28 29 28 30 32 31 31 32 35 38 38 37 38 39 40 40 40 42 43 46
75 75 75 74 74 73 69 70 71 69 68 58 50 44 30 42 48 50 54 57 55 53 46 39 30 33 34 33 33 33 34 34 36 39 40 40 40 40 42 43 44 45 47 50
83 81 80 80 78 77 74 75 77 77 71 60 59 51 31 44 53 54 58 61 62 62 56 50 36 33 37 38 38 38 38 39 40 41 40 40 40 42 44 45 47 49 50 52
87 86 83 82 82 83 84 81 79 77 76 71 66 49 38 49 52 56 58 61 65 67 66 57 46 42 39 43 43 44 44 45 44 44 43 44 45 45 44 47 49 51 52 53
92 91 88 87 88 89 86 84 82 86 82 78 69 57 52 56 59 60 62 65 70 70 70 71 57 49 45 44 44 44 46 48 49 48 49 49 48 48 48 50 50 52 53 54
93 91 91 92 93 92 90 86 87 88 86 84 72 67 55 59 62 61 64 68 70 72 75 72 69 61 54 48 46 48 49 50 52 51 53 53 52 52 53 53 56 57 55 53
98 96 93 93 92 94 96 91 91 91 92 89 82 73 63 63 64 66 68 70 73 73 75 73 75 70 65 60 55 56 56 56 55 55 56 57 57 57 57 57 58 61 62 61
106 104 100 97 97 97 97 93 94 94 92 95 94 80 70 71 71 71 72 74 77 78 77 78 77 77 72 67 65 60 58 58 58 58 60 61 62 62 62 64 65 64 65 66
107 110 108 105 102 100 100 99 99 101 103 100 98 84 74 77 76 75 75 75 76 80 79 80 78 77 77 74 70 68 63 62 62 62 63 63 65 66 67 68 69 70 69 70
112 112 112 110 108 107 105 103 105 108 111 97 101 88 79 81 81 80 79 82 83 83 84 83 79 76 75 74 74 70 69 66 65 67 67 68 69 69 70 72 73 73 73 74
126 123 115 112 112 111 110 111 112 113 106 110 97 102 82 84 84 84 86 87 86 90 87 82 79 79 75 74 76 75 73 71 71 72 72 73 73 74 74 74 76 77 76 78
114 126 129 121 116 121 118 115 114 111 109 110 102 104 87 86 89 88 87 90 90 90 89 89 87 84 80 78 78 79 78 77 76 77 77 77 79 80 80 80 80 81 83 84
105 104 112 118 123 132 134 118 113 115 112 109 111 100 98 95 93 92 93 97 93 93 95 93 91 88 87 88 87 84 84 82 82 82 80 81 82 84 84 85 87 87 89 88
115 110 111 103 103 114 112 117 119 122 124 119 122 117 106 103 102 99 101 100 98 100 100 96 94 92 91 91 89 89 90 87 85 84 86 88 86 87 89 90 91 92 93 94
121 122 122 119 111 110 104 91 95 101 95 104 110 109 108 105 109 111 100 103 102 106 102 98 97 97 97 97 96 93 92 91 92 94 95 93 94 94 94 95 95 97 99 101
130 131 132 126 121 121 105 98 103 109 106 85 103 103 98 98 104 94 102 104 107 111 106 101 101 102 103 101 98 98 97 96 96 93 92 89 90 95 96 97 100 104 103 102
133 135 135 133 133 131 118 111 115 117 109 102 106 107 107 108 106 101 100 102 100 99 97 97 98 95 92 90 89 89 87 88 89 90 90 91 90 93 96 99 101 100 100 98
134 137 137 138 140 133 119 120 123 124 123 118 111 111 108 108 106 106 104 104 102 99 97 97 95 92 90 87 84 83 83 85 87 87 89 90 91 92 95 96 95 97 97 97
127 130 134 138 135 129 122 119 124 129 124 117 110 115 114 112 113 115 114 112 110 105 100 97 96 92 92 93 93 91 90 93 90 90 92 97 93 94 96 95 94 97 98 102
119 123 130 132 126 126 121 118 120 128 128 124 120 117 118 114 113 114 117 119 118 117 117 115 113 111 109 107 107 105 104 102 104 105 105 104 103 103 102 99 101 105 108 110
115 117 117 117 112 122 120 122 125 127 130 125 122 116 120 122 123 121 119 118 117 115 113 114 116 115 115 115 115 113 114 113 112 112 113 113 112 113 115 115 115 114 116 116
111 111 117 113 114 119 108 115 117 117 122 115 116 116 114 116 120 118 121 122 121 121 116 116 114 113 113 114 115 116 117 119 119 119 118 119 121 120 120 119 119 118 119 119

GFSCGP_250_spd_057.txt.gz
Wind_Speed
68 64 62 69 67 61 58 53 51 49 45 39 41 45 46 43 40 37 37 35 33 32 30 26 24 23 22 22 22 22 24 26 29 31 33 35 37 37 36 37 39 38 37 37
70 66 69 66 66 62 61 58 57 51 46 40 42 45 45 42 42 39 38 38 36 36 31 30 28 24 26 27 24 24 26 26 28 30 32 35 37 39 40 41 40 39 39 40
71 71 72 72 67 64 63 60 61 53 47 44 45 42 43 44 43 41 45 42 41 39 35 33 32 25 24 29 27 26 25 26 28 31 33 35 34 35 37 39 40 40 41 42
75 69 74 73 69 68 66 63 62 57 53 51 46 37 45 47 45 44 49 45 45 41 40 40 37 31 24 28 31 30 28 30 31 31 33 37 37 39 40 40 40 41 42 43
73 75 76 73 71 71 68 66 65 63 59 53 49 47 45 49 45 52 50 49 48 46 44 46 45 40 33 26 31 33 35 36 33 32 32 35 38 40 40 41 42 43 45 45
74 74 74 73 73 75 70 71 72 70 67 59 58 55 36 50 50 57 53 54 52 50 47 49 52 49 41 35 31 36 38 40 38 38 38 37 39 40 42 42 43 45 47 49
80 79 80 79 78 78 76 76 78 77 73 63 67 59 36 43 55 58 58 60 58 54 53 55 58 55 46 40 36 34 39 41 44 45 44 41 44 45 46 46 47 48 49 49
88 86 84 85 82 85 85 83 81 79 82 73 68 54 43 47 54 61 63 64 63 60 59 62 62 62 58 48 41 38 38 42 45 47 46 46 46 48 50 51 51 52 52 53
92 89 86 87 89 90 87 85 83 90 86 82 71 55 51 51 56 56 67 68 64 64 65 68 70 69 66 63 57 53 45 42 45 46 47 51 52 53 53 53 54 57 58 57
95 90 89 90 93 91 89 88 90 91 90 88 72 66 57 60 61 65 64 68 70 70 72 75 77 75 72 73 69 64 61 57 54 54 56 57 58 60 58 59 59 59 61 62
99 98 96 94 93 94 96 95 94 95 94 93 83 74 65 64 63 67 69 70 73 74 77 80 81 80 78 77 76 74 69 68 66 62 61 63 65 61 59 60 61 62 63 66
107 107 103 99 98 100 99 99 99 98 92 96 94 79 71 73 73 74 76 76 78 79 81 83 85 85 83 82 79 77 78 75 73 71 68 65 67 64 64 62 64 65 66 68
110 110 110 108 107 108 106 103 102 101 104 104 103 91 73 82 82 80 80 80 82 84 86 88 90 89 87 85 81 79 80 76 70 69 69 69 69 69 68 67 67 69 70 71
115 116 115 112 109 109 107 107 108 109 111 103 106 94 80 82 86 86 85 87 87 86 89 93 91 92 88 85 83 81 80 78 76 72 71 72 73 72 71 72 74 76 75 76
118 120 120 119 115 116 112 111 111 113 111 114 104 109 91 87 92 92 94 93 92 93 94 95 96 93 90 89 85 84 81 79 80 78 76 76 74 74 74 77 79 80 81 80
116 122 121 115 116 125 124 120 118 114 112 114 107 109 95 93 98 102 99 98 98 100 98 99 100 101 97 94 90 84 85 83 82 82 81 82 82 82 82 81 82 84 86 84
98 101 108 115 117 122 125 117 121 118 113 114 118 107 106 105 100 99 101 104 102 99 99 103 102 101 98 94 95 93 88 87 87 88 88 88 87 85 86 87 88 90 88 87
100 99 100 99 108 121 114 109 109 110 109 103 103 104 109 117 113 109 108 111 106 107 104 104 106 105 104 103 101 100 100 100 94 93 94 93 92 93 91 91 92 93 95 97
114 116 114 113 106 108 102 93 100 105 101 103 100 95 86 87 97 97 98 109 112 112 109 112 111 104 102 102 101 100 100 96 95 94 94 95 96 98 99 100 100 98 98 97
125 125 129 124 119 113 102 104 107 111 116 103 105 98 94 93 93 82 93 89 89 89 89 89 93 97 97 99 101 102 101 100 100 99 96 96 97 99 100 101 101 98 98 98
134 134 134 131 131 125 113 109 115 121 112 110 108 109 109 109 107 99 96 94 96 98 102 99 96 97 100 101 100 99 97 95 95 93 93 91 92 91 92 93 94 94 95 96
137 139 138 137 140 135 122 124 127 128 123 120 116 116 121 121 120 117 111 106 105 102 103 104 103 102 103 102 102 101 100 100 98 95 94 94 93 93 90 93 93 91 94 95
137 139 141 141 136 131 127 128 132 136 136 135 134 129 129 126 122 119 115 113 113 107 105 106 108 111 109 105 103 102 102 101 100 98 96 95 96 96 97 98 99 100 102 104
124 129 133 133 127 132 131 128 125 133 138 135 136 136 133 126 124 123 122 122 119 116 114 111 111 112 112 110 110 111 110 111 111 108 106 106 105 103 106 105 106 108 110 111
114 118 116 124 115 123 122 122 125 127 128 120 119 122 122 122 120 117 116 117 116 113 115 115 116 117 115 114 115 114 114 113 113 113 111 111 111 111 109 109 110 110 112 113
107 113 121 114 112 121 112 117 121 121 122 121 115 113 112 113 113 113 113 114 115 115 117 115 113 113 113 114 113 111 110 112 113 112 112 110 112 112 113 112 113 113 112 112

GFSCGP_250_spd_060.txt.gz
Wind_Speed
70 64 60 63 60 60 56 58 56 53 50 55 58 50 47 39 37 41 38 43 39 36 33 33 34 29 27 26 25 25 26 26 28 30 30 31 34 35 36 36 38 38 37 38
73 71 72 71 72 71 67 62 61 58 56 59 55 49 47 41 39 36 40 44 47 45 37 36 37 37 33 27 26 27 29 29 29 31 30 32 33 33 35 36 35 36 37 36
75 73 73 71 70 68 64 66 68 65 59 60 58 51 48 41 38 36 42 45 48 46 41 38 38 39 39 35 29 29 30 30 29 29 30 32 34 34 35 37 36 38 38 40
80 80 81 77 77 74 69 70 69 67 65 61 59 47 45 44 40 37 44 46 50 45 45 44 40 42 42 40 36 34 32 34 34 32 34 33 33 34 35 38 41 39 38 41
76 78 77 78 77 76 73 75 74 73 67 62 54 47 47 46 41 45 50 49 47 48 49 47 47 43 45 45 40 39 36 36 39 42 39 38 38 39 40 41 40 41 41 42
79 77 74 78 76 77 74 75 76 76 71 62 59 54 39 53 47 49 56 52 50 50 50 50 49 50 47 49 48 45 43 41 39 41 44 43 43 44 43 46 47 45 45 46
78 77 79 80 78 78 77 79 81 79 74 62 63 58 43 50 56 53 56 60 57 55 53 53 52 53 53 54 53 53 50 47 45 44 42 45 47 47 47 47 50 48 49 49
79 77 76 78 76 79 79 78 76 77 76 69 67 54 49 53 54 57 59 64 64 61 62 60 55 57 58 58 58 58 54 54 50 48 49 49 48 50 53 53 55 54 55 54
84 83 82 81 80 81 78 75 78 82 77 74 66 58 58 59 61 58 59 64 69 69 68 68 65 62 63 64 63 63 64 61 56 54 59 60 60 60 59 61 63 64 64 61
89 91 85 78 80 82 80 81 82 83 80 79 68 69 64 64 67 65 65 66 70 73 73 73 72 71 70 71 71 69 68 68 70 70 70 69 69 68 67 67 68 69 68 67
95 96 89 85 82 82 85 83 84 88 87 84 77 71 70 70 70 70 71 71 73 74 78 78 77 76 76 76 77 77 74 73 73 74 75 76 77 76 76 75 72 70 67 68
99 100 95 92 92 91 91 90 92 93 88 93 91 73 74 77 79 79 78 75 76 79 79 80 81 82 82 82 82 81 80 80 79 81 81 83 82 82 80 77 74 73 69 71
105 105 102 100 99 98 98 98 100 100 101 101 102 84 75 84 87 86 83 78 79 84 85 87 89 90 91 90 89 86 86 86 86 87 86 86 86 84 83 81 78 74 72 73
113 113 111 105 106 104 104 104 106 107 106 98 104 90 81 85 88 87 87 88 88 89 91 94 96 96 96 94 92 90 89 90 89 90 88 88 87 86 85 83 78 77 76 78
112 110 114 115 115 111 111 113 114 114 109 114 102 108 90 91 96 100 99 96 96 96 98 98 99 102 102 101 97 96 93 94 95 90 92 92 91 89 89 87 86 84 82 81
118 118 117 119 115 115 119 120 113 111 110 115 110 111 97 99 101 101 98 101 100 99 99 100 105 108 109 108 104 101 99 97 97 96 96 94 91 88 87 88 88 87 90 88
102 100 103 102 113 121 124 112 116 113 113 118 122 112 111 109 105 104 106 107 103 102 102 103 101 104 110 110 109 105 103 101 100 99 98 101 96 96 99 99 99 96 94 92
99 98 100 97 100 102 94 97 102 108 107 112 117 114 113 115 107 106 108 107 107 110 111 108 111 112 112 114 116 115 111 109 110 109 108 105 104 101 97 93 94 96 98 98
108 110 108 103 100 100 96 84 92 99 95 95 99 95 86 85 90 87 98 103 99 97 98 96 91 87 87 90 94 97 102 103 100 98 96 95 94 91 90 92 96 97 98 100
115 114 120 113 111 106 86 89 97 105 111 99 102 101 99 91 93 87 91 93 94 96 94 93 96 92 90 88 86 90 90 90 88 89 88 90 92 91 92 93 93 95 97 98
125 126 125 121 123 116 95 97 111 117 107 106 107 111 110 104 102 99 97 95 96 94 97 100 100 98 98 98 95 91 93 96 95 99 101 102 102 101 99 102 104 106 105 105
130 133 132 130 131 130 117 116 121 125 121 124 121 118 116 118 115 113 110 108 105 103 102 104 105 107 103 108 106 107 103 103 104 104 103 105 106 108 108 104 104 107 109 109
139 138 136 138 138 136 128 128 128 129 134 137 136 135 131 124 124 125 120 115 115 114 112 110 110 110 112 112 113 114 115 113 114 110 106 106 106 110 110 108 107 106 106 107
137 137 142 142 137 139 139 133 133 135 131 127 126 127 134 135 130 126 127 125 122 123 122 121 120 117 117 117 119 121 121 120 118 116 115 114 114 112 111 112 111 112 112 110
123 129 131 137 128 132 134 135 130 127 126 123 124 128 127 127 123 120 116 114 116 118 119 118 115 116 113 113 114 114 117 116 119 118 118 117 116 113 113 114 114 112 112 112
109 115 121 118 117 123 120 120 121 120 120 122 118 118 118 118 121 119 117 111 110 114 116 117 113 112 112 110 111 111 112 114 114 114 115 112 112 112 112 110 107 106 107 105

GFSCGP_250_spd_063.txt.gz
Wind_Speed
73 67 67 68 64 51 53 60 58 54 53 51 48 43 42 36 46 49 49 45 44 40 39 35 35 33 32 31 31 29 32 30 31 33 33 35 35 35 36 37 32 33 35 35
73 69 76 70 65 61 63 59 59 58 52 50 44 46 49 46 49 48 49 49 42 36 32 35 35 38 38 37 36 34 32 33 32 32 32 32 34 34 36 36 36 34 36 37
76 73 76 76 75 70 71 71 66 58 52 55 57 57 52 51 53 49 51 49 41 38 36 36 38 38 40 38 40 39 38 36 36 35 37 35 34 36 37 37 38 37 38 39
88 85 85 82 79 80 72 71 73 71 69 67 58 50 55 56 56 51 52 50 44 41 42 39 35 38 44 42 41 42 42 42 40 38 38 39 40 41 42 42 42 42 40 41
88 91 91 85 82 80 77 72 71 73 72 65 62 59 61 60 57 55 55 49 49 49 46 42 40 37 43 47 43 43 44 44 43 43 43 45 44 44 45 46 48 49 46 45
87 86 84 84 84 82 79 77 77 76 71 66 65 64 56 63 61 60 59 56 52 52 50 49 44 42 44 48 50 48 48 47 47 48 49 49 50 49 50 46 48 52 52 49
88 85 84 83 81 79 80 82 80 78 76 66 69 65 51 61 65 63 61 60 59 57 56 53 50 50 51 52 52 52 52 51 51 53 55 55 55 55 55 53 52 56 55 57
85 84 81 80 82 82 82 81 78 75 73 69 66 59 57 57 64 66 67 65 64 63 62 61 60 60 60 60 59 57 54 54 54 56 59 61 62 62 63 60 60 61 62 62
86 82 83 83 82 81 78 78 79 79 76 73 66 62 64 64 65 69 67 68 69 69 68 68 69 69 70 69 66 63 60 59 59 59 61 64 65 68 69 65 67 68 70 70
91 87 85 83 83 79 77 77 78 79 75 72 65 62 62 66 69 71 71 69 71 72 71 75 77 77 75 75 73 70 68 66 65 64 66 68 72 73 74 75 74 74 75 76
100 100 92 90 88 86 84 83 84 84 80 75 67 59 61 65 68 70 73 73 74 75 77 78 81 83 84 82 79 76 74 73 74 74 73 74 76 78 79 81 82 82 82 82
99 98 98 96 94 94 92 90 90 90 86 87 81 66 70 71 72 74 76 76 78 80 82 84 86 87 88 87 84 82 81 81 82 82 82 82 82 83 84 86 87 87 87 87
101 101 100 100 99 99 97 96 98 100 100 93 93 69 74 81 79 81 82 82 87 87 89 91 94 94 92 90 89 89 88 88 88 88 89 89 90 90 89 89 90 92 92 92
109 108 106 102 103 102 99 98 98 100 101 94 94 81 79 82 83 86 92 94 93 93 93 94 96 96 96 97 96 93 92 93 94 94 94 94 96 96 95 93 94 94 94 94
112 110 108 107 107 106 107 107 107 106 103 101 93 98 83 88 90 95 97 96 98 97 98 99 99 98 99 101 101 99 97 98 101 101 100 99 99 101 102 103 99 98 95 94
122 123 117 113 114 114 113 108 106 107 107 107 107 104 98 98 98 101 102 102 102 102 103 105 105 106 106 108 110 111 108 106 105 102 101 101 103 101 102 102 100 100 101 100
121 117 114 118 119 124 124 110 114 114 110 115 116 110 108 108 110 112 112 111 111 113 114 115 116 116 114 112 113 114 114 112 110 108 108 108 108 108 109 110 107 105 104 103
110 111 114 120 120 124 114 114 114 110 113 118 119 111 112 112 109 111 115 113 113 113 115 115 115 116 116 115 114 116 114 113 112 108 104 103 101 99 95 90 91 92 93 92
106 107 110 113 114 113 105 103 106 115 116 114 110 104 93 93 92 94 94 97 97 98 102 105 105 105 107 104 109 105 105 106 103 103 100 101 97 92 92 93 93 90 89 89
112 112 111 109 109 106 85 98 105 109 106 97 101 99 94 93 92 88 89 90 91 93 90 90 89 88 86 89 89 88 92 95 99 102 104 102 101 102 99 99 99 97 93 94
111 110 112 114 117 111 88 92 102 111 100 103 102 106 107 103 103 99 98 96 96 96 98 101 98 96 99 98 99 97 96 95 100 100 99 102 104 105 106 105 104 108 108 108
114 116 113 112 115 109 97 99 109 114 110 107 107 109 112 111 109 106 102 102 105 104 104 103 105 104 105 109 106 109 105 104 104 111 108 107 109 112 114 116 117 115 116 120
121 119 120 122 120 114 108 111 113 118 117 115 115 116 118 119 118 117 113 109 107 108 108 111 110 110 112 113 112 112 113 111 110 111 118 119 119 116 117 121 122 125 123 123
136 135 133 132 130 132 130 126 125 125 128 128 128 128 131 131 129 125 129 130 128 126 125 122 120 118 119 125 124 119 120 121 120 120 121 122 123 124 123 122 124 126 125 127
139 139 137 140 135 138 138 134 134 137 140 137 135 135 133 134 133 135 130 127 127 126 124 121 121 121 120 120 121 121 122 121 119 121 122 122 123 122 122 119 120 121 121 120
131 136 142 142 139 140 139 142 141 133 132 136 134 130 128 126 128 128 124 120 117 116 116 114 113 111 111 113 113 113 114 112 111 112 115 113 113 116 116 116 116 115 115 115

GFSCGP_250_spd_066.txt.gz
Wind_Speed
79 76 69 74 67 58 58 52 51 52 51 46 43 44 45 42 44 39 39 41 45 44 39 42 43 42 38 36 31 35 28 28 34 36 37 37 37 38 39 38 38 36 37 39
74 77 75 68 68 64 60 58 58 56 51 46 43 48 48 44 43 43 45 47 45 46 44 39 42 43 42 41 37 41 34 33 33 35 38 41 42 42 41 39 39 37 37 40
76 78 74 74 71 71 70 70 70 62 64 59 55 50 48 50 49 48 54 50 48 48 45 45 45 45 45 43 42 42 40 37 37 38 40 42 44 45 45 44 43 43 43 43
77 75 75 76 77 77 73 70 71 65 63 62 61 58 62 62 62 61 60 55 51 56 53 48 47 48 49 50 45 44 45 45 41 39 42 45 46 48 49 50 50 48 45 45
81 82 84 81 80 81 78 75 74 73 71 69 68 62 67 67 65 64 63 60 61 59 56 54 52 51 52 54 51 49 47 47 45 45 47 48 50 52 53 52 53 54 53 52
91 92 88 88 89 89 88 86 87 82 80 75 73 68 65 68 67 67 66 64 64 63 60 57 58 56 55 56 57 55 51 51 51 51 51 50 53 57 59 58 57 58 59 57
92 93 92 92 92 91 90 87 85 86 79 69 68 70 61 69 71 69 68 68 69 67 64 62 62 60 59 59 60 60 56 56 56 56 56 53 55 59 63 65 65 65 65 62
97 95 93 91 91 91 91 87 84 80 77 74 72 70 68 64 71 72 73 74 72 72 71 67 66 65 64 64 63 63 62 60 60 62 61 59 59 60 63 68 72 70 69 69
93 92 91 90 90 90 86 85 87 85 81 76 72 70 69 70 71 77 76 77 77 76 74 71 71 72 70 69 67 67 67 67 65 65 67 67 66 66 68 69 73 77 76 76
95 96 95 94 94 92 90 89 89 87 84 79 74 72 73 74 75 73 77 79 77 77 78 79 80 79 78 76 73 71 71 70 70 71 72 74 74 73 74 76 77 79 81 82
99 98 98 97 93 93 93 92 92 89 86 81 77 74 74 77 77 76 76 76 80 82 82 83 84 84 84 84 82 77 75 76 77 78 79 80 81 81 81 82 82 82 82 86
107 106 102 102 102 101 99 95 94 93 89 86 81 72 77 77 78 78 79 80 79 83 85 87 87 85 84 85 85 84 83 84 85 85 85 85 86 87 86 85 87 88 88 90
107 107 103 101 100 99 99 97 95 95 95 87 88 75 79 81 81 81 81 83 84 85 84 84 85 86 87 88 89 89 89 89 91 90 90 90 91 92 93 91 91 91 92 93
106 107 109 106 107 105 104 105 105 104 101 92 89 86 86 90 91 89 89 90 91 90 90 90 91 91 92 93 93 92 93 93 93 94 94 93 93 94 95 96 98 99 99 98
109 110 111 109 108 108 106 104 104 105 103 103 96 98 94 92 94 97 98 99 101 98 97 97 97 98 99 100 101 102 102 102 101 101 101 101 101 103 103 105 106 106 107 107
117 112 111 111 112 113 111 109 110 110 109 106 105 97 93 99 101 103 102 103 104 104 107 105 103 101 101 102 103 106 106 107 109 109 109 109 110 112 114 116 113 110 110 109
123 124 124 122 121 120 118 109 113 112 113 113 113 102 104 106 107 106 106 106 108 108 107 105 106 107 107 108 109 110 113 115 116 117 118 118 118 117 119 118 119 115 116 115
118 119 121 122 123 126 116 115 116 116 117 119 114 107 112 113 114 114 114 114 113 111 110 111 113 113 113 116 119 119 121 121 120 118 118 119 118 118 117 114 114 104 105 103
121 122 120 120 120 115 106 105 112 118 120 121 117 114 114 113 114 116 117 118 117 117 116 113 112 113 116 117 116 114 113 109 111 111 112 113 108 106 97 95 94 93 94 94
114 118 123 121 121 116 98 106 114 117 115 109 107 106 107 106 110 110 111 111 111 112 112 107 109 110 102 97 97 95 94 97 98 99 98 97 101 99 100 100 101 103 105 102
105 105 103 103 105 96 83 91 102 107 96 101 101 101 101 101 99 97 99 101 102 105 105 101 98 99 97 95 96 98 101 104 105 104 105 108 109 112 111 112 112 113 113 114
106 110 110 112 111 98 94 102 107 109 107 106 105 106 105 106 107 106 103 102 101 99 99 99 98 100 107 109 106 106 108 109 110 113 114 112 111 116 117 122 121 123 123 122
115 114 115 116 112 111 104 105 109 114 114 115 115 116 112 108 106 105 104 104 103 105 105 107 108 108 109 111 113 115 116 116 114 116 121 123 121 124 122 126 130 132 133 130
120 120 119 118 116 118 114 111 112 115 118 118 117 115 114 109 109 109 110 108 111 113 113 114 113 114 116 117 120 121 123 124 124 125 124 125 126 128 128 128 130 131 131 131
127 126 123 125 122 125 124 121 120 121 121 120 119 117 118 121 121 121 120 120 120 123 126 127 128 129 130 130 130 131 130 128 127 126 125 123 123 122 122 122 122 122 123 123
132 133 136 135 133 134 134 136 136 131 131 132 132 130 130 132 133 134 135 133 130 127 128 128 129 129 130 130 129 127 125 122 121 119 118 117 117 117 115 115 116 116 118 119

GFSCGP_250_spd_069.txt.gz
Wind_Speed
76 70 72 73 68 65 62 64 57 53 53 51 44 43 46 43 41 38 41 41 41 38 38 43 44 41 40 39 38 38 37 37 39 34 32 32 32 35 38 39 40 42 43 44
76 75 77 75 68 66 62 60 61 57 56 54 54 52 48 41 45 45 47 39 44 45 42 45 49 46 47 45 44 41 38 38 41 40 40 38 33 33 38 41 42 42 42 44
80 81 78 76 76 76 70 68 64 61 58 57 53 49 48 50 50 55 51 49 49 53 53 58 57 52 51 50 47 45 45 43 43 43 44 43 42 44 44 43 44 45 46 47
82 79 81 79 77 72 75 77 75 72 62 58 57 55 59 59 63 56 61 59 59 55 59 62 54 54 55 53 51 53 52 50 49 49 50 50 47 49 49 49 47 48 49 52
86 83 84 83 82 83 75 69 69 65 62 64 62 61 65 66 62 65 62 67 67 62 58 61 57 57 56 55 54 54 54 56 54 54 54 54 54 55 54 55 53 52 53 53
96 90 89 86 83 80 80 79 77 71 67 66 67 63 61 65 71 72 73 72 67 63 62 61 60 62 60 62 60 58 57 57 58 58 59 60 59 59 59 60 62 61 61 61
103 98 98 95 90 84 84 86 82 81 77 70 73 70 62 72 80 81 76 70 68 66 68 66 66 64 67 67 65 62 61 61 60 61 62 63 64 64 64 65 66 67 67 66
102 98 96 95 92 90 90 91 89 84 83 83 82 78 79 79 79 80 78 72 70 72 71 71 72 71 71 72 69 67 65 65 66 67 68 68 69 70 70 71 71 74 75 74
97 95 94 94 96 97 97 97 97 95 94 91 86 84 81 80 76 80 79 79 79 74 75 77 77 75 76 75 73 72 71 70 71 73 73 74 74 74 76 77 78 80 81 81
105 106 101 102 103 102 99 96 97 96 92 89 88 83 81 83 81 77 77 81 82 81 83 81 80 81 81 79 77 76 75 75 76 77 77 79 79 80 81 83 84 85 85 87
100 103 104 102 101 100 99 98 98 96 94 93 88 86 84 85 84 81 81 80 83 86 86 85 85 87 87 86 83 81 81 81 83 81 82 82 84 85 85 86 88 89 91 92
103 104 103 101 102 103 102 102 100 99 94 92 87 82 81 83 84 85 83 80 81 84 87 88 88 90 91 91 90 88 86 88 87 87 85 85 86 86 88 90 91 93 96 95
105 104 102 100 99 97 96 95 96 94 95 91 93 87 91 92 90 89 87 89 90 90 90 92 94 94 95 93 92 92 91 90 89 88 87 88 90 91 93 94 96 97 95 96
110 108 107 104 103 104 105 103 104 105 106 98 98 97 97 96 95 93 92 93 94 93 92 91 89 89 89 90 91 91 91 91 91 93 94 95 95 95 95 95 96 97 99 100
112 108 108 109 110 111 110 110 110 109 106 106 97 100 100 100 102 100 97 95 94 96 94 93 93 94 94 95 95 96 96 97 98 99 99 99 99 99 100 101 103 105 107 109
115 115 115 114 114 113 111 110 109 108 108 106 103 101 102 105 105 103 103 101 100 101 102 102 102 104 105 105 106 106 105 104 103 104 105 105 105 106 109 110 111 114 116 119
112 114 114 115 116 117 117 109 111 113 113 111 109 104 108 108 107 106 106 106 106 104 105 105 104 103 103 105 105 106 108 109 110 111 113 112 113 114 117 118 119 120 123 126
115 113 112 114 112 115 105 104 106 108 110 112 107 106 106 106 108 109 107 106 106 107 108 108 111 112 111 111 110 109 113 115 115 116 117 118 119 119 122 123 122 121 121 111
127 127 126 127 125 122 117 115 115 117 116 116 113 114 114 113 115 117 117 118 118 117 116 117 115 115 117 118 118 119 119 117 120 120 123 124 122 120 119 120 116 110 104 103
118 122 125 128 129 128 123 123 121 122 124 125 130 129 126 124 125 126 126 123 120 120 118 116 117 119 120 121 118 119 120 120 117 117 118 117 113 112 111 109 103 107 108 109
107 107 110 114 118 116 112 115 119 122 112 120 123 121 121 122 123 122 120 118 119 120 119 117 112 105 102 102 102 104 107 108 108 108 109 110 108 105 108 110 113 114 116 118
100 101 102 103 104 98 95 108 112 115 116 115 117 119 117 114 109 106 104 103 103 104 102 100 99 100 103 105 103 103 106 107 110 110 109 108 109 113 115 116 116 121 127 129
106 105 104 106 103 101 94 98 101 101 101 102 102 102 102 101 102 103 103 104 104 105 106 107 106 106 110 113 111 109 108 107 109 111 113 116 119 122 124 124 126 126 129 130
108 105 105 104 103 105 102 104 106 106 105 106 107 105 105 106 107 108 110 112 113 113 114 114 115 115 115 119 119 117 114 115 117 118 120 123 125 127 129 130 130 131 131 132
112 111 107 109 107 109 111 112 112 112 112 110 110 111 114 116 116 116 114 116 119 119 117 115 116 117 118 120 119 121 122 123 123 125 127 129 131 132 133 133 133 134 135 134
118 118 121 120 120 117 116 116 115 115 115 116 116 116 116 116 116 118 118 119 118 118 120 121 123 125 127 129 130 133 132 133 134 133 134 135 135 133 132 129 126 124 122 121

GFSCGP_250_spd_075.txt.gz
Wind_Speed
75 74 62 72 71 61 60 52 55 50 44 44 40 39 41 46 42 36 34 37 31 33 36 43 43 39 42 40 40 44 45 47 45 40 40 40 40 41 42 42 43 42 39 30
78 73 79 76 73 66 61 54 60 58 56 49 49 46 46 45 44 42 41 40 40 42 40 44 45 41 46 46 46 46 53 49 47 44 43 43 45 46 46 45 46 47 45 47
81 81 74 79 73 71 63 57 59 49 52 53 52 54 50 50 48 45 48 45 46 44 41 41 46 46 46 52 48 52 55 53 50 49 48 48 49 53 52 52 52 52 54 53
94 95 81 77 78 72 72 68 66 58 53 50 50 50 51 50 49 47 45 47 46 46 44 45 48 48 52 53 52 56 58 60 56 57 56 54 52 56 57 57 56 56 56 59
86 91 85 80 81 82 74 70 76 71 65 63 58 57 56 56 53 51 48 50 53 54 52 54 51 53 57 56 60 61 65 64 63 65 61 59 59 59 60 60 63 63 63 61
87 87 86 88 88 82 80 77 77 74 73 64 68 64 65 65 63 59 59 62 62 63 56 56 55 56 57 60 66 65 68 66 68 68 65 65 65 65 65 64 65 66 67 66
95 93 86 82 82 84 77 81 81 79 72 62 66 66 63 63 64 63 64 65 63 64 64 64 67 62 68 69 68 71 72 73 73 72 71 70 70 68 69 69 69 72 73 74
93 88 92 89 94 79 86 89 77 80 78 72 71 67 64 67 69 72 69 65 66 68 73 72 73 76 70 73 73 76 75 78 76 77 76 75 75 74 73 74 74 76 78 79
95 96 97 93 94 93 86 87 86 81 83 77 77 72 73 72 69 73 76 74 76 74 74 74 82 77 74 75 79 79 80 81 82 81 81 80 79 78 80 77 78 79 80 81
109 108 100 101 102 100 95 95 97 93 92 88 86 84 84 80 82 82 83 85 86 86 87 88 87 82 85 81 82 83 85 86 87 86 87 86 85 84 83 80 81 81 82 83
113 112 112 111 104 100 101 98 98 98 97 92 88 85 86 89 88 85 86 86 87 90 91 93 89 89 91 89 86 86 88 90 90 90 89 88 87 88 88 87 86 87 88 87
109 115 115 113 112 110 109 109 105 100 96 96 96 93 90 88 90 89 87 90 92 93 97 97 91 96 96 92 92 92 93 95 95 95 93 91 90 93 93 93 93 93 92 92
107 113 110 109 112 113 114 110 108 104 101 99 101 94 94 92 94 95 95 98 100 98 97 93 93 96 95 96 97 98 99 97 96 94 93 93 95 97 98 97 97 97 96 95
110 109 112 116 111 108 108 108 105 106 107 102 99 96 95 98 97 98 101 102 100 102 98 94 97 97 98 100 100 100 99 97 96 96 97 99 100 101 101 100 101 101 101 102
105 108 109 104 102 103 102 104 105 107 104 106 98 103 100 98 103 105 103 103 104 100 101 102 102 102 101 100 100 99 99 99 99 100 102 105 106 105 104 105 107 107 108 108
113 105 107 114 114 109 105 105 107 105 107 105 100 101 101 105 105 106 109 106 108 104 103 103 102 102 103 103 102 103 103 104 104 106 108 108 106 107 108 109 108 108 108 108
112 109 106 106 104 108 116 110 116 107 104 102 104 94 104 107 110 108 107 105 104 105 105 104 104 104 104 104 105 105 108 109 111 112 112 112 111 109 107 106 106 106 108 112
111 113 112 112 109 112 97 98 100 103 104 105 102 100 104 105 107 107 106 105 105 104 105 108 109 108 108 108 110 112 113 114 115 115 113 110 108 106 107 110 114 119 124 129
111 110 111 114 115 113 107 99 99 100 99 103 102 101 103 105 107 107 107 108 108 108 109 110 111 111 112 114 115 117 119 119 116 111 111 112 113 116 120 126 133 133 130 128
111 114 115 115 116 115 107 107 108 107 105 103 103 103 105 106 108 110 111 111 111 112 113 115 117 118 119 119 120 120 119 118 117 119 122 125 128 132 136 136 137 134 132 132
112 113 113 114 117 116 111 110 112 112 106 113 113 113 113 113 113 113 114 115 115 116 116 116 118 119 120 120 119 120 123 123 125 128 131 135 136 136 134 131 131 133 128 126
119 116 114 112 113 111 107 110 111 113 115 116 116 117 116 114 113 113 112 115 116 116 117 117 119 121 124 123 125 128 130 132 136 138 140 143 136 132 131 132 128 127 126 126
128 128 126 125 122 117 113 111 110 109 111 113 114 114 112 112 114 114 115 118 121 123 125 125 127 130 133 135 137 135 136 138 139 139 135 129 128 128 129 131 132 130 129 130
119 121 126 131 134 129 127 128 124 121 123 123 123 121 122 122 122 124 125 126 129 131 133 134 135 133 127 130 131 130 125 125 125 126 129 131 132 134 135 135 136 135 134 135
112 115 115 118 118 120 119 119 118 123 126 123 121 124 128 129 128 130 129 130 133 134 135 133 128 122 122 124 126 130 134 133 132 132 134 135 136 135 135 135 136 140 141 141
100 103 108 110 114 117 120 123 123 122 123 120 115 118 121 122 123 124 129 132 131 125 122 123 126 128 130 131 134 137 138 138 136 135 136 136 135 133 134 134 135 142 144 143

GFSCGP_250_spd_078.txt.gz
Wind_Speed
78 70 72 73 68 74 70 65 60 56 52 43 57 44 49 40 41 36 39 41 37 29 30 29 32 34 33 33 36 40 38 41 43 44 44 42 42 44 44 40 41 44 44 44
88 73 78 73 68 68 71 67 58 58 57 57 48 45 42 44 43 44 41 42 40 34 36 39 37 36 33 34 38 40 42 45 47 48 51 49 47 46 47 45 46 46 49 49
89 86 82 76 66 64 59 69 65 58 65 55 61 51 48 44 42 41 39 42 41 39 38 38 39 38 36 41 42 45 44 47 48 50 53 55 55 52 53 49 51 51 51 51
97 95 93 84 78 71 67 69 67 66 63 60 57 55 55 53 50 48 45 43 43 42 44 42 39 39 44 44 48 50 50 49 49 54 57 57 59 58 57 53 54 55 56 57
94 91 94 85 87 86 78 70 65 73 69 67 59 57 50 47 48 47 45 48 48 45 44 44 46 49 50 53 53 57 54 52 56 62 58 61 66 65 63 61 62 61 60 58
101 97 91 85 86 80 78 81 76 71 76 68 63 59 58 52 49 50 50 49 49 51 55 53 54 57 57 58 61 59 58 60 65 60 64 68 71 69 68 67 67 68 67 66
98 97 95 95 96 89 85 84 75 73 76 69 72 68 67 64 63 61 61 60 59 60 57 57 58 61 65 58 65 65 66 64 69 74 73 73 73 73 73 74 72 74 74 73
102 93 96 96 93 93 91 88 86 82 75 72 77 72 73 71 70 66 61 62 60 61 60 60 62 61 62 68 69 73 73 74 77 80 77 76 77 76 77 77 78 79 80 79
93 98 93 92 96 95 91 89 92 91 92 80 74 69 69 72 74 77 71 68 66 69 70 68 68 69 72 76 78 77 77 79 82 84 80 80 80 79 80 80 83 84 84 85
98 98 96 97 99 98 93 92 91 89 90 87 80 82 72 69 71 74 74 75 75 71 71 77 79 79 80 79 81 80 84 85 86 85 83 85 85 85 84 86 88 88 88 89
105 104 99 98 98 97 99 97 89 89 83 81 79 79 79 82 84 82 83 83 83 83 85 86 84 85 84 87 90 87 89 86 89 92 88 92 88 89 89 91 91 91 92 92
112 111 109 105 103 103 103 102 103 99 94 95 90 87 89 88 84 86 87 91 92 93 91 90 91 93 92 92 97 95 91 92 98 97 97 96 95 95 96 95 98 97 96 96
114 113 114 113 112 112 108 103 99 93 93 94 94 85 88 92 93 92 92 96 96 96 96 94 95 97 98 101 99 96 96 102 103 102 100 100 100 99 101 99 100 100 101 100
119 121 119 117 112 114 112 107 107 108 108 103 102 98 97 98 100 101 100 98 99 98 100 101 103 102 105 103 103 101 104 107 104 103 101 102 104 103 102 101 101 103 103 104
118 116 114 115 113 114 113 111 110 112 109 110 100 106 104 103 105 107 107 107 107 108 108 107 107 110 110 108 104 105 109 105 105 105 106 107 106 104 103 104 106 107 108 110
110 116 120 119 116 115 115 116 118 116 116 116 112 113 104 105 106 108 112 113 113 114 110 108 111 110 110 109 110 110 108 110 108 108 107 107 107 107 108 108 108 111 113 114
105 103 104 108 111 117 122 114 117 119 119 115 113 101 107 112 112 111 112 112 107 109 107 113 113 111 112 111 112 111 111 111 111 109 110 110 110 110 111 112 114 115 117 120
119 122 120 116 114 120 104 105 105 107 108 109 107 107 109 111 114 114 110 112 112 112 113 110 111 112 114 112 112 112 112 111 111 111 111 111 112 113 116 118 120 121 123 121
110 111 114 119 120 124 120 109 108 107 105 108 108 108 107 106 108 108 108 110 110 111 111 111 111 112 112 112 112 112 111 112 112 113 114 116 118 120 121 123 124 124 123 126
110 109 111 111 110 107 93 97 101 106 108 99 104 105 106 108 111 108 111 112 113 113 112 115 114 113 113 113 114 114 113 114 116 117 120 122 122 123 124 125 128 127 128 131
111 113 114 114 116 111 104 103 107 109 96 103 104 105 106 107 107 110 111 111 110 111 112 112 112 112 113 115 117 119 120 121 122 123 126 123 124 127 128 127 132 136 138 140
109 112 114 114 114 111 106 107 107 105 109 110 112 112 113 113 112 113 113 112 112 112 112 114 115 117 118 119 118 120 122 124 125 126 126 129 130 132 135 136 136 138 142 145
110 110 112 112 111 109 108 106 105 101 103 104 107 107 108 110 112 111 112 112 113 114 114 115 117 120 121 122 124 126 126 125 128 130 132 134 137 138 139 142 146 147 151 146
119 116 115 113 111 111 110 112 113 115 113 110 106 104 106 110 114 115 115 114 115 117 119 122 125 128 129 128 129 130 131 134 136 139 142 142 143 143 145 147 144 144 145 144
132 126 122 120 115 116 117 119 119 117 116 114 115 115 114 113 114 115 117 119 122 123 124 126 128 132 134 136 136 136 139 142 143 143 145 144 143 142 145 145 141 141 143 146
122 124 130 130 128 128 126 127 126 125 125 125 124 124 126 127 127 128 129 131 132 132 131 132 133 134 136 139 142 142 139 137 137 135 135 137 138 138 140 139 139 142 143 144

GFSCGP_250_spd_081.txt.gz
Wind_Speed
86 85 84 80 78 68 77 71 65 59 57 54 54 48 46 43 49 43 44 42 38 37 36 37 34 31 29 29 30 30 29 33 37 37 43 42 43 43 42 42 47 47 46 42
99 84 86 77 89 76 78 76 68 67 59 55 54 51 46 44 46 47 45 44 37 37 41 42 42 37 33 34 36 37 35 38 36 41 42 43 42 47 46 48 50 53 51 48
94 100 89 86 82 79 80 79 67 65 67 60 59 56 57 55 45 43 40 41 40 39 42 40 40 38 39 41 39 36 42 40 44 47 45 43 45 47 45 53 56 54 54 55
101 99 98 92 82 76 81 78 75 72 70 68 64 64 52 53 57 50 48 43 43 40 41 44 41 41 44 42 40 43 44 46 48 51 51 50 50 53 53 62 63 57 60 61
91 90 88 89 88 91 78 80 71 72 69 70 66 64 57 56 57 58 57 52 52 52 51 48 44 49 51 47 45 47 53 54 52 46 56 56 60 58 60 62 61 62 63 64
96 96 89 92 89 86 78 81 75 77 73 72 69 67 68 57 62 59 56 53 56 53 53 47 49 46 48 52 54 57 58 55 51 56 60 61 63 72 69 73 69 67 67 67
107 100 96 91 92 88 84 75 76 76 73 68 62 65 66 62 63 59 58 58 58 55 53 52 52 57 58 58 61 60 56 55 61 66 68 69 73 76 78 80 75 74 74 77
103 94 90 98 97 96 95 94 86 77 75 74 77 65 63 63 64 67 63 63 62 65 65 61 59 60 62 63 62 62 62 67 66 72 74 77 81 80 84 83 81 82 81 82
106 105 100 102 96 93 93 94 95 96 89 91 87 80 73 73 68 70 72 68 68 70 70 74 70 66 66 67 69 71 72 69 74 80 81 83 85 87 90 87 86 87 91 89
111 107 105 106 104 99 95 95 95 93 90 92 87 84 76 78 82 73 70 70 72 73 70 74 76 75 75 75 75 75 72 78 83 85 86 88 92 94 95 92 91 93 97 94
109 109 105 107 105 98 100 102 101 98 90 87 86 84 84 85 87 81 80 84 86 76 74 75 84 83 78 80 82 85 85 87 90 90 92 92 100 100 97 97 96 96 101 100
113 116 114 111 111 104 97 98 99 97 95 98 94 89 87 89 87 90 85 85 88 86 85 85 83 90 87 89 84 84 89 91 89 93 98 103 103 101 101 101 99 100 104 103
111 114 115 114 108 111 109 106 104 102 101 101 97 86 88 81 81 83 86 85 85 87 89 89 90 91 96 91 90 95 95 98 98 103 107 107 104 106 106 107 107 106 108 106
119 117 115 112 105 106 104 103 106 106 105 95 92 90 90 88 89 90 92 91 90 92 95 98 98 96 95 98 99 102 103 103 106 107 108 108 109 110 111 109 109 110 109 109
121 122 120 115 113 110 107 109 112 108 100 105 94 101 96 95 98 102 102 103 104 105 107 107 103 100 102 104 107 110 110 110 111 114 112 112 111 112 111 112 112 113 112 111
114 116 121 123 120 119 116 111 108 109 108 107 98 101 100 101 106 106 106 106 108 110 109 113 105 108 108 110 114 114 115 117 117 116 116 116 114 113 113 115 113 114 115 116
116 114 114 116 123 124 125 116 116 118 117 114 111 103 109 108 109 111 114 114 113 110 109 110 109 112 117 118 119 120 116 116 113 117 116 115 116 118 117 116 116 117 118 120
118 117 119 117 121 128 114 119 120 120 117 114 111 107 108 111 114 117 114 110 111 114 117 117 119 120 121 119 116 115 115 116 115 114 115 116 118 117 117 119 120 120 121 121
122 122 123 118 119 117 111 107 108 112 113 117 116 114 116 115 115 114 112 114 117 119 121 123 125 123 118 114 115 116 116 114 115 117 119 118 119 119 124 123 123 126 125 125
126 127 128 132 135 133 111 115 112 116 115 106 108 110 111 114 116 112 118 120 121 120 118 115 113 113 114 116 116 117 117 118 119 119 120 122 123 123 123 125 124 125 126 125
117 125 130 124 126 125 108 113 120 125 109 106 113 116 117 117 117 115 113 115 114 113 114 114 115 117 118 119 120 120 119 122 122 121 122 124 125 125 125 126 124 124 129 130
113 115 115 111 114 107 96 103 108 105 105 105 109 112 113 116 115 115 115 117 117 117 118 119 120 121 122 122 121 121 122 122 123 124 123 122 124 125 124 125 128 131 134 138
109 111 112 115 112 105 106 108 111 110 108 106 110 112 114 112 110 111 113 114 116 118 119 120 120 120 120 121 121 120 120 120 118 118 122 124 124 127 130 133 136 141 143 145
111 111 111 113 113 113 112 112 113 114 115 112 111 112 112 113 115 114 115 115 117 118 118 116 116 118 118 118 118 119 120 122 125 127 128 132 135 138 141 143 145 149 154 159
116 111 109 110 108 109 111 114 117 118 118 118 117 118 118 118 117 118 120 122 120 118 118 120 119 119 120 122 123 125 127 129 132 135 137 140 142 146 148 152 155 155 152 154
122 121 120 116 115 114 111 114 115 115 117 120 121 119 116 113 114 116 116 116 117 118 118 118 122 124 125 127 129 132 135 138 142 144 147 150 153 155 157 154 148 145 142 141

GFSCGP_250_spd_084.txt.gz
Wind_Speed
87 86 89 85 84 78 70 60 62 69 69 65 61 59 52 45 37 36 40 36 35 41 41 40 35 31 26 32 33 32 30 32 35 33 35 35 36 40 40 37 35 42 45 48
100 85 88 96 90 84 79 75 67 64 62 59 55 51 51 56 45 43 39 41 41 41 44 43 39 32 33 36 38 34 33 37 38 37 40 41 42 43 43 46 43 45 51 52
100 96 101 98 95 95 85 83 69 71 65 61 59 55 52 54 52 48 46 44 38 43 46 46 37 36 39 38 35 37 37 41 41 45 42 48 47 47 51 50 50 48 55 60
106 103 103 99 91 95 91 85 79 73 74 71 65 57 53 51 50 51 48 44 50 48 42 43 43 44 42 38 41 38 40 45 45 45 50 52 51 52 55 58 57 55 60 65
109 105 94 93 96 98 95 92 84 79 69 71 77 60 55 58 54 53 52 46 49 53 51 43 42 42 42 49 48 44 47 45 45 47 49 54 53 57 62 62 63 69 68 72
107 108 104 93 94 88 93 95 86 87 79 71 74 72 59 56 63 61 60 58 53 53 61 59 54 54 50 51 53 57 58 50 49 52 54 55 56 63 67 68 69 75 75 79
114 112 109 110 103 93 83 92 97 93 84 74 74 70 66 63 66 63 59 60 64 58 56 62 66 62 60 60 59 55 52 58 62 61 57 58 66 70 73 74 75 78 79 84
116 110 110 108 104 94 92 89 85 91 80 71 78 76 73 68 68 67 63 66 67 68 69 61 60 60 61 56 56 60 63 63 66 63 62 69 70 73 75 79 78 82 83 89
113 109 107 107 104 106 103 102 95 96 90 86 86 70 76 68 67 67 67 66 66 61 62 62 65 61 65 66 67 70 71 72 71 74 75 78 76 79 86 82 84 90 92 93
108 106 104 105 100 100 100 101 100 98 94 92 85 84 81 73 72 74 74 73 70 66 68 69 67 66 68 70 67 68 70 74 75 77 80 79 81 86 86 86 90 95 99 100
114 112 108 104 104 97 93 91 88 88 91 90 87 79 71 71 74 78 77 78 80 82 84 78 80 78 78 77 72 74 75 76 80 83 85 86 90 92 91 92 96 100 104 107
115 113 112 107 106 105 97 91 92 92 90 88 89 84 85 87 91 91 90 90 87 89 86 83 82 85 84 85 83 83 83 88 87 88 93 93 97 96 98 96 102 107 109 111
117 115 115 113 108 107 107 100 103 100 93 89 87 82 83 86 89 87 89 91 89 87 85 87 88 84 86 88 86 85 89 90 91 92 95 97 103 100 101 106 108 110 114 111
120 118 115 112 107 108 108 103 104 106 107 95 92 89 94 90 92 93 95 95 93 90 91 89 86 85 86 88 89 91 97 96 97 99 98 104 106 106 109 109 113 115 117 116
128 122 118 116 116 115 111 110 112 111 102 104 96 98 96 92 92 95 95 91 91 92 93 90 90 91 94 97 103 102 99 100 103 102 107 108 109 110 112 114 117 121 118 119
124 124 124 122 123 119 118 120 118 115 109 108 101 98 97 94 93 94 94 97 97 94 92 95 97 101 102 109 108 105 104 105 107 110 111 110 111 114 115 119 122 122 119 119
118 115 119 125 128 127 122 115 116 115 112 102 98 91 101 102 103 101 104 104 103 104 110 109 115 112 112 110 107 107 109 110 112 113 113 113 117 118 122 124 127 121 120 122
122 121 124 128 130 137 124 123 120 117 116 116 109 104 108 108 109 112 113 116 117 118 117 115 114 111 110 109 110 112 112 117 118 117 117 118 121 125 126 126 122 121 123 124
120 126 120 124 127 127 122 117 118 121 118 122 119 116 119 120 118 117 116 113 114 114 113 112 112 115 116 114 115 117 121 121 120 119 120 124 124 128 127 125 125 125 127 128
120 119 119 121 124 123 104 114 116 121 119 113 114 112 115 119 122 112 116 118 120 117 117 119 119 118 119 121 123 123 123 121 121 122 124 127 129 128 126 128 127 131 132 132
115 115 116 118 124 118 110 111 116 121 105 106 111 114 118 119 118 118 119 118 117 118 119 118 119 118 119 120 122 121 122 124 125 129 129 128 128 129 131 132 134 134 134 133
117 116 112 117 123 119 105 112 113 109 106 108 111 113 114 113 113 114 114 115 118 121 122 121 121 121 121 121 123 127 128 128 128 128 130 130 131 132 132 131 133 134 131 128
115 115 112 117 113 107 109 115 119 118 115 112 116 116 117 118 121 122 120 119 121 122 123 123 124 124 126 126 127 126 126 130 133 129 130 134 133 132 135 132 130 130 132 133
113 109 111 114 111 108 108 112 118 116 114 112 112 112 114 117 118 119 121 122 119 121 123 122 123 126 128 130 130 130 129 128 132 132 133 133 133 134 130 130 133 138 138 141
115 114 112 112 109 107 108 110 113 116 119 121 121 119 119 119 119 120 121 119 118 120 123 124 123 124 126 125 125 127 128 130 130 131 131 133 132 132 134 135 139 142 146 149
115 113 114 116 120 117 114 114 115 115 114 113 112 111 113 114 116 116 115 117 119 119 121 122 121 122 124 126 125 125 127 127 129 131 131 134 134 135 138 141 145 150 153 157

GFSCGP_250_spd_087.txt.gz
Wind_Speed
95 96 101 88 84 83 80 79 71 70 64 63 59 58 55 45 49 36 35 33 31 34 26 27 33 33 35 36 29 27 29 32 31 31 31 36 39 42 43 43 46 50 48 48
99 91 99 99 91 84 80 81 79 75 74 71 62 65 57 50 50 49 35 34 34 34 34 37 35 36 37 38 33 30 33 30 31 34 36 39 44 48 46 45 48 50 55 59
107 100 96 90 92 95 83 75 75 74 75 64 62 58 56 57 51 49 49 46 46 38 42 39 39 38 35 39 37 34 34 33 35 37 38 45 48 49 46 47 45 49 57 61
110 107 99 92 84 90 87 87 78 79 75 75 70 52 58 61 61 58 46 50 51 50 46 44 45 42 42 40 41 42 37 36 42 40 41 48 46 45 44 49 51 53 61 61
109 105 106 101 89 88 97 92 90 84 79 73 66 56 60 65 57 51 51 49 47 49 52 45 49 52 50 44 43 43 38 42 46 49 50 51 51 47 56 56 55 56 62 69
122 107 105 95 103 103 100 93 93 93 82 77 64 57 57 57 52 54 53 53 51 51 51 52 51 48 46 50 51 49 53 53 52 55 54 52 53 55 60 62 60 62 67 74
120 116 113 108 93 95 99 101 97 99 88 78 76 68 57 58 59 57 54 51 54 59 59 55 55 56 53 53 53 55 58 59 58 55 55 55 59 65 63 67 66 72 75 80
116 116 113 115 116 104 94 91 85 87 80 79 79 73 72 68 62 72 70 71 65 63 62 66 65 59 56 59 59 62 65 61 58 58 61 68 68 72 71 69 72 80 83 82
113 117 115 114 115 108 102 102 96 92 89 92 88 91 79 72 74 71 72 72 71 71 68 68 69 66 61 62 64 62 58 58 57 60 65 69 72 73 77 79 81 85 85 84
116 113 112 115 115 110 103 100 98 97 89 85 85 87 81 82 82 81 82 76 76 76 74 72 72 70 69 68 62 61 64 72 73 73 75 76 76 76 80 88 89 89 90 93
120 117 116 119 117 112 106 106 104 97 90 84 83 83 80 81 85 87 84 80 78 76 74 76 77 73 69 72 73 72 77 78 79 78 80 83 83 84 87 91 91 92 94 94
119 123 126 126 125 115 109 110 113 108 98 91 85 83 79 84 84 84 85 91 91 88 90 87 80 72 72 77 79 83 82 83 80 80 80 81 83 89 92 93 95 101 97 99
120 120 123 122 117 115 115 114 115 107 103 100 99 90 89 91 95 95 96 97 96 95 86 77 76 78 83 84 82 85 85 86 86 87 89 90 92 96 95 99 105 101 102 106
123 124 124 119 115 116 112 109 109 107 109 104 101 95 92 94 97 97 97 96 95 91 89 87 87 87 86 85 85 88 87 84 86 88 92 94 97 102 105 106 107 108 107 110
118 120 123 121 122 121 119 119 120 118 111 112 101 99 95 92 95 93 90 89 87 88 92 92 90 89 91 91 91 91 91 89 91 97 102 105 111 109 107 110 109 109 113 117
121 121 122 127 126 126 126 128 126 120 115 107 94 90 92 88 89 89 92 94 95 92 91 92 95 92 92 94 93 93 93 97 103 109 112 109 111 111 111 113 111 113 117 122
124 120 125 123 126 125 126 117 120 116 111 98 99 96 98 99 95 93 94 99 102 103 101 100 100 96 95 96 103 105 106 110 113 113 114 113 113 113 113 115 116 119 124 128
126 120 120 128 131 129 117 121 115 113 110 106 101 100 104 106 107 106 102 100 94 94 93 94 95 100 104 107 112 113 114 115 112 115 116 115 116 115 117 120 121 125 129 131
129 124 121 122 122 124 123 118 120 121 113 113 110 107 107 106 106 105 103 100 99 103 103 106 113 116 118 118 120 116 116 115 119 118 115 118 118 120 123 123 126 129 132 131
112 120 124 123 125 125 109 119 121 123 115 116 116 115 114 115 116 111 115 116 118 122 123 125 123 123 121 123 116 120 118 120 122 117 120 121 122 125 128 130 130 130 130 134
110 112 115 111 115 115 110 115 122 130 110 115 119 121 125 127 127 125 127 128 129 128 128 128 124 121 117 119 122 121 121 123 121 123 123 123 125 128 129 132 133 133 134 135
110 111 116 116 115 109 105 115 121 115 115 117 122 126 128 130 129 127 125 126 123 121 120 120 117 119 121 120 120 121 124 123 123 123 124 126 129 131 134 134 137 136 137 136
114 113 113 111 100 101 109 111 117 117 116 115 117 118 120 120 118 118 117 117 117 113 113 116 117 117 118 120 123 125 124 124 125 128 128 129 133 135 139 137 138 138 137 136
117 116 111 109 106 101 107 115 119 116 117 116 115 113 112 112 114 113 114 114 116 117 118 121 123 125 125 127 126 125 126 127 129 132 134 137 138 136 135 134 134 136 138 139
110 108 107 109 109 108 109 106 106 115 120 119 120 115 116 117 118 117 118 119 121 123 122 120 122 124 123 125 127 128 130 132 135 136 136 134 133 134 133 132 133 136 136 139
110 111 111 108 107 106 109 111 113 114 117 120 120 122 121 121 120 118 120 123 123 122 122 120 121 124 124 125 128 129 133 132 132 130 127 128 126 129 132 134 132 132 134 139

GFSCGP_250_spd_090.txt.gz
Wind_Speed
103 104 94 96 94 88 82 79 79 77 78 68 61 60 57 55 42 44 47 38 41 44 37 30 33 27 29 30 32 32 31 30 26 31 27 26 29 32 35 39 44 45 41 43
107 90 90 93 96 94 91 92 86 82 86 77 70 60 58 56 51 49 50 36 45 46 40 31 35 34 31 34 34 34 33 35 31 32 32 29 34 33 36 39 43 43 42 47
109 96 98 101 99 94 92 90 90 89 87 85 78 72 57 57 52 51 52 40 50 45 39 35 37 33 33 34 37 37 38 37 39 40 39 36 37 38 42 45 50 47 45 48
111 108 105 108 103 98 97 88 86 86 87 87 86 76 61 61 56 52 50 52 52 53 47 45 41 38 38 40 41 41 41 43 44 43 45 42 43 47 47 48 49 50 50 53
117 112 114 107 98 100 100 95 92 90 86 83 78 81 74 68 54 57 57 58 53 58 54 53 50 49 45 41 41 43 45 47 45 44 44 45 52 52 54 56 51 51 52 60
111 117 109 104 105 102 99 101 103 100 96 96 86 79 74 66 62 62 59 54 57 62 59 50 50 46 45 42 45 49 50 48 47 46 49 53 56 62 59 58 56 54 62 65
124 117 115 113 110 105 103 101 98 95 94 84 87 84 77 72 65 65 57 54 61 64 60 57 57 54 50 49 51 47 47 50 50 53 55 58 58 57 57 59 61 66 70 68
118 118 113 108 109 110 108 105 97 90 83 76 82 78 68 72 67 70 65 57 61 68 72 64 55 51 51 52 55 54 58 63 62 63 61 62 64 55 64 64 71 73 77 75
116 120 114 111 112 113 106 99 98 99 94 90 91 83 75 73 68 70 71 70 61 60 64 63 60 62 59 61 61 61 60 61 64 65 66 62 62 67 69 73 76 76 73 79
125 126 121 119 116 113 106 98 98 96 92 87 84 85 76 78 75 76 77 79 78 79 73 68 69 69 68 66 65 66 67 69 70 70 69 70 71 75 76 80 80 78 85 87
122 122 122 122 122 117 111 107 99 93 91 87 86 85 84 79 79 84 88 89 87 84 82 75 75 74 72 73 69 70 70 69 71 74 74 72 77 80 81 80 82 85 90 92
127 124 123 122 124 125 119 113 109 105 98 97 96 92 87 83 83 89 96 93 91 89 85 83 82 84 84 81 80 75 80 84 88 82 81 82 83 81 81 83 85 93 96 98
135 125 122 129 129 126 118 112 111 105 108 98 88 84 88 86 85 89 90 95 94 90 91 85 81 78 81 81 81 83 86 90 93 88 84 84 83 84 86 89 93 96 106 101
123 129 124 125 125 124 120 117 111 110 107 95 93 91 95 93 94 94 95 95 91 88 88 84 82 83 82 84 89 91 92 92 92 88 92 90 89 90 92 96 98 103 111 109
125 130 121 117 125 131 128 124 123 123 111 112 104 102 102 101 99 99 94 90 91 89 85 89 89 89 89 93 94 91 90 91 91 93 92 95 93 96 102 106 108 110 112 110
129 123 112 116 121 125 123 123 124 121 120 113 106 101 102 98 96 95 96 97 97 97 97 96 99 98 97 96 98 94 94 93 92 92 95 95 102 108 112 112 114 114 115 115
142 123 120 112 114 120 122 118 119 117 118 109 104 106 108 109 108 103 104 108 108 103 100 103 106 101 100 99 98 97 97 96 97 103 106 112 114 116 115 113 114 117 120 119
137 121 124 121 118 123 116 118 117 114 112 111 108 106 110 114 111 105 105 111 111 106 108 109 107 101 101 104 100 97 96 100 105 108 111 109 113 115 114 115 120 123 118 123
135 123 122 124 120 113 113 115 114 116 117 116 112 115 117 115 112 108 114 115 111 114 112 110 105 102 102 102 103 106 107 110 115 115 115 115 117 116 119 122 122 121 123 130
127 124 127 127 117 104 107 111 118 123 120 117 115 113 113 113 111 104 107 111 111 112 111 108 109 109 110 111 112 112 117 121 119 118 120 120 118 120 124 123 123 124 129 130
114 121 116 123 118 106 107 115 118 122 109 116 116 114 115 116 113 113 119 119 123 123 118 114 116 116 115 115 117 120 120 121 121 122 123 122 123 124 123 125 126 130 131 133
115 116 121 115 113 100 104 108 109 107 113 119 125 127 129 128 128 127 128 129 128 127 126 122 122 119 119 121 123 125 125 124 124 125 125 126 125 125 127 129 131 129 132 133
104 107 105 112 111 110 111 111 113 116 111 112 120 126 130 128 126 125 125 126 127 127 126 127 126 126 126 126 126 126 124 125 125 127 127 125 124 127 128 130 132 132 133 134
99 101 105 104 112 116 119 119 114 108 106 110 111 114 118 118 118 117 122 122 124 124 123 126 128 126 124 123 122 122 122 125 125 123 122 124 127 128 130 131 131 134 135 137
92 96 96 100 104 113 119 119 117 118 118 118 114 112 111 108 109 114 116 116 118 118 118 119 119 118 119 122 123 123 126 124 124 125 127 130 131 132 133 136 139 140 139 140
94 94 96 97 99 102 106 110 111 110 108 110 112 115 118 114 114 115 112 116 119 121 123 122 121 122 122 123 129 126 125 128 128 128 132 136 134 134 133 137 135 134 136 138

GFSCGP_250_spd_093.txt.gz
Wind_Speed
97 94 86 81 86 86 84 75 73 76 75 75 74 76 71 60 64 54 48 40 38 36 34 37 36 38 33 33 29 29 28 34 31 28 32 30 31 31 33 34 36 38 43 45
100 104 91 93 90 91 89 83 76 74 71 74 79 77 79 66 63 59 54 41 40 37 40 37 38 41 41 37 32 29 30 32 37 34 37 38 37 39 39 39 39 44 48 52
101 106 103 96 99 99 96 90 87 85 80 82 78 80 72 69 72 71 63 48 49 38 42 37 39 45 44 38 36 33 33 35 38 40 39 38 39 41 44 46 43 49 52 52
103 110 114 98 100 98 95 90 92 92 93 89 90 80 80 70 65 63 61 61 51 48 47 40 41 49 50 40 41 39 38 39 38 39 38 41 47 47 43 42 49 50 53 51
105 110 117 102 96 100 99 95 90 92 93 95 89 85 80 80 67 61 62 56 56 54 49 49 44 49 51 48 45 43 43 44 44 47 47 47 44 42 43 48 50 56 56 49
111 114 120 101 101 108 107 104 99 101 102 102 90 82 77 76 71 68 63 62 57 58 59 49 48 54 51 55 53 56 47 45 43 44 43 46 45 47 49 56 60 57 60 54
111 112 123 106 109 116 110 106 105 109 108 95 94 93 77 71 77 80 75 69 65 63 57 53 55 58 55 55 65 57 54 54 50 50 49 48 53 60 62 61 60 62 62 62
109 108 122 117 114 117 110 109 108 106 104 94 98 85 78 81 74 82 80 76 70 63 64 66 58 51 64 57 59 58 54 53 54 52 54 59 61 60 61 64 64 64 65 66
111 110 119 127 107 110 110 115 108 108 104 100 97 83 77 80 75 75 80 80 83 77 74 69 71 64 56 65 64 59 61 62 60 60 62 65 67 66 66 66 64 74 78 77
115 115 116 128 114 114 114 111 114 113 107 100 91 81 76 78 73 76 76 74 76 78 76 76 76 69 62 58 62 64 61 65 65 67 66 69 71 70 71 72 77 83 81 79
119 120 116 131 114 114 116 117 117 114 109 102 94 85 85 86 86 88 86 85 90 87 86 81 74 75 76 69 67 66 69 70 72 73 79 81 79 75 74 79 84 86 85 87
121 122 121 121 128 119 122 122 122 119 112 109 102 89 92 89 86 88 87 84 82 81 80 81 75 76 76 79 80 78 79 79 80 81 79 78 82 77 80 87 89 89 89 90
125 120 122 121 133 122 118 125 126 119 115 106 99 85 86 83 85 89 87 87 86 86 88 86 81 81 80 81 87 89 85 82 83 85 85 82 81 83 88 92 92 90 89 89
131 125 122 119 130 126 117 121 123 124 119 107 98 90 90 90 92 93 97 94 95 92 93 91 87 86 86 90 89 86 87 87 86 88 86 85 89 92 95 96 98 92 92 98
125 121 115 119 125 137 128 126 127 124 117 115 103 104 101 96 98 101 100 98 96 94 94 92 92 90 91 86 86 85 89 88 91 89 87 92 96 100 100 99 95 96 99 104
115 117 117 119 128 137 132 125 126 126 125 119 113 106 101 99 102 100 101 102 100 95 94 97 97 93 88 89 92 91 94 93 94 93 96 100 100 105 106 103 102 104 108 109
111 117 123 126 131 138 131 127 126 123 121 112 110 101 104 103 103 101 101 102 100 100 99 98 93 93 96 97 98 101 96 96 98 99 102 103 106 105 105 109 110 108 110 114
110 120 129 133 135 144 127 126 122 123 120 118 113 112 111 108 110 107 106 108 105 104 103 97 98 101 101 101 100 100 98 100 102 103 108 111 110 111 113 114 113 113 116 120
107 120 129 135 134 137 130 124 124 119 118 115 109 112 115 117 116 113 110 112 112 108 108 107 108 106 104 105 105 104 103 101 103 105 111 113 115 115 118 119 120 120 121 125
100 113 125 125 131 130 120 113 118 121 115 104 103 106 111 119 120 110 113 113 112 109 108 108 115 111 113 110 106 106 106 108 111 111 119 123 120 120 120 120 122 123 125 128
89 104 115 119 123 125 123 112 118 115 97 107 106 106 115 118 116 119 126 124 123 122 120 120 118 116 116 113 115 118 119 118 115 120 123 125 124 124 126 127 128 128 130 132
80 92 104 113 115 108 120 110 110 104 105 111 110 110 110 119 120 121 129 132 130 126 121 118 118 120 122 121 121 122 124 124 125 125 125 123 126 126 129 130 131 132 135 136
76 80 92 106 108 111 117 112 104 114 113 109 109 106 108 115 122 125 128 129 126 122 120 118 121 124 124 122 125 127 130 128 125 124 124 127 129 131 133 132 131 133 134 134
74 78 86 96 99 105 107 112 106 103 108 111 114 109 108 109 112 117 120 121 122 122 120 121 122 123 124 126 128 127 125 126 126 128 131 132 133 130 129 131 132 130 130 134
71 74 76 85 91 97 102 107 105 110 107 107 107 112 113 111 111 112 112 112 114 116 117 118 119 122 124 127 127 126 128 129 127 129 130 130 128 126 126 127 128 132 134 131
71 74 76 76 79 83 89 92 102 105 111 115 112 106 104 107 111 112 112 111 110 108 110 112 114 116 118 120 120 123 124 125 123 124 126 126 127 127 127 131 133 133 134 138

GFSCGP_250_spd_096.txt.gz
Wind_Speed
96 89 76 72 71 67 77 83 81 73 73 72 69 65 64 59 58 58 54 51 48 47 36 35 29 32 33 32 28 33 31 32 29 31 30 34 38 37 38 34 36 40 38 40
98 87 85 77 78 77 81 82 80 79 78 74 74 65 65 63 59 60 59 53 50 52 41 34 33 34 35 34 33 36 38 36 34 31 33 35 36 39 39 38 41 43 39 41
98 92 91 83 81 79 78 82 87 87 85 85 80 72 69 63 64 59 62 61 54 51 48 44 40 37 41 39 37 36 42 43 37 36 37 37 38 39 39 42 44 40 40 41
104 99 94 85 83 79 83 83 95 95 91 84 79 77 79 72 70 67 62 56 59 62 60 56 45 46 46 46 40 38 42 46 42 40 40 39 41 42 42 43 40 43 44 48
105 98 96 90 82 87 86 86 93 98 97 91 87 83 72 70 67 72 73 71 68 61 58 57 57 50 48 47 47 39 48 50 47 45 46 45 48 46 46 44 47 46 49 54
107 105 103 99 89 94 92 91 98 100 97 95 83 86 75 69 72 73 74 74 77 67 68 66 67 67 56 51 48 47 50 52 49 50 58 57 53 51 51 48 50 51 53 56
113 108 103 102 96 94 94 94 100 100 99 88 85 90 67 76 74 73 74 72 72 72 67 65 64 64 68 61 52 48 50 56 55 51 53 64 56 51 55 58 54 57 62 62
117 112 105 104 98 96 94 100 99 102 99 94 99 93 82 86 84 80 78 79 77 73 73 66 66 63 60 61 62 59 50 52 57 57 57 60 58 56 61 62 61 63 62 72
120 117 112 110 104 106 101 104 105 104 102 107 106 96 92 91 89 85 82 81 78 78 79 79 72 67 67 67 66 65 59 57 55 60 62 65 60 63 63 63 65 66 74 72
123 123 120 118 114 115 103 109 114 112 106 111 107 103 92 89 89 86 82 82 78 76 80 84 79 81 81 71 67 66 68 69 67 60 60 59 67 72 70 70 71 76 75 77
123 124 124 122 118 117 106 112 110 108 106 112 110 102 97 93 90 88 86 86 82 83 83 84 81 78 83 81 80 80 79 75 73 74 70 68 70 70 72 76 81 78 79 78
116 115 118 117 120 121 117 108 115 113 109 111 113 103 100 96 95 93 94 91 86 87 88 89 86 80 81 81 81 80 78 78 79 76 75 79 81 80 79 87 86 83 83 86
117 114 118 120 121 122 120 115 111 116 119 112 113 101 104 100 98 97 98 94 88 89 88 86 87 84 82 82 81 82 84 87 86 78 77 77 79 81 86 93 86 85 85 88
123 120 123 119 116 117 120 120 117 122 123 108 115 106 106 104 101 101 101 96 91 90 87 89 89 87 85 88 87 84 76 83 81 82 84 84 84 86 91 90 90 89 91 95
116 118 117 118 118 118 125 126 124 122 121 122 105 110 110 107 106 106 103 97 93 93 92 96 95 93 92 88 86 85 84 82 87 88 90 91 89 91 95 93 94 95 98 96
111 113 113 119 116 117 126 128 127 119 121 118 109 112 113 115 114 111 107 104 99 100 104 102 101 98 93 90 90 89 89 90 90 94 93 92 92 96 97 97 97 101 100 100
110 115 115 115 114 117 121 120 125 122 119 119 116 106 113 115 118 116 114 111 105 106 109 106 106 100 94 91 94 94 97 96 97 98 99 98 101 103 100 99 101 102 102 106
102 106 111 113 121 121 112 122 122 124 117 123 118 111 115 117 119 121 118 115 110 111 111 110 105 101 97 96 99 102 102 104 103 102 98 104 107 104 104 105 103 105 107 111
90 100 104 108 112 112 105 113 116 121 118 125 120 115 115 120 125 124 123 118 116 116 116 110 107 108 102 103 105 105 104 107 108 103 105 106 105 106 106 107 110 111 114 115
84 89 93 97 97 100 99 108 116 121 116 121 121 119 117 117 128 125 124 123 122 118 113 113 113 111 111 110 109 107 108 110 108 108 108 109 110 107 108 111 113 118 121 124
68 79 81 82 84 85 86 97 109 116 113 126 126 124 126 118 120 124 125 125 125 122 118 117 116 116 116 114 113 110 112 110 113 115 117 114 113 118 117 122 127 126 129 131
59 64 68 70 71 70 78 87 97 110 122 127 130 129 126 120 118 120 123 124 123 124 123 122 122 120 118 118 118 117 113 116 119 121 124 121 118 119 125 129 131 132 131 129
47 56 64 66 65 65 71 79 82 98 118 125 124 126 121 117 118 114 116 119 120 121 121 119 118 119 118 122 122 121 123 126 126 125 125 122 121 124 129 132 135 135 136 135
48 52 56 60 62 66 68 73 76 85 103 115 121 122 118 113 113 114 112 116 120 122 121 121 120 120 121 122 125 124 125 125 124 122 122 125 129 131 133 134 137 137 133 132
54 52 54 55 60 64 67 71 77 77 84 96 104 113 116 111 106 108 107 111 110 111 112 114 113 113 115 117 119 121 123 126 127 128 128 128 129 132 133 133 131 133 132 133
53 55 56 58 61 65 66 67 70 74 77 84 93 99 105 108 106 104 105 106 108 108 103 100 102 104 106 109 113 116 117 120 121 122 123 124 126 127 128 129 130 131 131 131

GFSCGP_250_spd_099.txt.gz
Wind_Speed
94 84 74 68 68 68 69 61 62 70 73 69 67 67 64 58 57 53 50 49 47 46 42 47 43 35 31 30 27 26 30 27 29 31 33 31 30 30 32 32 33 35 33 33
96 88 84 81 77 75 71 65 61 67 71 71 69 66 68 62 61 56 54 46 47 49 49 49 44 40 37 32 29 32 29 32 31 35 36 38 37 34 34 38 37 36 38 37
102 93 89 89 86 81 77 73 68 72 74 74 75 71 72 66 61 50 48 51 46 53 51 51 50 45 40 38 33 36 35 36 38 36 33 38 40 37 38 40 42 42 44 42
106 100 95 92 90 88 86 81 76 74 75 78 77 74 73 72 60 52 55 50 49 48 52 48 50 53 50 43 43 43 46 48 45 42 37 37 44 42 41 45 43 52 52 44
102 100 101 97 93 92 89 87 83 77 77 81 78 78 79 77 62 60 65 61 57 60 58 58 55 54 51 48 49 49 44 48 47 52 47 40 44 44 43 49 53 53 52 47
110 106 104 101 102 99 93 90 88 83 79 72 80 83 76 75 67 70 72 61 64 65 64 66 56 59 64 61 59 57 56 56 54 53 50 46 50 54 52 50 49 57 53 58
112 108 103 106 104 103 96 93 97 91 83 69 77 85 69 75 72 75 71 68 71 69 68 66 68 63 63 62 64 66 70 64 66 60 49 48 52 53 57 58 55 54 59 61
117 111 107 105 105 102 101 103 101 94 87 79 81 82 75 82 85 84 76 75 76 75 71 74 74 76 73 73 75 70 70 65 63 65 63 58 52 57 60 59 61 58 65 66
118 116 115 113 110 110 105 104 103 98 94 87 86 75 83 87 89 91 81 79 79 78 75 78 82 82 79 74 70 70 66 67 67 66 64 64 64 59 58 61 58 61 63 62
124 124 119 119 115 114 108 108 107 102 99 92 87 79 75 85 94 96 90 86 85 84 84 84 85 80 76 74 74 74 74 73 70 67 66 68 70 69 70 72 71 69 70 73
124 125 122 122 117 113 111 111 107 104 103 97 89 83 76 84 95 97 94 93 93 92 88 89 85 80 82 78 80 81 79 80 78 75 75 75 75 74 79 79 80 76 76 75
128 126 124 124 123 119 118 117 114 111 105 108 97 88 82 86 91 100 98 96 97 92 92 90 89 85 89 84 83 80 82 80 82 77 76 75 78 83 80 81 81 84 86 82
129 130 130 128 125 123 120 116 117 117 115 109 111 87 89 88 85 95 103 99 101 97 97 96 95 95 97 91 85 83 82 82 82 83 80 81 79 78 80 81 82 82 83 82
133 134 134 130 128 129 125 124 123 125 125 109 110 97 93 90 87 94 101 105 106 106 105 102 98 98 101 91 85 88 86 87 82 84 86 84 81 81 86 87 83 83 88 89
128 127 131 135 134 133 129 128 127 126 120 122 105 110 97 100 97 95 100 108 109 110 110 108 104 102 102 94 91 95 93 93 88 91 86 87 85 84 87 88 87 91 91 94
118 121 123 129 131 133 133 131 130 126 127 122 114 115 110 105 105 100 100 107 109 111 109 106 106 108 105 101 96 97 99 95 90 91 88 90 92 93 91 93 95 96 97 100
99 103 112 117 122 127 130 127 128 128 127 124 124 110 120 118 109 111 112 111 112 110 112 116 112 111 111 108 101 100 104 104 96 96 96 97 98 99 98 97 99 99 102 104
96 96 102 109 115 121 115 120 127 124 124 125 118 113 117 116 116 115 116 118 112 111 114 116 114 113 111 112 110 107 105 106 101 102 103 105 102 101 102 103 103 106 110 111
85 90 94 98 101 101 104 107 114 121 118 119 116 115 116 119 119 120 116 121 120 113 115 118 115 115 114 115 115 115 112 109 105 105 108 110 106 104 105 110 113 111 113 115
76 82 82 85 90 92 92 99 104 112 107 114 114 113 115 119 123 118 123 123 124 117 117 117 117 117 117 117 117 117 115 112 111 113 115 115 112 110 112 115 117 113 116 119
65 70 75 76 80 81 86 92 95 98 97 109 112 113 115 116 119 119 119 123 125 121 118 118 118 119 119 121 121 120 120 118 118 119 119 120 119 116 117 119 119 120 122 125
60 64 66 66 64 64 75 81 85 91 97 97 102 108 109 112 114 115 116 116 121 123 121 120 120 120 121 125 126 125 124 124 123 124 124 123 122 122 123 124 125 127 128 128
52 51 52 55 53 58 61 67 73 81 85 88 92 95 99 101 107 110 115 118 119 122 121 121 122 120 121 122 124 124 126 127 128 128 128 126 124 125 126 126 127 128 127 127
50 45 43 49 51 56 59 59 64 71 74 77 79 84 88 94 99 105 106 115 117 121 122 121 123 112 116 118 120 122 124 125 127 126 126 126 126 127 128 129 127 126 125 124
55 48 44 46 49 46 48 54 55 58 63 67 72 77 82 86 90 89 93 99 109 113 114 117 118 126 109 109 116 120 121 124 126 127 129 129 129 129 129 129 128 127 125 125
49 49 41 41 45 41 40 42 47 52 55 61 65 69 72 76 79 78 76 81 89 97 95 97 106 111 114 106 106 110 116 119 120 120 120 122 124 125 127 127 126 127 127 127

GFSCGP_250_spd_102.txt.gz
Wind_Speed
102 91 81 74 75 71 73 72 70 77 72 68 70 69 65 55 57 50 44 45 48 44 34 35 35 38 43 34 30 32 33 27 25 25 28 26 30 29 31 32 33 31 34 36
106 91 89 88 79 79 74 77 71 66 72 78 80 76 68 62 60 55 51 48 49 46 43 45 42 40 42 40 42 42 36 31 30 30 33 34 33 35 33 33 35 36 38 39
104 101 95 93 89 82 76 73 72 72 69 62 70 71 68 66 64 58 57 58 50 48 49 47 43 44 48 46 42 44 35 33 34 36 40 39 39 43 37 40 38 40 42 43
110 107 101 98 93 90 81 79 77 72 76 66 62 67 71 68 62 59 62 63 59 55 46 47 45 47 52 46 44 47 45 41 44 43 43 46 51 50 46 43 42 43 44 45
110 108 104 101 97 96 89 85 81 78 73 73 65 60 70 66 66 70 70 67 60 61 56 52 52 49 52 51 48 46 47 56 49 46 50 50 52 48 48 52 54 48 49 51
116 114 112 104 103 102 95 92 88 83 81 79 69 61 65 68 77 78 74 69 65 70 62 57 57 55 55 50 55 54 53 56 51 53 56 57 58 57 59 59 56 50 50 55
117 117 109 110 107 103 99 95 95 90 87 73 73 67 54 67 77 79 78 76 72 77 64 61 62 60 59 58 62 59 58 65 68 65 67 65 63 66 62 63 60 59 55 64
117 115 111 111 107 102 100 100 96 93 89 85 81 70 57 70 72 82 83 82 79 77 70 66 70 66 63 70 69 66 63 67 67 70 68 68 68 72 66 65 64 65 66 66
121 116 112 108 107 105 105 102 99 97 94 91 88 78 71 72 69 71 83 85 87 85 76 72 75 76 70 73 73 69 62 70 76 73 71 73 76 69 66 63 67 67 67 66
124 121 118 113 111 108 108 106 107 106 101 96 89 83 79 79 80 73 74 84 88 89 83 80 83 82 74 77 75 77 69 76 79 81 83 79 77 71 70 68 70 72 72 76
128 126 122 118 116 110 111 110 109 106 104 101 96 90 86 88 86 81 77 82 86 87 83 83 85 87 82 81 83 85 79 82 83 83 85 80 76 76 76 78 78 79 84 84
130 130 126 124 119 115 115 114 115 114 111 108 105 96 94 93 93 88 85 83 88 90 91 87 88 93 91 86 89 90 86 80 84 85 83 80 76 77 83 81 80 80 84 87
128 130 130 129 126 122 119 116 116 120 119 112 110 94 98 95 98 95 93 90 89 93 98 97 97 97 96 93 93 95 91 87 87 86 86 83 83 85 85 85 82 85 87 87
131 131 129 125 121 120 121 121 125 127 127 116 117 102 102 102 103 102 97 97 93 92 96 101 101 102 99 99 99 99 97 95 94 94 93 90 89 90 90 89 88 91 92 89
135 131 128 128 128 125 124 125 126 126 118 126 112 114 107 108 107 104 102 101 101 98 97 95 93 98 99 100 100 104 102 98 98 97 99 98 95 95 96 93 97 97 95 97
133 130 127 130 130 127 126 127 126 126 124 121 113 117 114 114 113 113 110 109 107 103 102 101 97 97 100 97 103 104 105 102 101 101 102 103 103 99 102 98 102 104 103 103
123 129 128 128 130 129 127 121 125 125 127 127 126 115 119 116 116 117 116 114 110 109 107 105 105 102 99 102 101 105 108 106 108 108 109 110 111 108 105 105 103 108 112 110
121 128 131 131 135 133 127 125 129 131 128 128 127 119 124 124 124 123 120 123 117 114 113 114 112 111 109 105 104 105 109 111 113 115 117 118 118 118 115 112 110 109 113 114
106 114 119 122 123 123 125 126 130 131 128 132 130 127 129 128 129 125 127 127 124 122 124 121 114 117 117 116 114 108 110 112 117 120 121 122 120 120 118 118 117 118 118 118
91 93 95 100 105 110 116 116 119 122 123 133 134 134 132 132 130 130 129 126 128 128 127 126 127 125 120 125 121 115 118 119 119 121 123 124 124 124 124 124 122 121 122 123
81 81 83 87 89 95 101 105 110 107 117 122 128 129 127 126 124 124 127 128 128 128 124 129 131 131 131 127 125 126 121 121 123 123 122 124 125 127 127 126 125 125 124 125
80 79 78 80 81 81 84 96 101 105 110 114 109 110 113 112 113 112 114 117 118 120 120 121 126 123 122 126 126 125 121 123 123 125 124 123 125 127 129 129 129 127 126 126
71 67 69 68 70 77 80 80 84 88 90 90 90 92 96 97 98 99 101 104 108 110 111 113 113 114 117 120 123 121 121 120 120 118 120 122 124 126 128 128 128 128 129 129
67 64 62 62 63 70 71 71 72 73 75 77 79 81 81 86 89 91 94 96 99 100 99 100 105 109 112 117 118 117 116 116 117 120 124 124 125 126 128 130 131 130 129 128
65 56 52 54 53 56 56 58 59 61 63 64 65 68 72 76 80 82 83 83 83 86 88 91 94 97 101 106 109 110 110 106 110 116 118 124 124 127 127 128 128 127 127 125
64 61 54 57 48 52 48 43 44 46 48 49 53 60 64 68 71 74 75 77 79 80 82 83 84 87 91 92 93 95 95 96 97 95 94 113 122 121 113 114 120 121 122 122

GFSCGP_250_spd_105.txt.gz
Wind_Speed
111 104 91 88 85 81 74 75 67 76 81 76 74 72 67 62 59 56 50 46 46 46 43 43 40 39 35 39 35 36 36 26 29 34 28 25 22 28 30 33 32 35 37 36
114 101 94 92 90 90 81 79 70 71 71 78 80 74 71 62 61 59 57 55 49 50 46 48 47 47 39 39 36 39 42 36 34 36 36 34 31 35 37 40 37 42 44 43
112 102 103 99 94 89 86 79 80 72 69 75 78 73 71 69 64 59 57 56 50 44 46 46 48 50 43 44 45 42 41 41 40 40 40 39 42 44 42 42 43 48 49 47
121 115 108 103 96 94 86 83 82 81 77 69 74 73 74 71 65 62 61 60 57 57 52 56 53 53 53 48 43 41 41 45 44 43 45 46 47 45 48 46 48 52 50 46
118 116 112 106 102 100 93 90 88 83 81 76 64 66 74 72 68 69 71 71 65 62 60 59 61 61 56 50 49 49 44 45 46 45 48 52 52 53 54 49 49 53 56 61
128 124 119 112 111 106 98 95 92 86 86 79 71 61 63 71 79 79 77 75 72 70 64 64 65 66 60 56 55 52 52 51 50 52 53 53 50 57 57 52 53 59 66 66
132 126 122 120 116 111 104 99 98 93 87 76 79 71 58 60 71 81 79 80 78 75 72 69 71 71 68 62 61 58 57 53 51 54 57 57 62 59 58 63 68 67 70 71
129 132 126 122 119 112 105 103 102 95 88 79 77 71 60 67 69 65 69 80 78 78 77 75 74 71 72 65 68 64 62 61 58 57 61 65 63 63 67 70 71 71 72 70
129 128 127 125 122 117 112 108 107 102 94 91 81 73 68 74 74 72 68 65 71 76 77 80 79 74 77 68 73 71 69 69 65 64 64 65 66 66 67 65 64 68 79 79
130 128 130 126 122 120 116 114 110 108 101 94 86 83 77 77 84 80 79 75 70 71 80 86 83 79 81 78 74 78 75 74 72 69 70 75 77 73 67 69 76 80 77 84
131 129 130 130 126 122 119 116 112 108 107 100 92 89 86 86 90 89 88 86 81 75 73 81 86 84 80 80 80 81 79 76 77 79 79 77 80 81 76 74 80 84 87 88
134 134 130 128 126 123 122 119 118 114 110 104 102 96 90 92 93 92 91 92 90 86 81 75 70 75 87 90 88 88 87 87 83 85 85 81 82 85 86 87 84 88 91 89
134 134 132 129 128 129 126 120 120 121 116 109 106 90 92 93 95 95 95 93 92 92 91 88 83 78 78 76 82 86 90 92 91 89 93 92 88 90 92 95 97 92 93 92
130 129 128 127 120 119 122 120 121 123 120 109 109 97 96 97 102 102 102 100 98 95 96 96 94 91 88 84 82 82 88 91 91 91 93 96 97 95 96 100 102 101 99 98
126 126 130 129 129 125 126 126 126 126 116 122 109 108 103 106 104 103 105 105 106 104 101 100 100 100 99 96 91 88 88 90 93 97 97 98 98 103 107 105 105 107 107 107
124 127 129 128 130 131 126 127 129 124 118 125 114 114 111 112 112 109 113 113 108 105 107 106 105 105 103 103 102 99 96 96 95 98 100 103 107 109 108 106 105 105 110 112
113 118 121 125 128 129 128 123 123 124 127 123 122 113 117 116 117 118 118 117 114 114 112 110 110 110 110 109 109 110 108 106 104 104 105 106 108 108 107 106 107 109 109 111
105 111 118 124 126 126 121 122 122 124 126 127 124 121 124 123 123 123 125 125 124 122 119 117 116 115 114 115 113 112 113 111 110 111 112 111 110 111 111 110 111 112 113 116
105 109 115 118 120 120 121 120 121 122 124 126 124 126 126 127 127 123 128 124 124 127 127 125 124 124 124 120 120 119 117 119 118 119 120 119 118 117 116 117 118 118 117 118
102 102 107 109 113 114 117 120 120 122 123 123 123 126 129 130 128 130 130 130 127 126 126 127 129 130 126 126 125 126 127 126 127 127 126 126 126 127 127 125 124 125 120 119
92 93 91 97 103 107 107 112 117 121 123 124 126 127 128 129 129 129 132 134 132 130 131 131 132 133 134 133 131 132 131 131 131 130 133 135 137 134 132 132 132 131 128 124
78 82 88 89 89 90 97 102 105 115 122 123 125 127 129 130 128 129 132 133 135 137 136 137 138 136 138 138 137 135 135 137 134 141 135 137 138 134 140 136 133 132 129 127
80 78 79 80 82 86 89 92 95 100 105 109 116 119 124 129 130 130 131 130 129 132 131 133 132 133 137 137 139 142 140 140 137 138 136 138 140 137 137 134 132 129 126 125
80 76 75 77 77 79 80 80 83 86 91 95 98 102 104 107 108 109 117 120 119 120 120 121 118 118 121 122 123 124 122 122 122 121 123 122 121 123 125 126 125 121 120 121
80 79 76 76 72 72 69 71 75 78 81 82 86 87 88 88 90 93 96 96 96 98 98 99 101 102 101 102 102 103 103 102 102 104 106 106 107 106 109 111 111 112 111 112
82 78 74 72 72 68 65 63 62 59 59 62 67 68 70 72 76 78 79 79 79 79 80 84 86 87 88 90 90 91 92 91 89 90 91 92 94 96 96 97 98 95 98 98

GFSCGP_250_spd_108.txt.gz
Wind_Speed
116 114 103 102 99 91 90 92 83 73 79 78 72 72 66 60 57 52 49 42 50 46 40 40 41 41 43 41 37 33 34 33 34 38 29 25 29 30 32 29 29 35 32 38
120 112 104 105 104 98 89 88 84 78 76 76 76 76 70 64 63 58 55 50 45 49 45 40 44 45 46 46 44 42 38 39 37 38 35 38 31 34 39 40 43 39 39 44
118 108 110 107 109 101 93 87 85 83 74 70 74 78 73 72 65 64 59 59 51 52 53 52 47 48 49 47 47 47 44 43 39 41 41 42 41 39 41 42 42 43 48 48
120 120 116 115 111 106 99 91 89 88 81 74 66 73 77 77 69 65 66 65 61 53 60 54 54 54 57 53 49 48 48 44 49 44 46 47 45 47 45 43 45 53 53 54
122 120 119 116 108 107 104 96 95 91 85 75 69 60 71 80 73 72 73 71 63 58 59 55 59 54 51 47 49 47 51 50 50 44 43 44 43 44 44 49 49 52 53 61
123 123 123 118 116 111 109 104 99 96 90 84 72 62 58 66 74 76 73 72 69 66 63 62 61 57 55 53 54 55 53 53 54 52 50 50 47 47 50 47 51 58 55 56
129 127 124 125 125 119 114 109 105 101 97 77 78 70 56 57 68 77 77 76 73 67 65 65 65 65 63 60 62 60 58 62 60 60 54 60 55 54 56 51 53 58 64 66
130 128 128 124 127 118 112 109 105 102 95 90 84 72 62 65 64 70 75 76 74 71 72 69 68 68 69 66 66 66 65 69 67 64 63 63 63 60 63 62 58 61 66 67
129 130 125 123 125 123 118 119 108 109 99 95 88 77 74 73 72 69 67 66 71 75 78 77 74 73 74 75 73 72 72 74 74 72 70 65 69 69 70 70 67 67 67 73
130 129 127 127 127 128 122 115 116 113 102 94 88 82 77 79 77 75 73 70 68 67 69 73 76 79 80 80 79 76 78 76 78 73 77 75 75 77 75 77 77 77 74 77
132 132 129 128 126 127 121 119 117 112 106 98 93 87 82 81 79 83 81 76 74 73 71 67 66 67 70 75 80 79 80 82 80 82 80 82 78 77 80 80 83 85 85 86
136 133 132 128 124 124 122 121 122 118 109 104 96 93 88 88 90 94 91 87 84 80 77 76 74 73 70 68 71 75 81 83 83 83 85 84 86 86 83 88 87 88 87 92
135 135 134 131 127 127 127 122 121 117 117 111 108 98 100 96 95 96 96 92 89 88 86 83 82 78 78 79 78 75 74 77 80 83 86 88 91 89 90 93 95 96 97 99
128 133 133 130 121 119 118 119 118 120 117 112 111 105 104 103 101 100 100 98 94 93 93 92 89 89 88 87 86 87 87 86 84 82 81 80 81 83 84 85 86 91 93 96
126 131 134 131 130 127 124 123 122 123 115 119 108 113 114 112 109 105 103 99 102 100 97 96 95 94 94 93 92 91 93 96 97 96 94 93 93 93 93 95 94 94 96 98
121 125 130 134 130 128 126 125 126 126 122 119 107 111 112 118 114 109 110 110 105 104 103 100 100 101 98 97 98 98 98 99 100 101 101 103 103 106 104 105 105 107 108 107
114 118 121 129 129 130 127 125 122 118 120 115 113 106 113 118 119 118 118 115 112 110 110 107 104 103 104 106 107 108 109 109 109 108 108 108 108 108 109 110 110 112 114 116
105 110 111 117 128 130 128 125 124 122 123 121 117 114 117 117 117 121 117 116 115 115 115 114 112 112 112 111 114 115 116 117 118 117 116 116 116 115 115 117 117 119 122 123
98 108 106 110 114 119 122 117 121 123 119 121 116 118 118 119 119 117 120 123 121 120 120 121 120 120 120 119 119 120 121 121 121 120 120 121 122 124 124 125 125 127 128 129
88 96 107 106 103 110 106 113 116 119 119 117 115 117 117 120 120 117 121 121 122 123 125 126 125 124 121 121 121 121 121 122 122 124 126 127 128 131 131 132 133 135 137 135
78 91 102 99 102 101 99 102 111 114 107 116 117 117 119 119 119 119 120 122 123 123 125 127 129 129 128 129 129 129 130 131 131 133 133 133 132 133 134 137 137 139 140 140
88 83 91 91 94 97 91 93 96 105 108 111 111 112 115 117 118 120 123 125 127 128 129 131 131 131 131 134 135 138 138 138 140 139 138 135 137 134 133 133 140 142 138 143
73 66 69 76 80 81 84 92 95 93 96 100 102 107 113 117 118 121 123 126 126 128 130 131 131 132 135 137 138 138 137 136 131 135 138 139 139 143 144 145 142 141 142 141
64 66 63 63 65 70 72 77 81 87 89 88 90 96 101 106 108 110 114 117 118 121 127 131 131 134 136 137 139 140 140 142 141 143 144 143 140 139 137 132 128 126 126 122
69 70 65 63 67 69 70 72 73 74 76 79 80 79 86 94 101 106 107 110 115 119 121 120 119 127 133 133 137 139 137 132 131 132 127 121 121 120 119 117 115 113 108 105
73 73 73 68 68 67 68 70 70 71 71 70 74 79 85 87 86 86 88 90 94 97 96 99 101 102 100 102 105 106 106 103 105 106 104 104 105 104 104 101 99 95 95 92

GFSCGP_250_spd_111.txt.gz
Wind_Speed
119 111 98 94 92 94 95 96 87 83 80 75 76 73 67 65 62 53 50 53 47 41 44 37 41 42 40 40 40 36 36 34 36 30 31 34 33 32 31 31 29 32 36 36
121 110 101 103 96 96 99 95 91 87 81 77 74 78 77 66 66 55 55 52 50 51 44 43 47 47 44 42 42 42 40 37 37 40 39 39 38 40 37 41 40 37 37 40
120 110 111 107 102 93 98 99 94 91 87 83 71 70 74 72 67 64 62 59 56 56 45 47 44 50 47 47 48 47 45 46 45 45 44 42 44 46 46 45 45 44 45 43
118 118 116 109 104 98 97 100 98 94 92 86 81 68 68 69 66 64 66 63 62 56 52 51 47 49 53 50 48 48 50 49 51 51 51 47 47 47 47 48 49 48 48 47
113 118 116 113 101 103 98 102 103 101 98 92 86 75 65 69 64 67 72 72 66 60 56 57 55 52 51 48 52 51 49 53 53 51 51 52 49 50 50 47 46 45 49 52
113 115 122 116 114 113 107 105 107 106 101 99 89 88 69 67 66 74 73 73 67 64 63 61 59 62 55 56 55 55 54 55 52 55 55 53 53 52 55 54 54 55 56 54
111 114 118 120 121 117 113 109 110 114 107 97 93 90 70 70 67 71 75 76 73 71 69 64 64 66 65 61 61 59 59 59 54 54 56 58 58 57 61 63 61 60 65 66
118 121 119 122 119 114 108 109 110 111 106 92 96 86 70 72 73 70 68 71 70 72 72 73 69 69 71 68 64 63 62 62 60 62 65 65 65 68 67 68 67 67 69 70
116 119 118 121 121 119 117 117 107 113 111 104 100 91 83 80 79 75 72 66 64 68 69 77 72 73 71 74 70 68 67 67 65 68 71 70 71 71 72 74 74 74 75 76
112 117 120 124 124 126 125 115 122 117 114 109 98 96 86 79 85 82 77 73 66 63 66 71 71 72 72 74 75 74 70 71 70 70 76 76 75 77 77 79 82 84 83 83
110 117 117 123 128 127 122 125 122 118 115 109 106 98 91 90 88 87 84 80 76 70 65 67 69 70 67 69 72 72 78 81 81 81 80 80 84 82 80 82 85 85 83 88
106 112 119 122 127 123 123 123 123 123 112 108 104 100 97 94 89 92 88 86 80 78 75 71 70 68 67 63 64 64 67 70 70 72 72 74 74 78 78 79 84 85 83 86
103 111 115 125 130 128 128 123 123 122 119 119 112 105 102 96 97 97 96 92 89 87 82 79 78 75 72 71 70 69 69 68 69 69 71 73 74 76 79 80 82 83 85 86
100 103 110 119 125 123 122 122 120 121 121 112 110 105 107 102 99 99 99 97 93 92 90 84 82 81 77 77 77 78 79 79 80 81 82 82 84 85 86 88 89 91 92 92
95 97 106 112 117 125 120 125 122 122 117 118 106 108 110 108 105 105 101 101 97 95 95 92 89 89 90 88 86 85 85 86 88 90 89 90 91 93 93 94 94 97 99 101
94 91 94 102 110 121 124 122 124 123 122 123 116 114 112 115 114 106 102 101 104 102 99 97 96 94 94 95 95 93 92 94 94 95 95 96 98 99 101 104 105 106 107 108
95 90 94 95 99 106 117 123 121 118 119 116 117 107 111 114 114 113 110 108 109 106 103 103 103 103 102 101 101 101 101 101 100 101 102 103 103 105 107 109 110 112 114 114
93 91 88 88 98 107 110 111 114 119 119 120 116 114 114 115 116 115 114 114 112 110 111 109 106 104 102 103 105 108 108 109 109 109 109 110 110 113 115 116 118 119 121 122
87 88 90 95 96 99 98 100 104 111 111 112 112 115 116 117 117 116 116 111 110 112 111 109 109 109 109 108 108 109 109 111 113 114 115 116 117 118 119 120 119 123 125 126
85 88 90 91 93 97 94 97 103 111 114 108 111 113 115 117 115 114 115 116 115 111 112 114 115 117 117 117 118 118 115 115 117 119 119 120 121 121 123 125 127 129 129 131
89 82 71 73 81 89 91 95 99 107 101 110 109 111 116 117 112 116 116 116 117 119 118 119 120 122 122 121 122 121 120 120 120 121 122 123 125 126 127 128 130 131 134 135
76 81 83 74 80 75 76 80 90 84 89 101 105 107 111 110 114 117 116 115 118 120 120 121 123 123 125 125 124 124 126 127 128 129 129 129 130 133 133 135 137 138 139 139
84 78 78 77 68 71 72 67 68 71 79 88 96 100 103 110 114 113 113 116 121 123 122 121 123 124 126 128 129 130 131 132 132 132 131 132 132 135 137 138 138 140 141 146
88 81 75 70 66 70 72 74 77 82 80 80 83 90 94 100 104 106 108 110 113 117 119 122 125 127 128 128 127 128 130 131 133 133 133 135 138 138 134 136 139 133 130 132
80 84 79 73 68 63 54 56 64 66 67 73 80 85 84 83 87 92 98 103 106 107 109 112 115 116 117 118 121 119 122 127 129 129 130 130 129 131 128 125 121 119 119 119
83 75 75 73 69 63 60 60 60 58 57 60 63 68 72 78 79 82 86 88 92 95 97 100 102 102 104 107 109 109 111 113 112 112 110 111 110 109 108 109 108 109 107 106

GFSCGP_250_spd_114.txt.gz
Wind_Speed
117 112 105 100 100 100 97 90 91 89 90 83 78 79 75 61 65 62 61 56 54 53 51 52 52 51 40 43 43 40 35 38 39 33 33 31 29 33 35 36 39 38 37 39
121 114 111 111 106 102 100 93 88 93 90 90 85 81 75 68 62 63 60 58 60 52 49 49 54 53 53 44 45 45 44 42 38 40 40 40 40 41 41 42 44 43 43 43
117 116 119 117 113 107 104 97 96 91 92 92 89 83 74 71 66 62 62 64 66 56 49 50 52 49 52 47 48 47 45 43 44 45 47 45 45 45 48 47 48 50 50 52
116 121 121 122 119 111 108 105 104 100 95 92 91 84 81 74 71 61 56 65 66 62 52 53 58 53 49 50 48 48 52 48 47 50 51 51 51 52 51 50 50 52 54 53
113 114 119 119 118 117 111 114 111 108 101 94 95 88 82 79 68 65 70 71 69 67 57 59 61 57 57 49 53 48 51 53 50 48 51 54 57 56 54 57 57 59 58 58
114 112 116 113 118 121 118 119 116 112 106 104 92 92 81 83 76 72 71 74 73 72 67 64 66 61 58 58 55 54 53 55 54 53 56 58 57 57 60 61 62 60 59 60
107 106 108 109 114 120 117 117 119 116 114 95 94 97 78 80 77 77 75 70 70 72 69 71 71 72 69 64 60 58 58 58 61 55 56 58 60 60 62 62 61 63 64 65
103 104 106 105 107 110 112 117 120 117 112 97 100 95 85 77 78 83 80 75 73 70 70 69 69 75 74 69 69 63 65 62 63 62 61 63 65 66 62 65 65 65 69 71
96 102 104 106 109 110 113 122 115 123 118 111 106 92 92 86 80 86 87 83 73 70 69 72 71 77 76 74 72 68 68 68 67 70 68 68 70 71 73 71 70 73 75 77
94 99 103 107 112 112 113 116 124 126 120 113 104 94 88 93 84 84 88 88 85 77 72 69 69 75 78 80 77 73 73 75 72 72 74 76 75 75 77 76 75 76 78 79
95 96 100 107 112 109 112 114 120 123 121 116 108 99 92 92 93 86 87 88 88 85 79 75 71 69 67 69 73 78 79 81 80 81 80 80 81 83 82 81 81 82 84 86
95 98 100 105 110 109 111 114 119 127 121 120 116 105 95 92 95 95 89 88 88 88 85 82 77 73 68 63 66 72 75 78 83 82 81 82 83 83 82 80 83 84 81 80
96 99 100 105 112 113 113 113 115 117 120 123 119 106 102 101 99 100 96 91 90 88 88 86 87 82 77 73 68 66 68 69 70 73 73 73 72 71 71 71 73 74 76 77
104 102 102 102 106 109 113 111 112 117 123 119 124 113 109 105 104 101 102 97 93 94 93 92 89 88 84 82 79 77 75 75 74 73 73 73 73 74 75 78 80 83 86 88
108 106 102 100 103 104 107 113 113 118 120 127 117 120 115 112 110 107 106 103 103 98 96 93 91 90 89 89 86 83 83 84 82 83 83 84 83 83 85 87 89 90 92 94
110 108 105 101 101 102 107 110 113 116 116 127 121 119 115 116 117 114 109 105 105 105 103 101 97 94 93 94 94 93 89 89 90 89 88 89 92 94 94 94 95 96 97 100
107 106 104 100 100 104 111 102 106 110 108 113 119 114 118 119 120 117 114 111 109 111 109 105 100 97 97 96 97 98 96 94 94 96 98 99 99 98 98 99 102 104 105 107
97 101 102 97 102 111 92 99 99 101 102 110 116 112 118 118 119 121 121 115 113 113 113 111 108 105 103 101 100 99 100 101 102 102 103 103 104 106 107 107 110 110 111 113
82 88 90 89 94 96 90 88 91 92 92 97 103 102 110 115 119 119 118 116 115 114 113 113 114 111 108 106 105 107 107 106 106 107 107 108 111 113 114 115 115 114 114 117
76 80 84 84 85 88 70 78 85 94 95 92 97 95 99 105 115 112 118 115 118 115 114 115 115 114 113 111 110 110 109 110 111 112 115 116 115 116 115 117 117 117 119 121
74 77 79 81 84 77 76 82 87 90 77 93 90 90 95 94 94 106 112 115 114 115 113 116 116 116 116 117 116 116 117 116 114 116 117 117 117 117 117 119 121 122 124 123
82 81 83 85 85 79 82 84 82 79 80 84 92 91 89 89 97 100 104 107 109 109 110 113 115 117 117 120 122 122 121 121 121 120 120 120 121 120 121 123 126 127 128 129
86 85 84 84 83 81 80 77 78 77 78 77 82 84 81 84 89 96 98 102 104 106 107 109 111 114 120 122 122 124 124 124 126 126 125 126 125 126 127 128 131 132 130 132
90 89 85 82 73 68 74 75 74 74 68 70 77 79 79 81 80 82 89 97 97 100 103 107 110 113 115 119 121 124 125 126 127 127 127 128 128 127 129 130 130 132 129 130
83 72 65 60 68 76 67 52 64 63 65 69 69 64 59 61 69 72 72 80 88 94 98 102 104 108 112 116 120 121 122 123 124 123 122 123 125 123 124 123 124 124 121 123
71 77 78 72 73 71 69 64 61 61 63 60 58 59 57 55 55 58 61 63 70 76 81 87 93 98 102 107 112 114 115 117 118 120 118 117 119 120 121 118 115 116 111 108

GFSCGP_250_spd_117.txt.gz
Wind_Speed
121 116 105 101 102 102 98 93 88 90 96 90 83 83 76 73 68 60 59 57 61 65 63 60 59 55 56 53 53 49 51 42 44 44 41 39 39 38 39 36 38 38 38 41
120 113 112 113 110 105 102 97 92 92 93 89 88 85 82 75 69 68 62 61 59 59 60 65 60 56 58 56 57 54 52 49 46 47 39 42 44 45 43 41 42 44 45 48
115 113 115 113 112 108 105 99 97 97 97 90 89 85 83 76 73 69 61 60 57 60 59 60 59 55 56 58 58 58 54 51 51 50 49 46 47 45 49 48 49 49 49 50
114 113 116 119 115 112 111 106 105 102 103 98 93 88 87 82 76 71 67 63 65 63 61 61 56 58 60 60 55 57 58 52 48 52 53 52 50 51 53 53 53 54 56 57
110 111 111 112 115 117 112 114 112 111 108 104 98 91 83 84 78 74 70 71 68 65 60 63 64 64 62 59 56 57 58 58 52 50 56 57 55 54 53 56 56 58 60 62
111 111 110 110 116 122 120 117 116 115 113 109 95 94 81 81 78 78 79 77 74 68 63 64 67 71 70 62 59 57 58 54 53 52 55 54 56 57 55 57 58 60 62 62
105 106 107 110 114 115 119 119 120 119 117 102 98 103 80 81 79 78 80 80 76 74 69 65 68 71 72 69 63 61 65 65 62 55 55 59 58 57 62 62 57 59 63 67
103 104 105 108 109 112 115 121 122 121 117 108 108 106 87 84 84 82 83 83 81 76 77 71 69 73 72 74 72 69 65 67 64 63 63 62 64 64 65 69 65 66 67 69
100 102 106 108 111 114 118 118 121 126 124 119 115 103 98 93 89 87 90 88 86 82 78 78 75 74 80 80 81 79 73 75 72 73 71 70 71 72 71 69 72 75 75 75
101 102 104 105 108 111 115 120 124 126 125 123 115 108 103 96 97 91 91 93 92 87 81 79 80 78 74 74 72 75 75 78 79 80 79 77 75 75 78 79 77 77 78 78
96 98 99 102 102 107 111 115 121 124 123 122 119 115 108 105 100 102 93 91 95 93 88 83 82 82 81 75 73 75 76 75 76 79 84 82 80 81 81 80 83 84 85 85
94 97 98 98 100 103 105 107 115 119 116 121 124 117 112 113 107 107 105 98 94 96 94 89 84 83 82 81 76 76 78 75 76 78 80 87 88 85 85 88 90 92 91 91
95 94 95 95 95 97 100 102 106 109 118 118 121 112 113 110 112 110 110 106 101 97 96 96 92 86 85 84 82 79 79 80 75 74 73 75 77 81 85 87 89 87 87 87
99 96 94 90 91 95 96 100 104 109 114 108 117 106 111 110 112 115 115 111 106 103 99 97 99 96 91 89 88 86 83 82 81 79 79 76 73 75 79 80 81 80 80 82
100 98 95 92 93 94 95 97 102 107 105 111 101 108 103 110 114 114 116 115 108 106 105 103 99 101 100 96 93 90 90 89 88 87 84 83 81 79 80 81 82 82 85 87
105 100 100 96 94 96 99 98 98 98 100 106 99 103 93 102 108 110 114 116 115 111 108 107 104 100 100 101 100 96 94 94 93 92 90 89 87 86 86 87 88 89 92 93
104 101 102 97 100 101 102 88 94 97 98 100 101 90 89 102 105 111 115 115 117 117 114 112 109 107 105 102 102 103 102 98 97 96 95 95 93 92 92 94 95 96 97 98
104 105 106 100 103 104 88 94 94 96 94 99 96 92 91 96 100 104 108 111 114 113 115 113 112 111 110 108 105 104 104 105 104 102 101 101 100 101 101 102 103 103 104 106
103 107 106 103 103 97 93 87 92 100 92 97 92 84 90 99 103 101 100 106 111 114 116 114 113 114 113 111 110 109 106 106 107 108 107 107 108 109 110 111 111 112 111 112
101 102 105 101 97 95 71 91 97 102 93 83 88 83 86 97 101 85 101 105 108 112 115 116 114 115 116 115 114 112 112 112 111 111 113 113 113 114 114 114 114 115 115 116
89 90 88 86 89 78 72 90 99 97 74 82 89 87 94 96 83 89 98 103 105 107 111 116 118 116 116 116 116 116 116 117 116 116 115 116 117 118 118 117 118 119 121 121
73 76 72 70 74 53 66 79 82 76 76 81 86 88 89 88 88 88 87 89 93 96 104 107 109 114 117 118 116 116 117 118 118 118 119 119 120 121 122 122 123 124 124 125
64 64 65 65 56 56 61 63 67 68 72 75 77 78 81 81 82 83 82 82 83 86 89 93 99 103 110 116 117 116 116 116 117 119 120 121 122 124 124 126 126 128 129 129
68 67 64 65 55 54 57 62 62 59 63 69 72 75 76 79 79 78 77 75 76 80 82 83 87 94 98 103 110 116 117 118 118 117 119 122 123 124 125 127 129 130 131 131
77 75 70 67 63 61 63 64 65 66 68 71 74 75 76 77 78 78 79 75 75 77 79 83 88 94 97 102 106 110 112 113 115 117 117 117 118 121 124 123 124 125 126 127
86 81 78 73 71 69 71 71 72 73 74 75 75 77 80 80 80 79 75 72 71 72 75 77 79 81 90 98 102 103 105 109 113 112 110 111 112 114 118 119 118 117 119 118

GFSCGP_250_spd_120.txt.gz
Wind_Speed
123 121 117 109 108 104 104 101 97 93 93 89 87 85 80 74 69 63 57 57 60 59 56 56 57 57 56 54 51 50 50 47 47 42 38 42 40 40 41 41 42 42 41 43
123 120 121 118 115 109 104 105 100 97 96 91 89 84 84 76 72 71 68 57 59 63 59 59 56 55 58 59 58 56 54 53 52 53 52 50 50 51 50 50 46 46 47 47
118 118 118 118 115 110 105 103 102 101 102 96 94 86 84 81 75 75 72 72 64 63 62 62 55 56 57 58 62 61 60 57 56 55 53 54 53 53 53 49 47 49 51 52
115 113 116 120 119 116 110 108 107 106 106 101 97 91 84 82 77 76 74 74 77 70 66 65 60 58 59 61 60 61 61 60 58 58 57 57 57 55 55 55 54 54 54 57
109 110 111 114 116 118 113 111 111 111 112 108 100 95 85 81 78 77 74 75 77 78 70 66 65 61 60 64 64 63 60 60 62 63 62 60 60 57 54 54 57 59 57 57
113 111 113 114 118 122 119 115 115 114 113 113 97 100 85 87 79 81 80 78 78 78 75 67 66 64 66 63 62 68 62 62 65 65 62 63 63 62 59 57 56 57 57 57
109 108 108 111 114 118 120 115 119 119 119 109 104 107 87 86 84 82 82 80 80 78 77 73 69 71 69 66 64 66 68 63 66 68 64 63 66 64 61 60 60 62 61 63
106 107 107 107 110 113 116 117 121 123 120 111 113 109 92 88 89 88 87 87 86 82 78 78 79 74 73 72 67 66 69 70 71 71 68 65 67 68 68 70 67 64 65 67
105 107 106 106 109 112 113 116 115 123 124 119 118 107 99 96 93 92 92 92 90 90 87 80 80 79 76 73 73 69 68 71 70 77 75 69 70 70 74 76 75 74 73 74
101 103 104 105 110 110 113 115 118 119 124 124 117 113 102 101 99 97 96 97 96 94 92 86 83 81 80 78 74 72 72 73 69 73 76 79 79 76 77 78 80 82 82 81
99 97 100 104 104 107 110 111 113 118 120 120 119 114 106 104 105 103 102 100 102 101 98 92 89 87 84 82 80 79 78 77 76 74 77 80 80 79 78 81 87 88 86 86
97 95 96 99 104 109 108 108 112 113 113 115 116 108 107 107 107 109 108 106 105 104 103 102 97 93 91 88 85 86 83 82 82 81 82 80 81 79 78 80 78 79 82 83
96 97 97 100 101 102 102 102 106 107 112 109 113 101 105 106 107 109 113 113 110 107 106 103 100 98 99 96 93 91 88 87 86 85 84 83 84 82 83 83 85 84 85 85
98 98 97 96 99 103 103 103 104 107 110 101 105 96 107 110 112 114 115 117 116 112 109 107 106 105 103 103 101 98 95 93 91 90 88 87 87 84 84 84 83 84 83 84
97 95 95 95 99 101 101 101 100 95 90 103 92 97 97 107 111 114 115 118 117 116 114 111 110 109 109 106 105 105 102 98 96 95 93 91 89 89 89 89 90 88 90 89
92 93 94 94 95 98 97 95 94 91 91 90 89 91 89 100 110 113 119 120 122 121 120 116 117 115 112 112 109 108 109 107 103 99 97 96 95 94 93 95 95 94 93 93
88 89 88 87 91 96 93 89 90 90 89 89 90 78 86 93 96 102 108 116 119 123 126 124 115 113 110 108 110 111 111 111 108 105 102 100 101 102 102 101 101 100 99 99
87 87 87 86 91 96 83 84 88 89 89 90 86 78 80 86 93 97 98 104 108 112 119 121 120 115 111 111 111 112 112 115 113 110 108 106 104 103 104 105 106 104 103 103
87 89 89 90 92 89 83 81 88 92 90 87 85 81 80 88 95 88 85 94 98 102 104 111 118 118 112 109 110 111 114 115 115 114 113 111 109 108 107 106 106 106 107 108
90 91 93 91 92 90 71 87 91 95 86 86 89 85 84 96 91 71 91 99 97 95 97 99 105 111 113 111 109 110 112 113 114 115 115 115 114 112 112 112 112 112 112 113
94 95 95 94 98 88 79 88 95 98 72 94 92 86 87 90 88 81 91 94 91 91 90 92 94 98 101 103 104 107 110 110 111 113 115 115 115 115 114 113 113 114 116 117
94 96 93 93 96 77 80 93 100 92 90 85 87 90 90 90 89 88 87 89 90 89 88 88 90 94 99 102 103 103 104 106 108 110 111 113 114 113 114 116 117 118 119 121
81 86 87 83 77 66 76 86 87 87 88 89 85 90 93 93 94 93 89 90 90 89 87 86 86 89 94 98 99 101 104 106 107 108 109 111 112 112 113 115 117 120 122 123
71 72 66 63 54 59 64 69 72 77 81 82 81 82 89 88 92 90 88 88 88 87 88 87 86 87 88 90 93 96 98 101 104 107 109 109 110 112 113 113 114 115 116 118
66 63 57 53 52 57 56 62 66 69 72 72 72 72 76 80 77 78 78 78 82 83 84 83 82 82 82 82 85 86 89 90 92 95 97 100 104 107 108 111 112 113 115 117
69 66 61 56 57 54 57 58 57 58 59 61 61 62 65 65 62 61 66 69 70 71 71 74 76 75 75 76 78 80 82 85 89 91 93 95 98 101 105 107 108 109 108 106